<?xml version="1.0" encoding="UTF-8" standalone="no" ?>
<gpx xmlns="http://www.topografix.com/GPX/1/1" xmlns:xsi="http://www.w3.org/2001/XMLSchema-instance" xsi:schemaLocation="http://www.topografix.com/GPX/1/1 http://www.topografix.com/GPX/1/1/gpx.xsd" version="1.1" creator="VisuGPX - https://www.visugpx.com">
  <metadata>
    <name>Ichante-Aydius</name>
    <desc><![CDATA[Superbe rando VTT au départ de Bedous]]></desc>
  </metadata>
  <trk>
    <name><![CDATA[2017-10-12 15:24:27]]></name>
    <trkseg>
      <trkpt lat="43.00044" lon="-0.60074">
        <ele>427</ele>
        <time>2017-10-12T07:44:44Z</time>
      </trkpt>
      <trkpt lat="43.00044" lon="-0.60074">
        <ele>427</ele>
        <time>2017-10-12T07:44:45Z</time>
      </trkpt>
      <trkpt lat="43.00044" lon="-0.60073">
        <ele>423.31</ele>
        <time>2017-10-12T07:44:51Z</time>
      </trkpt>
      <trkpt lat="43.00044" lon="-0.60073">
        <ele>420.29</ele>
        <time>2017-10-12T07:44:55Z</time>
      </trkpt>
      <trkpt lat="43.00044" lon="-0.60073">
        <ele>420.29</ele>
        <time>2017-10-12T07:44:56Z</time>
      </trkpt>
      <trkpt lat="43.00043" lon="-0.60074">
        <ele>419.38</ele>
        <time>2017-10-12T07:44:58Z</time>
      </trkpt>
      <trkpt lat="43.00043" lon="-0.60098">
        <ele>418.37</ele>
        <time>2017-10-12T07:45:08Z</time>
      </trkpt>
      <trkpt lat="43.00041" lon="-0.60099">
        <ele>418.3</ele>
        <time>2017-10-12T07:45:09Z</time>
      </trkpt>
      <trkpt lat="43.00034" lon="-0.601">
        <ele>418.23</ele>
        <time>2017-10-12T07:45:12Z</time>
      </trkpt>
      <trkpt lat="43.00031" lon="-0.60092">
        <ele>418.47</ele>
        <time>2017-10-12T07:45:17Z</time>
      </trkpt>
      <trkpt lat="43.00028" lon="-0.60071">
        <ele>418.77</ele>
        <time>2017-10-12T07:45:25Z</time>
      </trkpt>
      <trkpt lat="43.00029" lon="-0.60046">
        <ele>418.74</ele>
        <time>2017-10-12T07:45:35Z</time>
      </trkpt>
      <trkpt lat="43.00023" lon="-0.60019">
        <ele>419.2</ele>
        <time>2017-10-12T07:45:43Z</time>
      </trkpt>
      <trkpt lat="43.00001" lon="-0.60028">
        <ele>419.23</ele>
        <time>2017-10-12T07:45:53Z</time>
      </trkpt>
      <trkpt lat="42.99972" lon="-0.60031">
        <ele>419.63</ele>
        <time>2017-10-12T07:46:02Z</time>
      </trkpt>
      <trkpt lat="42.99934" lon="-0.60045">
        <ele>419.89</ele>
        <time>2017-10-12T07:46:15Z</time>
      </trkpt>
      <trkpt lat="42.99919" lon="-0.60045">
        <ele>419.63</ele>
        <time>2017-10-12T07:46:20Z</time>
      </trkpt>
      <trkpt lat="42.99906" lon="-0.6004">
        <ele>419.35</ele>
        <time>2017-10-12T07:46:27Z</time>
      </trkpt>
      <trkpt lat="42.99897" lon="-0.60039">
        <ele>419.07</ele>
        <time>2017-10-12T07:46:31Z</time>
      </trkpt>
      <trkpt lat="42.99873" lon="-0.60004">
        <ele>417.98</ele>
        <time>2017-10-12T07:46:42Z</time>
      </trkpt>
      <trkpt lat="42.99854" lon="-0.59979">
        <ele>418.88</ele>
        <time>2017-10-12T07:46:52Z</time>
      </trkpt>
      <trkpt lat="42.99854" lon="-0.59975">
        <ele>419.92</ele>
        <time>2017-10-12T07:46:56Z</time>
      </trkpt>
      <trkpt lat="42.99858" lon="-0.59988">
        <ele>420.83</ele>
        <time>2017-10-12T07:47:05Z</time>
      </trkpt>
      <trkpt lat="42.99855" lon="-0.59994">
        <ele>420.41</ele>
        <time>2017-10-12T07:47:09Z</time>
      </trkpt>
      <trkpt lat="42.99838" lon="-0.59984">
        <ele>420.11</ele>
        <time>2017-10-12T07:47:17Z</time>
      </trkpt>
      <trkpt lat="42.99831" lon="-0.59977">
        <ele>419.75</ele>
        <time>2017-10-12T07:47:19Z</time>
      </trkpt>
      <trkpt lat="42.99813" lon="-0.59959">
        <ele>416.54</ele>
        <time>2017-10-12T07:47:27Z</time>
      </trkpt>
      <trkpt lat="42.99811" lon="-0.59958">
        <ele>415.93</ele>
        <time>2017-10-12T07:47:38Z</time>
      </trkpt>
      <trkpt lat="42.99825" lon="-0.59974">
        <ele>416.06</ele>
        <time>2017-10-12T07:47:46Z</time>
      </trkpt>
      <trkpt lat="42.99838" lon="-0.59979">
        <ele>416.88</ele>
        <time>2017-10-12T07:47:53Z</time>
      </trkpt>
      <trkpt lat="42.99843" lon="-0.59987">
        <ele>417.94</ele>
        <time>2017-10-12T07:47:58Z</time>
      </trkpt>
      <trkpt lat="42.99847" lon="-0.59992">
        <ele>419.12</ele>
        <time>2017-10-12T07:48:05Z</time>
      </trkpt>
      <trkpt lat="42.99851" lon="-0.59983">
        <ele>419.65</ele>
        <time>2017-10-12T07:48:10Z</time>
      </trkpt>
      <trkpt lat="42.99857" lon="-0.59968">
        <ele>420.58</ele>
        <time>2017-10-12T07:48:17Z</time>
      </trkpt>
      <trkpt lat="42.99867" lon="-0.5995">
        <ele>421.84</ele>
        <time>2017-10-12T07:48:26Z</time>
      </trkpt>
      <trkpt lat="42.99846" lon="-0.5991">
        <ele>421.69</ele>
        <time>2017-10-12T07:48:37Z</time>
      </trkpt>
      <trkpt lat="42.99824" lon="-0.59872">
        <ele>421.04</ele>
        <time>2017-10-12T07:48:48Z</time>
      </trkpt>
      <trkpt lat="42.99821" lon="-0.59822">
        <ele>422.15</ele>
        <time>2017-10-12T07:48:59Z</time>
      </trkpt>
      <trkpt lat="42.99828" lon="-0.59778">
        <ele>424.33</ele>
        <time>2017-10-12T07:49:12Z</time>
      </trkpt>
      <trkpt lat="42.9984" lon="-0.59733">
        <ele>426.72</ele>
        <time>2017-10-12T07:49:26Z</time>
      </trkpt>
      <trkpt lat="42.99843" lon="-0.59695">
        <ele>428.74</ele>
        <time>2017-10-12T07:49:39Z</time>
      </trkpt>
      <trkpt lat="42.99831" lon="-0.59663">
        <ele>430.17</ele>
        <time>2017-10-12T07:49:53Z</time>
      </trkpt>
      <trkpt lat="42.9982" lon="-0.59654">
        <ele>430.77</ele>
        <time>2017-10-12T07:50:03Z</time>
      </trkpt>
      <trkpt lat="42.99805" lon="-0.59636">
        <ele>430.6</ele>
        <time>2017-10-12T07:50:08Z</time>
      </trkpt>
      <trkpt lat="42.99777" lon="-0.59568">
        <ele>430.79</ele>
        <time>2017-10-12T07:50:21Z</time>
      </trkpt>
      <trkpt lat="42.99755" lon="-0.59529">
        <ele>431.48</ele>
        <time>2017-10-12T07:50:34Z</time>
      </trkpt>
      <trkpt lat="42.99727" lon="-0.59484">
        <ele>433.01</ele>
        <time>2017-10-12T07:50:50Z</time>
      </trkpt>
      <trkpt lat="42.99693" lon="-0.59442">
        <ele>432.86</ele>
        <time>2017-10-12T07:51:08Z</time>
      </trkpt>
      <trkpt lat="42.9968" lon="-0.59443">
        <ele>432.43</ele>
        <time>2017-10-12T07:51:13Z</time>
      </trkpt>
      <trkpt lat="42.99644" lon="-0.59456">
        <ele>430.6</ele>
        <time>2017-10-12T07:51:23Z</time>
      </trkpt>
      <trkpt lat="42.99632" lon="-0.59455">
        <ele>431.43</ele>
        <time>2017-10-12T07:51:28Z</time>
      </trkpt>
      <trkpt lat="42.99626" lon="-0.59474">
        <ele>431.51</ele>
        <time>2017-10-12T07:51:34Z</time>
      </trkpt>
      <trkpt lat="42.99624" lon="-0.59492">
        <ele>431.32</ele>
        <time>2017-10-12T07:51:40Z</time>
      </trkpt>
      <trkpt lat="42.99612" lon="-0.59497">
        <ele>431.28</ele>
        <time>2017-10-12T07:51:45Z</time>
      </trkpt>
      <trkpt lat="42.99602" lon="-0.59499">
        <ele>431.32</ele>
        <time>2017-10-12T07:51:49Z</time>
      </trkpt>
      <trkpt lat="42.99572" lon="-0.59502">
        <ele>432.4</ele>
        <time>2017-10-12T07:52:02Z</time>
      </trkpt>
      <trkpt lat="42.99569" lon="-0.59502">
        <ele>432.63</ele>
        <time>2017-10-12T07:52:03Z</time>
      </trkpt>
      <trkpt lat="42.99547" lon="-0.59502">
        <ele>435.75</ele>
        <time>2017-10-12T07:52:15Z</time>
      </trkpt>
      <trkpt lat="42.99543" lon="-0.59499">
        <ele>436.47</ele>
        <time>2017-10-12T07:52:18Z</time>
      </trkpt>
      <trkpt lat="42.99545" lon="-0.5946">
        <ele>439.69</ele>
        <time>2017-10-12T07:52:34Z</time>
      </trkpt>
      <trkpt lat="42.99544" lon="-0.59458">
        <ele>439.88</ele>
        <time>2017-10-12T07:52:35Z</time>
      </trkpt>
      <trkpt lat="42.99538" lon="-0.59454">
        <ele>440.69</ele>
        <time>2017-10-12T07:52:39Z</time>
      </trkpt>
      <trkpt lat="42.99513" lon="-0.59455">
        <ele>444.07</ele>
        <time>2017-10-12T07:52:53Z</time>
      </trkpt>
      <trkpt lat="42.99478" lon="-0.5945">
        <ele>446.53</ele>
        <time>2017-10-12T07:53:09Z</time>
      </trkpt>
      <trkpt lat="42.99441" lon="-0.59443">
        <ele>449.26</ele>
        <time>2017-10-12T07:53:26Z</time>
      </trkpt>
      <trkpt lat="42.9942" lon="-0.59436">
        <ele>450.67</ele>
        <time>2017-10-12T07:53:37Z</time>
      </trkpt>
      <trkpt lat="42.99405" lon="-0.59426">
        <ele>451.86</ele>
        <time>2017-10-12T07:53:46Z</time>
      </trkpt>
      <trkpt lat="42.994" lon="-0.59421">
        <ele>452.55</ele>
        <time>2017-10-12T07:53:49Z</time>
      </trkpt>
      <trkpt lat="42.99397" lon="-0.5942">
        <ele>452.96</ele>
        <time>2017-10-12T07:53:51Z</time>
      </trkpt>
      <trkpt lat="42.99392" lon="-0.59416">
        <ele>453.73</ele>
        <time>2017-10-12T07:53:55Z</time>
      </trkpt>
      <trkpt lat="42.99383" lon="-0.59413">
        <ele>454.87</ele>
        <time>2017-10-12T07:54:00Z</time>
      </trkpt>
      <trkpt lat="42.99377" lon="-0.59411">
        <ele>455.44</ele>
        <time>2017-10-12T07:54:03Z</time>
      </trkpt>
      <trkpt lat="42.99346" lon="-0.59403">
        <ele>456.28</ele>
        <time>2017-10-12T07:54:16Z</time>
      </trkpt>
      <trkpt lat="42.99329" lon="-0.59396">
        <ele>456.88</ele>
        <time>2017-10-12T07:54:23Z</time>
      </trkpt>
      <trkpt lat="42.9931" lon="-0.59388">
        <ele>456.89</ele>
        <time>2017-10-12T07:54:31Z</time>
      </trkpt>
      <trkpt lat="42.99283" lon="-0.5937">
        <ele>458.79</ele>
        <time>2017-10-12T07:54:45Z</time>
      </trkpt>
      <trkpt lat="42.99264" lon="-0.59361">
        <ele>461.1</ele>
        <time>2017-10-12T07:54:57Z</time>
      </trkpt>
      <trkpt lat="42.99261" lon="-0.59361">
        <ele>461.36</ele>
        <time>2017-10-12T07:54:59Z</time>
      </trkpt>
      <trkpt lat="42.99245" lon="-0.59355">
        <ele>462.89</ele>
        <time>2017-10-12T07:55:10Z</time>
      </trkpt>
      <trkpt lat="42.99221" lon="-0.59345">
        <ele>464.51</ele>
        <time>2017-10-12T07:55:22Z</time>
      </trkpt>
      <trkpt lat="42.99216" lon="-0.59346">
        <ele>464.9</ele>
        <time>2017-10-12T07:55:24Z</time>
      </trkpt>
      <trkpt lat="42.99178" lon="-0.5935">
        <ele>465.92</ele>
        <time>2017-10-12T07:55:40Z</time>
      </trkpt>
      <trkpt lat="42.99154" lon="-0.59342">
        <ele>466.81</ele>
        <time>2017-10-12T07:55:53Z</time>
      </trkpt>
      <trkpt lat="42.9914" lon="-0.59339">
        <ele>468.64</ele>
        <time>2017-10-12T07:56:03Z</time>
      </trkpt>
      <trkpt lat="42.99114" lon="-0.59339">
        <ele>471.13</ele>
        <time>2017-10-12T07:56:17Z</time>
      </trkpt>
      <trkpt lat="42.99087" lon="-0.59335">
        <ele>471.36</ele>
        <time>2017-10-12T07:56:28Z</time>
      </trkpt>
      <trkpt lat="42.99068" lon="-0.59333">
        <ele>471.61</ele>
        <time>2017-10-12T07:56:36Z</time>
      </trkpt>
      <trkpt lat="42.99043" lon="-0.59333">
        <ele>474.16</ele>
        <time>2017-10-12T07:56:50Z</time>
      </trkpt>
      <trkpt lat="42.9901" lon="-0.59336">
        <ele>475.88</ele>
        <time>2017-10-12T07:57:05Z</time>
      </trkpt>
      <trkpt lat="42.98982" lon="-0.59349">
        <ele>476.77</ele>
        <time>2017-10-12T07:57:18Z</time>
      </trkpt>
      <trkpt lat="42.98978" lon="-0.59355">
        <ele>476.72</ele>
        <time>2017-10-12T07:57:20Z</time>
      </trkpt>
      <trkpt lat="42.98978" lon="-0.59398">
        <ele>475.88</ele>
        <time>2017-10-12T07:57:29Z</time>
      </trkpt>
      <trkpt lat="42.98945" lon="-0.59406">
        <ele>476.6</ele>
        <time>2017-10-12T07:57:43Z</time>
      </trkpt>
      <trkpt lat="42.98915" lon="-0.59407">
        <ele>479.44</ele>
        <time>2017-10-12T07:57:59Z</time>
      </trkpt>
      <trkpt lat="42.98888" lon="-0.59407">
        <ele>482.38</ele>
        <time>2017-10-12T07:58:14Z</time>
      </trkpt>
      <trkpt lat="42.98865" lon="-0.59408">
        <ele>483.95</ele>
        <time>2017-10-12T07:58:27Z</time>
      </trkpt>
      <trkpt lat="42.98858" lon="-0.59406">
        <ele>484.64</ele>
        <time>2017-10-12T07:58:31Z</time>
      </trkpt>
      <trkpt lat="42.98834" lon="-0.59404">
        <ele>486.9</ele>
        <time>2017-10-12T07:58:46Z</time>
      </trkpt>
      <trkpt lat="42.98812" lon="-0.59402">
        <ele>488.81</ele>
        <time>2017-10-12T07:59:01Z</time>
      </trkpt>
      <trkpt lat="42.98794" lon="-0.59409">
        <ele>490.04</ele>
        <time>2017-10-12T07:59:13Z</time>
      </trkpt>
      <trkpt lat="42.98773" lon="-0.5941">
        <ele>491.17</ele>
        <time>2017-10-12T07:59:28Z</time>
      </trkpt>
      <trkpt lat="42.98756" lon="-0.59416">
        <ele>493</ele>
        <time>2017-10-12T07:59:39Z</time>
      </trkpt>
      <trkpt lat="42.98743" lon="-0.59414">
        <ele>493.73</ele>
        <time>2017-10-12T07:59:47Z</time>
      </trkpt>
      <trkpt lat="42.98732" lon="-0.59421">
        <ele>494.42</ele>
        <time>2017-10-12T07:59:53Z</time>
      </trkpt>
      <trkpt lat="42.98721" lon="-0.59452">
        <ele>493.83</ele>
        <time>2017-10-12T08:00:05Z</time>
      </trkpt>
      <trkpt lat="42.98711" lon="-0.59471">
        <ele>493.22</ele>
        <time>2017-10-12T08:00:14Z</time>
      </trkpt>
      <trkpt lat="42.98698" lon="-0.5947">
        <ele>492.28</ele>
        <time>2017-10-12T08:00:18Z</time>
      </trkpt>
      <trkpt lat="42.98687" lon="-0.59469">
        <ele>491.41</ele>
        <time>2017-10-12T08:00:20Z</time>
      </trkpt>
      <trkpt lat="42.98666" lon="-0.59466">
        <ele>489.51</ele>
        <time>2017-10-12T08:00:24Z</time>
      </trkpt>
      <trkpt lat="42.98621" lon="-0.59463">
        <ele>487.59</ele>
        <time>2017-10-12T08:00:32Z</time>
      </trkpt>
      <trkpt lat="42.98598" lon="-0.5949">
        <ele>485.84</ele>
        <time>2017-10-12T08:00:40Z</time>
      </trkpt>
      <trkpt lat="42.98578" lon="-0.59506">
        <ele>484.26</ele>
        <time>2017-10-12T08:00:44Z</time>
      </trkpt>
      <trkpt lat="42.98533" lon="-0.59518">
        <ele>481.02</ele>
        <time>2017-10-12T08:00:52Z</time>
      </trkpt>
      <trkpt lat="42.98527" lon="-0.5952">
        <ele>480.49</ele>
        <time>2017-10-12T08:00:55Z</time>
      </trkpt>
      <trkpt lat="42.98518" lon="-0.59519">
        <ele>479.94</ele>
        <time>2017-10-12T08:01:10Z</time>
      </trkpt>
      <trkpt lat="42.98518" lon="-0.59515">
        <ele>480.59</ele>
        <time>2017-10-12T08:01:37Z</time>
      </trkpt>
      <trkpt lat="42.98522" lon="-0.59485">
        <ele>481.28</ele>
        <time>2017-10-12T08:01:49Z</time>
      </trkpt>
      <trkpt lat="42.98527" lon="-0.59446">
        <ele>484.37</ele>
        <time>2017-10-12T08:02:01Z</time>
      </trkpt>
      <trkpt lat="42.98526" lon="-0.59439">
        <ele>485.53</ele>
        <time>2017-10-12T08:02:04Z</time>
      </trkpt>
      <trkpt lat="42.98527" lon="-0.59436">
        <ele>486.48</ele>
        <time>2017-10-12T08:02:06Z</time>
      </trkpt>
      <trkpt lat="42.98524" lon="-0.59475">
        <ele>487.02</ele>
        <time>2017-10-12T08:02:16Z</time>
      </trkpt>
      <trkpt lat="42.98521" lon="-0.59486">
        <ele>486.15</ele>
        <time>2017-10-12T08:02:18Z</time>
      </trkpt>
      <trkpt lat="42.98515" lon="-0.59525">
        <ele>482.62</ele>
        <time>2017-10-12T08:02:26Z</time>
      </trkpt>
      <trkpt lat="42.98505" lon="-0.59527">
        <ele>480.68</ele>
        <time>2017-10-12T08:02:33Z</time>
      </trkpt>
      <trkpt lat="42.98483" lon="-0.5951">
        <ele>480.16</ele>
        <time>2017-10-12T08:02:45Z</time>
      </trkpt>
      <trkpt lat="42.98458" lon="-0.59501">
        <ele>481.65</ele>
        <time>2017-10-12T08:02:57Z</time>
      </trkpt>
      <trkpt lat="42.98426" lon="-0.59504">
        <ele>484.74</ele>
        <time>2017-10-12T08:03:14Z</time>
      </trkpt>
      <trkpt lat="42.98396" lon="-0.59519">
        <ele>486.26</ele>
        <time>2017-10-12T08:03:28Z</time>
      </trkpt>
      <trkpt lat="42.98372" lon="-0.59522">
        <ele>487.92</ele>
        <time>2017-10-12T08:03:40Z</time>
      </trkpt>
      <trkpt lat="42.98345" lon="-0.59523">
        <ele>489.86</ele>
        <time>2017-10-12T08:03:52Z</time>
      </trkpt>
      <trkpt lat="42.98307" lon="-0.59501">
        <ele>490.33</ele>
        <time>2017-10-12T08:04:08Z</time>
      </trkpt>
      <trkpt lat="42.98266" lon="-0.59492">
        <ele>491.64</ele>
        <time>2017-10-12T08:04:24Z</time>
      </trkpt>
      <trkpt lat="42.98232" lon="-0.59487">
        <ele>492.97</ele>
        <time>2017-10-12T08:04:37Z</time>
      </trkpt>
      <trkpt lat="42.98193" lon="-0.59472">
        <ele>493.89</ele>
        <time>2017-10-12T08:04:52Z</time>
      </trkpt>
      <trkpt lat="42.98163" lon="-0.5944">
        <ele>495.6</ele>
        <time>2017-10-12T08:05:07Z</time>
      </trkpt>
      <trkpt lat="42.9814" lon="-0.59409">
        <ele>496.8</ele>
        <time>2017-10-12T08:05:20Z</time>
      </trkpt>
      <trkpt lat="42.98113" lon="-0.59394">
        <ele>498.82</ele>
        <time>2017-10-12T08:05:33Z</time>
      </trkpt>
      <trkpt lat="42.98095" lon="-0.59384">
        <ele>501.16</ele>
        <time>2017-10-12T08:05:44Z</time>
      </trkpt>
      <trkpt lat="42.98088" lon="-0.5938">
        <ele>502.09</ele>
        <time>2017-10-12T08:05:48Z</time>
      </trkpt>
      <trkpt lat="42.98057" lon="-0.59357">
        <ele>505.03</ele>
        <time>2017-10-12T08:06:06Z</time>
      </trkpt>
      <trkpt lat="42.98029" lon="-0.59332">
        <ele>506.93</ele>
        <time>2017-10-12T08:06:22Z</time>
      </trkpt>
      <trkpt lat="42.98009" lon="-0.5931">
        <ele>508.13</ele>
        <time>2017-10-12T08:06:34Z</time>
      </trkpt>
      <trkpt lat="42.9799" lon="-0.59272">
        <ele>509.4</ele>
        <time>2017-10-12T08:06:50Z</time>
      </trkpt>
      <trkpt lat="42.97975" lon="-0.59234">
        <ele>512.3</ele>
        <time>2017-10-12T08:07:05Z</time>
      </trkpt>
      <trkpt lat="42.9796" lon="-0.59209">
        <ele>514.71</ele>
        <time>2017-10-12T08:07:19Z</time>
      </trkpt>
      <trkpt lat="42.97943" lon="-0.59187">
        <ele>517.76</ele>
        <time>2017-10-12T08:07:34Z</time>
      </trkpt>
      <trkpt lat="42.9793" lon="-0.59166">
        <ele>519.9</ele>
        <time>2017-10-12T08:07:46Z</time>
      </trkpt>
      <trkpt lat="42.9791" lon="-0.5914">
        <ele>522.75</ele>
        <time>2017-10-12T08:08:01Z</time>
      </trkpt>
      <trkpt lat="42.97892" lon="-0.59115">
        <ele>525.42</ele>
        <time>2017-10-12T08:08:16Z</time>
      </trkpt>
      <trkpt lat="42.97872" lon="-0.59087">
        <ele>527.64</ele>
        <time>2017-10-12T08:08:32Z</time>
      </trkpt>
      <trkpt lat="42.97854" lon="-0.59067">
        <ele>530.37</ele>
        <time>2017-10-12T08:08:46Z</time>
      </trkpt>
      <trkpt lat="42.97831" lon="-0.59052">
        <ele>532.88</ele>
        <time>2017-10-12T08:09:00Z</time>
      </trkpt>
      <trkpt lat="42.97804" lon="-0.59048">
        <ele>535.65</ele>
        <time>2017-10-12T08:09:15Z</time>
      </trkpt>
      <trkpt lat="42.97779" lon="-0.59055">
        <ele>538.44</ele>
        <time>2017-10-12T08:09:30Z</time>
      </trkpt>
      <trkpt lat="42.97759" lon="-0.59061">
        <ele>540.3</ele>
        <time>2017-10-12T08:09:42Z</time>
      </trkpt>
      <trkpt lat="42.97757" lon="-0.59062">
        <ele>541.11</ele>
        <time>2017-10-12T08:09:44Z</time>
      </trkpt>
      <trkpt lat="42.97733" lon="-0.59065">
        <ele>544.36</ele>
        <time>2017-10-12T08:10:00Z</time>
      </trkpt>
      <trkpt lat="42.97712" lon="-0.59066">
        <ele>547.22</ele>
        <time>2017-10-12T08:10:13Z</time>
      </trkpt>
      <trkpt lat="42.97703" lon="-0.59064">
        <ele>548.32</ele>
        <time>2017-10-12T08:10:19Z</time>
      </trkpt>
      <trkpt lat="42.97679" lon="-0.59059">
        <ele>550.97</ele>
        <time>2017-10-12T08:10:35Z</time>
      </trkpt>
      <trkpt lat="42.97656" lon="-0.59053">
        <ele>553.03</ele>
        <time>2017-10-12T08:10:50Z</time>
      </trkpt>
      <trkpt lat="42.97631" lon="-0.59038">
        <ele>556.13</ele>
        <time>2017-10-12T08:11:06Z</time>
      </trkpt>
      <trkpt lat="42.97611" lon="-0.59016">
        <ele>557.92</ele>
        <time>2017-10-12T08:11:21Z</time>
      </trkpt>
      <trkpt lat="42.97592" lon="-0.58994">
        <ele>560.28</ele>
        <time>2017-10-12T08:11:35Z</time>
      </trkpt>
      <trkpt lat="42.9759" lon="-0.58991">
        <ele>560.72</ele>
        <time>2017-10-12T08:11:37Z</time>
      </trkpt>
      <trkpt lat="42.97583" lon="-0.58987">
        <ele>561.41</ele>
        <time>2017-10-12T08:11:42Z</time>
      </trkpt>
      <trkpt lat="42.97581" lon="-0.58985">
        <ele>561.73</ele>
        <time>2017-10-12T08:11:44Z</time>
      </trkpt>
      <trkpt lat="42.97574" lon="-0.58979">
        <ele>561.91</ele>
        <time>2017-10-12T08:11:57Z</time>
      </trkpt>
      <trkpt lat="42.97575" lon="-0.58979">
        <ele>561.74</ele>
        <time>2017-10-12T08:13:08Z</time>
      </trkpt>
      <trkpt lat="42.97572" lon="-0.58978">
        <ele>561.71</ele>
        <time>2017-10-12T08:14:11Z</time>
      </trkpt>
      <trkpt lat="42.97568" lon="-0.58976">
        <ele>561.44</ele>
        <time>2017-10-12T08:15:29Z</time>
      </trkpt>
      <trkpt lat="42.97567" lon="-0.58977">
        <ele>561.8</ele>
        <time>2017-10-12T08:16:32Z</time>
      </trkpt>
      <trkpt lat="42.9757" lon="-0.58977">
        <ele>561.44</ele>
        <time>2017-10-12T08:17:26Z</time>
      </trkpt>
      <trkpt lat="42.97572" lon="-0.58977">
        <ele>561.5</ele>
        <time>2017-10-12T08:18:26Z</time>
      </trkpt>
      <trkpt lat="42.97572" lon="-0.58978">
        <ele>561.1</ele>
        <time>2017-10-12T08:19:19Z</time>
      </trkpt>
      <trkpt lat="42.97573" lon="-0.58976">
        <ele>561.18</ele>
        <time>2017-10-12T08:20:18Z</time>
      </trkpt>
      <trkpt lat="42.97574" lon="-0.58978">
        <ele>561.08</ele>
        <time>2017-10-12T08:21:42Z</time>
      </trkpt>
      <trkpt lat="42.97571" lon="-0.58979">
        <ele>561.92</ele>
        <time>2017-10-12T08:22:59Z</time>
      </trkpt>
      <trkpt lat="42.97571" lon="-0.58984">
        <ele>561.43</ele>
        <time>2017-10-12T08:24:01Z</time>
      </trkpt>
      <trkpt lat="42.97573" lon="-0.58983">
        <ele>561.57</ele>
        <time>2017-10-12T08:24:49Z</time>
      </trkpt>
      <trkpt lat="42.97569" lon="-0.58982">
        <ele>561.95</ele>
        <time>2017-10-12T08:25:40Z</time>
      </trkpt>
      <trkpt lat="42.97571" lon="-0.58977">
        <ele>563.22</ele>
        <time>2017-10-12T08:26:37Z</time>
      </trkpt>
      <trkpt lat="42.97573" lon="-0.58978">
        <ele>562.95</ele>
        <time>2017-10-12T08:28:05Z</time>
      </trkpt>
      <trkpt lat="42.97569" lon="-0.5898">
        <ele>563</ele>
        <time>2017-10-12T08:30:15Z</time>
      </trkpt>
      <trkpt lat="42.97572" lon="-0.5898">
        <ele>563.1</ele>
        <time>2017-10-12T08:31:33Z</time>
      </trkpt>
      <trkpt lat="42.97573" lon="-0.58976">
        <ele>563.53</ele>
        <time>2017-10-12T08:32:56Z</time>
      </trkpt>
      <trkpt lat="42.97573" lon="-0.58974">
        <ele>564.12</ele>
        <time>2017-10-12T08:33:01Z</time>
      </trkpt>
      <trkpt lat="42.97571" lon="-0.58958">
        <ele>564.88</ele>
        <time>2017-10-12T08:33:16Z</time>
      </trkpt>
      <trkpt lat="42.97555" lon="-0.58931">
        <ele>567.99</ele>
        <time>2017-10-12T08:33:31Z</time>
      </trkpt>
      <trkpt lat="42.9754" lon="-0.58909">
        <ele>571.11</ele>
        <time>2017-10-12T08:33:45Z</time>
      </trkpt>
      <trkpt lat="42.97523" lon="-0.58889">
        <ele>573.31</ele>
        <time>2017-10-12T08:33:58Z</time>
      </trkpt>
      <trkpt lat="42.97509" lon="-0.58879">
        <ele>576.38</ele>
        <time>2017-10-12T08:34:09Z</time>
      </trkpt>
      <trkpt lat="42.97494" lon="-0.58871">
        <ele>579.42</ele>
        <time>2017-10-12T08:34:24Z</time>
      </trkpt>
      <trkpt lat="42.97471" lon="-0.58862">
        <ele>582.22</ele>
        <time>2017-10-12T08:34:41Z</time>
      </trkpt>
      <trkpt lat="42.97462" lon="-0.58859">
        <ele>583.67</ele>
        <time>2017-10-12T08:34:48Z</time>
      </trkpt>
      <trkpt lat="42.97457" lon="-0.58844">
        <ele>585.82</ele>
        <time>2017-10-12T08:35:01Z</time>
      </trkpt>
      <trkpt lat="42.97462" lon="-0.58844">
        <ele>586.41</ele>
        <time>2017-10-12T08:35:05Z</time>
      </trkpt>
      <trkpt lat="42.97489" lon="-0.58844">
        <ele>587.37</ele>
        <time>2017-10-12T08:35:22Z</time>
      </trkpt>
      <trkpt lat="42.97517" lon="-0.58843">
        <ele>588.76</ele>
        <time>2017-10-12T08:35:38Z</time>
      </trkpt>
      <trkpt lat="42.97543" lon="-0.58849">
        <ele>590.84</ele>
        <time>2017-10-12T08:35:55Z</time>
      </trkpt>
      <trkpt lat="42.97569" lon="-0.58859">
        <ele>592.74</ele>
        <time>2017-10-12T08:36:11Z</time>
      </trkpt>
      <trkpt lat="42.97586" lon="-0.58859">
        <ele>594.79</ele>
        <time>2017-10-12T08:36:21Z</time>
      </trkpt>
      <trkpt lat="42.97587" lon="-0.58847">
        <ele>595.13</ele>
        <time>2017-10-12T08:36:26Z</time>
      </trkpt>
      <trkpt lat="42.97582" lon="-0.58841">
        <ele>595.82</ele>
        <time>2017-10-12T08:36:30Z</time>
      </trkpt>
      <trkpt lat="42.97562" lon="-0.58821">
        <ele>599.29</ele>
        <time>2017-10-12T08:36:44Z</time>
      </trkpt>
      <trkpt lat="42.97554" lon="-0.58808">
        <ele>601.2</ele>
        <time>2017-10-12T08:36:52Z</time>
      </trkpt>
      <trkpt lat="42.97537" lon="-0.58785">
        <ele>604.08</ele>
        <time>2017-10-12T08:37:08Z</time>
      </trkpt>
      <trkpt lat="42.97521" lon="-0.58764">
        <ele>607.22</ele>
        <time>2017-10-12T08:37:23Z</time>
      </trkpt>
      <trkpt lat="42.97505" lon="-0.58745">
        <ele>609.63</ele>
        <time>2017-10-12T08:37:37Z</time>
      </trkpt>
      <trkpt lat="42.97501" lon="-0.58738">
        <ele>610.72</ele>
        <time>2017-10-12T08:37:41Z</time>
      </trkpt>
      <trkpt lat="42.97496" lon="-0.58731">
        <ele>611.64</ele>
        <time>2017-10-12T08:37:45Z</time>
      </trkpt>
      <trkpt lat="42.9748" lon="-0.58692">
        <ele>613.89</ele>
        <time>2017-10-12T08:38:04Z</time>
      </trkpt>
      <trkpt lat="42.97465" lon="-0.58662">
        <ele>616.48</ele>
        <time>2017-10-12T08:38:20Z</time>
      </trkpt>
      <trkpt lat="42.9745" lon="-0.58636">
        <ele>619.54</ele>
        <time>2017-10-12T08:38:35Z</time>
      </trkpt>
      <trkpt lat="42.97434" lon="-0.5861">
        <ele>622.62</ele>
        <time>2017-10-12T08:38:51Z</time>
      </trkpt>
      <trkpt lat="42.97425" lon="-0.58586">
        <ele>625.53</ele>
        <time>2017-10-12T08:39:05Z</time>
      </trkpt>
      <trkpt lat="42.97425" lon="-0.58577">
        <ele>626.77</ele>
        <time>2017-10-12T08:39:10Z</time>
      </trkpt>
      <trkpt lat="42.97442" lon="-0.58551">
        <ele>630.28</ele>
        <time>2017-10-12T08:39:26Z</time>
      </trkpt>
      <trkpt lat="42.97464" lon="-0.58526">
        <ele>632.99</ele>
        <time>2017-10-12T08:39:43Z</time>
      </trkpt>
      <trkpt lat="42.97485" lon="-0.58499">
        <ele>634.58</ele>
        <time>2017-10-12T08:39:58Z</time>
      </trkpt>
      <trkpt lat="42.97491" lon="-0.58465">
        <ele>635.6</ele>
        <time>2017-10-12T08:40:11Z</time>
      </trkpt>
      <trkpt lat="42.97481" lon="-0.58431">
        <ele>637.94</ele>
        <time>2017-10-12T08:40:28Z</time>
      </trkpt>
      <trkpt lat="42.97474" lon="-0.58406">
        <ele>641.13</ele>
        <time>2017-10-12T08:40:42Z</time>
      </trkpt>
      <trkpt lat="42.97466" lon="-0.58386">
        <ele>644.18</ele>
        <time>2017-10-12T08:40:54Z</time>
      </trkpt>
      <trkpt lat="42.97457" lon="-0.58369">
        <ele>647.31</ele>
        <time>2017-10-12T08:41:06Z</time>
      </trkpt>
      <trkpt lat="42.97449" lon="-0.58346">
        <ele>650.3</ele>
        <time>2017-10-12T08:41:18Z</time>
      </trkpt>
      <trkpt lat="42.97457" lon="-0.58313">
        <ele>652.66</ele>
        <time>2017-10-12T08:41:32Z</time>
      </trkpt>
      <trkpt lat="42.9746" lon="-0.58279">
        <ele>653.55</ele>
        <time>2017-10-12T08:41:42Z</time>
      </trkpt>
      <trkpt lat="42.9746" lon="-0.5827">
        <ele>654.39</ele>
        <time>2017-10-12T08:41:46Z</time>
      </trkpt>
      <trkpt lat="42.97461" lon="-0.58245">
        <ele>657.43</ele>
        <time>2017-10-12T08:42:01Z</time>
      </trkpt>
      <trkpt lat="42.97463" lon="-0.58234">
        <ele>658.1</ele>
        <time>2017-10-12T08:42:07Z</time>
      </trkpt>
      <trkpt lat="42.97467" lon="-0.58227">
        <ele>659.26</ele>
        <time>2017-10-12T08:42:12Z</time>
      </trkpt>
      <trkpt lat="42.97481" lon="-0.58203">
        <ele>661.93</ele>
        <time>2017-10-12T08:42:26Z</time>
      </trkpt>
      <trkpt lat="42.97489" lon="-0.58176">
        <ele>664.39</ele>
        <time>2017-10-12T08:42:39Z</time>
      </trkpt>
      <trkpt lat="42.97487" lon="-0.58156">
        <ele>666.74</ele>
        <time>2017-10-12T08:42:49Z</time>
      </trkpt>
      <trkpt lat="42.97485" lon="-0.58152">
        <ele>667.54</ele>
        <time>2017-10-12T08:42:52Z</time>
      </trkpt>
      <trkpt lat="42.97482" lon="-0.58146">
        <ele>668.77</ele>
        <time>2017-10-12T08:42:56Z</time>
      </trkpt>
      <trkpt lat="42.9748" lon="-0.58119">
        <ele>671.43</ele>
        <time>2017-10-12T08:43:10Z</time>
      </trkpt>
      <trkpt lat="42.97481" lon="-0.58111">
        <ele>672.21</ele>
        <time>2017-10-12T08:43:14Z</time>
      </trkpt>
      <trkpt lat="42.97484" lon="-0.58075">
        <ele>674.8</ele>
        <time>2017-10-12T08:43:30Z</time>
      </trkpt>
      <trkpt lat="42.97484" lon="-0.58071">
        <ele>675.14</ele>
        <time>2017-10-12T08:43:32Z</time>
      </trkpt>
      <trkpt lat="42.97484" lon="-0.58057">
        <ele>676.35</ele>
        <time>2017-10-12T08:43:39Z</time>
      </trkpt>
      <trkpt lat="42.97479" lon="-0.58047">
        <ele>677.23</ele>
        <time>2017-10-12T08:43:46Z</time>
      </trkpt>
      <trkpt lat="42.97477" lon="-0.58045">
        <ele>677.49</ele>
        <time>2017-10-12T08:43:48Z</time>
      </trkpt>
      <trkpt lat="42.97472" lon="-0.58038">
        <ele>678.26</ele>
        <time>2017-10-12T08:43:53Z</time>
      </trkpt>
      <trkpt lat="42.97464" lon="-0.58029">
        <ele>679.58</ele>
        <time>2017-10-12T08:44:00Z</time>
      </trkpt>
      <trkpt lat="42.97445" lon="-0.58008">
        <ele>682.71</ele>
        <time>2017-10-12T08:44:16Z</time>
      </trkpt>
      <trkpt lat="42.97443" lon="-0.58004">
        <ele>683.02</ele>
        <time>2017-10-12T08:44:18Z</time>
      </trkpt>
      <trkpt lat="42.97425" lon="-0.57983">
        <ele>685.22</ele>
        <time>2017-10-12T08:44:32Z</time>
      </trkpt>
      <trkpt lat="42.97405" lon="-0.57951">
        <ele>687.23</ele>
        <time>2017-10-12T08:44:48Z</time>
      </trkpt>
      <trkpt lat="42.97376" lon="-0.57913">
        <ele>688.54</ele>
        <time>2017-10-12T08:45:05Z</time>
      </trkpt>
      <trkpt lat="42.9734" lon="-0.57875">
        <ele>690.49</ele>
        <time>2017-10-12T08:45:23Z</time>
      </trkpt>
      <trkpt lat="42.97315" lon="-0.57865">
        <ele>693.52</ele>
        <time>2017-10-12T08:45:38Z</time>
      </trkpt>
      <trkpt lat="42.97313" lon="-0.57864">
        <ele>693.67</ele>
        <time>2017-10-12T08:45:39Z</time>
      </trkpt>
      <trkpt lat="42.9731" lon="-0.57848">
        <ele>694.98</ele>
        <time>2017-10-12T08:45:47Z</time>
      </trkpt>
      <trkpt lat="42.97315" lon="-0.57817">
        <ele>698.34</ele>
        <time>2017-10-12T08:46:01Z</time>
      </trkpt>
      <trkpt lat="42.97305" lon="-0.57772">
        <ele>701.37</ele>
        <time>2017-10-12T08:46:20Z</time>
      </trkpt>
      <trkpt lat="42.97289" lon="-0.57738">
        <ele>703.63</ele>
        <time>2017-10-12T08:46:35Z</time>
      </trkpt>
      <trkpt lat="42.97256" lon="-0.57714">
        <ele>703.32</ele>
        <time>2017-10-12T08:46:49Z</time>
      </trkpt>
      <trkpt lat="42.97252" lon="-0.57712">
        <ele>703.65</ele>
        <time>2017-10-12T08:46:51Z</time>
      </trkpt>
      <trkpt lat="42.97239" lon="-0.57701">
        <ele>705.55</ele>
        <time>2017-10-12T08:47:00Z</time>
      </trkpt>
      <trkpt lat="42.97223" lon="-0.57687">
        <ele>708.93</ele>
        <time>2017-10-12T08:47:13Z</time>
      </trkpt>
      <trkpt lat="42.97211" lon="-0.57676">
        <ele>711.03</ele>
        <time>2017-10-12T08:47:22Z</time>
      </trkpt>
      <trkpt lat="42.97192" lon="-0.57653">
        <ele>713.88</ele>
        <time>2017-10-12T08:47:38Z</time>
      </trkpt>
      <trkpt lat="42.97177" lon="-0.57631">
        <ele>716.67</ele>
        <time>2017-10-12T08:47:52Z</time>
      </trkpt>
      <trkpt lat="42.97163" lon="-0.57611">
        <ele>719.42</ele>
        <time>2017-10-12T08:48:05Z</time>
      </trkpt>
      <trkpt lat="42.97161" lon="-0.57596">
        <ele>720.74</ele>
        <time>2017-10-12T08:48:12Z</time>
      </trkpt>
      <trkpt lat="42.97165" lon="-0.57589">
        <ele>721.36</ele>
        <time>2017-10-12T08:48:16Z</time>
      </trkpt>
      <trkpt lat="42.97179" lon="-0.5758">
        <ele>722.01</ele>
        <time>2017-10-12T08:48:24Z</time>
      </trkpt>
      <trkpt lat="42.97206" lon="-0.57559">
        <ele>721.82</ele>
        <time>2017-10-12T08:48:36Z</time>
      </trkpt>
      <trkpt lat="42.97223" lon="-0.57526">
        <ele>723.55</ele>
        <time>2017-10-12T08:48:49Z</time>
      </trkpt>
      <trkpt lat="42.97229" lon="-0.57495">
        <ele>726.6</ele>
        <time>2017-10-12T08:49:02Z</time>
      </trkpt>
      <trkpt lat="42.97227" lon="-0.57486">
        <ele>727.68</ele>
        <time>2017-10-12T08:49:07Z</time>
      </trkpt>
      <trkpt lat="42.97223" lon="-0.57473">
        <ele>729.73</ele>
        <time>2017-10-12T08:49:14Z</time>
      </trkpt>
      <trkpt lat="42.97202" lon="-0.57466">
        <ele>732.37</ele>
        <time>2017-10-12T08:49:29Z</time>
      </trkpt>
      <trkpt lat="42.97188" lon="-0.57473">
        <ele>734.63</ele>
        <time>2017-10-12T08:49:41Z</time>
      </trkpt>
      <trkpt lat="42.97166" lon="-0.57486">
        <ele>737.53</ele>
        <time>2017-10-12T08:49:57Z</time>
      </trkpt>
      <trkpt lat="42.97146" lon="-0.57495">
        <ele>740.06</ele>
        <time>2017-10-12T08:50:12Z</time>
      </trkpt>
      <trkpt lat="42.97131" lon="-0.57491">
        <ele>742.17</ele>
        <time>2017-10-12T08:50:22Z</time>
      </trkpt>
      <trkpt lat="42.97124" lon="-0.57477">
        <ele>743.91</ele>
        <time>2017-10-12T08:50:32Z</time>
      </trkpt>
      <trkpt lat="42.97122" lon="-0.57468">
        <ele>745.57</ele>
        <time>2017-10-12T08:50:38Z</time>
      </trkpt>
      <trkpt lat="42.97122" lon="-0.57452">
        <ele>747.83</ele>
        <time>2017-10-12T08:50:47Z</time>
      </trkpt>
      <trkpt lat="42.97116" lon="-0.57425">
        <ele>750.88</ele>
        <time>2017-10-12T08:51:03Z</time>
      </trkpt>
      <trkpt lat="42.97112" lon="-0.57404">
        <ele>752.87</ele>
        <time>2017-10-12T08:51:15Z</time>
      </trkpt>
      <trkpt lat="42.97128" lon="-0.57386">
        <ele>755.39</ele>
        <time>2017-10-12T08:51:31Z</time>
      </trkpt>
      <trkpt lat="42.97143" lon="-0.57388">
        <ele>758.2</ele>
        <time>2017-10-12T08:51:44Z</time>
      </trkpt>
      <trkpt lat="42.9715" lon="-0.5739">
        <ele>759.19</ele>
        <time>2017-10-12T08:51:50Z</time>
      </trkpt>
      <trkpt lat="42.97171" lon="-0.57393">
        <ele>762.04</ele>
        <time>2017-10-12T08:52:07Z</time>
      </trkpt>
      <trkpt lat="42.97172" lon="-0.57392">
        <ele>762.43</ele>
        <time>2017-10-12T08:52:09Z</time>
      </trkpt>
      <trkpt lat="42.97172" lon="-0.57376">
        <ele>764.65</ele>
        <time>2017-10-12T08:52:19Z</time>
      </trkpt>
      <trkpt lat="42.97156" lon="-0.57364">
        <ele>767.91</ele>
        <time>2017-10-12T08:52:32Z</time>
      </trkpt>
      <trkpt lat="42.97151" lon="-0.57358">
        <ele>769.25</ele>
        <time>2017-10-12T08:52:37Z</time>
      </trkpt>
      <trkpt lat="42.97147" lon="-0.57349">
        <ele>770.43</ele>
        <time>2017-10-12T08:52:43Z</time>
      </trkpt>
      <trkpt lat="42.9714" lon="-0.57336">
        <ele>772.08</ele>
        <time>2017-10-12T08:52:52Z</time>
      </trkpt>
      <trkpt lat="42.97132" lon="-0.57312">
        <ele>775.33</ele>
        <time>2017-10-12T08:53:07Z</time>
      </trkpt>
      <trkpt lat="42.9713" lon="-0.57305">
        <ele>776.5</ele>
        <time>2017-10-12T08:53:11Z</time>
      </trkpt>
      <trkpt lat="42.97129" lon="-0.57301">
        <ele>777.39</ele>
        <time>2017-10-12T08:53:14Z</time>
      </trkpt>
      <trkpt lat="42.97121" lon="-0.57281">
        <ele>780.57</ele>
        <time>2017-10-12T08:53:29Z</time>
      </trkpt>
      <trkpt lat="42.9712" lon="-0.5728">
        <ele>780.77</ele>
        <time>2017-10-12T08:53:30Z</time>
      </trkpt>
      <trkpt lat="42.97119" lon="-0.57278">
        <ele>781.12</ele>
        <time>2017-10-12T08:53:32Z</time>
      </trkpt>
      <trkpt lat="42.97112" lon="-0.57247">
        <ele>783.66</ele>
        <time>2017-10-12T08:53:47Z</time>
      </trkpt>
      <trkpt lat="42.9711" lon="-0.57227">
        <ele>786.09</ele>
        <time>2017-10-12T08:53:56Z</time>
      </trkpt>
      <trkpt lat="42.97108" lon="-0.57208">
        <ele>788.07</ele>
        <time>2017-10-12T08:54:05Z</time>
      </trkpt>
      <trkpt lat="42.97107" lon="-0.57202">
        <ele>788.84</ele>
        <time>2017-10-12T08:54:09Z</time>
      </trkpt>
      <trkpt lat="42.97107" lon="-0.57197">
        <ele>789.57</ele>
        <time>2017-10-12T08:54:12Z</time>
      </trkpt>
      <trkpt lat="42.97106" lon="-0.57187">
        <ele>790.81</ele>
        <time>2017-10-12T08:54:18Z</time>
      </trkpt>
      <trkpt lat="42.97114" lon="-0.57166">
        <ele>791.84</ele>
        <time>2017-10-12T08:54:31Z</time>
      </trkpt>
      <trkpt lat="42.97121" lon="-0.57137">
        <ele>791.76</ele>
        <time>2017-10-12T08:54:43Z</time>
      </trkpt>
      <trkpt lat="42.97108" lon="-0.57104">
        <ele>794.47</ele>
        <time>2017-10-12T08:54:57Z</time>
      </trkpt>
      <trkpt lat="42.97106" lon="-0.57095">
        <ele>795.59</ele>
        <time>2017-10-12T08:55:01Z</time>
      </trkpt>
      <trkpt lat="42.97109" lon="-0.57089">
        <ele>797.09</ele>
        <time>2017-10-12T08:55:06Z</time>
      </trkpt>
      <trkpt lat="42.97127" lon="-0.57098">
        <ele>800.5</ele>
        <time>2017-10-12T08:55:21Z</time>
      </trkpt>
      <trkpt lat="42.9714" lon="-0.57099">
        <ele>802.8</ele>
        <time>2017-10-12T08:55:32Z</time>
      </trkpt>
      <trkpt lat="42.97158" lon="-0.57095">
        <ele>804.82</ele>
        <time>2017-10-12T08:55:45Z</time>
      </trkpt>
      <trkpt lat="42.97175" lon="-0.57091">
        <ele>807.56</ele>
        <time>2017-10-12T08:55:59Z</time>
      </trkpt>
      <trkpt lat="42.97186" lon="-0.57088">
        <ele>808.67</ele>
        <time>2017-10-12T08:56:06Z</time>
      </trkpt>
      <trkpt lat="42.972" lon="-0.57086">
        <ele>810.63</ele>
        <time>2017-10-12T08:56:15Z</time>
      </trkpt>
      <trkpt lat="42.97199" lon="-0.57073">
        <ele>811.91</ele>
        <time>2017-10-12T08:56:22Z</time>
      </trkpt>
      <trkpt lat="42.9718" lon="-0.57073">
        <ele>815.58</ele>
        <time>2017-10-12T08:56:36Z</time>
      </trkpt>
      <trkpt lat="42.97176" lon="-0.57072">
        <ele>816.32</ele>
        <time>2017-10-12T08:56:39Z</time>
      </trkpt>
      <trkpt lat="42.97173" lon="-0.57069">
        <ele>816.9</ele>
        <time>2017-10-12T08:56:42Z</time>
      </trkpt>
      <trkpt lat="42.9717" lon="-0.5706">
        <ele>818.06</ele>
        <time>2017-10-12T08:56:49Z</time>
      </trkpt>
      <trkpt lat="42.9717" lon="-0.57054">
        <ele>818.38</ele>
        <time>2017-10-12T08:56:53Z</time>
      </trkpt>
      <trkpt lat="42.9717" lon="-0.57042">
        <ele>819.33</ele>
        <time>2017-10-12T08:57:01Z</time>
      </trkpt>
      <trkpt lat="42.97173" lon="-0.57033">
        <ele>819.8</ele>
        <time>2017-10-12T08:57:06Z</time>
      </trkpt>
      <trkpt lat="42.97187" lon="-0.5702">
        <ele>819.84</ele>
        <time>2017-10-12T08:57:14Z</time>
      </trkpt>
      <trkpt lat="42.97214" lon="-0.57016">
        <ele>818.74</ele>
        <time>2017-10-12T08:57:19Z</time>
      </trkpt>
      <trkpt lat="42.97227" lon="-0.57018">
        <ele>817.89</ele>
        <time>2017-10-12T08:57:21Z</time>
      </trkpt>
      <trkpt lat="42.97254" lon="-0.57031">
        <ele>818.04</ele>
        <time>2017-10-12T08:57:31Z</time>
      </trkpt>
      <trkpt lat="42.97267" lon="-0.57035">
        <ele>820.3</ele>
        <time>2017-10-12T08:57:39Z</time>
      </trkpt>
      <trkpt lat="42.97277" lon="-0.57028">
        <ele>822.51</ele>
        <time>2017-10-12T08:57:47Z</time>
      </trkpt>
      <trkpt lat="42.97286" lon="-0.56992">
        <ele>825.87</ele>
        <time>2017-10-12T08:58:02Z</time>
      </trkpt>
      <trkpt lat="42.97293" lon="-0.56959">
        <ele>828.36</ele>
        <time>2017-10-12T08:58:17Z</time>
      </trkpt>
      <trkpt lat="42.97288" lon="-0.56917">
        <ele>829.48</ele>
        <time>2017-10-12T08:58:31Z</time>
      </trkpt>
      <trkpt lat="42.97289" lon="-0.56876">
        <ele>829.59</ele>
        <time>2017-10-12T08:58:44Z</time>
      </trkpt>
      <trkpt lat="42.97281" lon="-0.56831">
        <ele>831.21</ele>
        <time>2017-10-12T08:58:59Z</time>
      </trkpt>
      <trkpt lat="42.97267" lon="-0.56791">
        <ele>833.63</ele>
        <time>2017-10-12T08:59:14Z</time>
      </trkpt>
      <trkpt lat="42.97245" lon="-0.56778">
        <ele>835.79</ele>
        <time>2017-10-12T08:59:27Z</time>
      </trkpt>
      <trkpt lat="42.97224" lon="-0.56757">
        <ele>838.8</ele>
        <time>2017-10-12T08:59:43Z</time>
      </trkpt>
      <trkpt lat="42.97215" lon="-0.56718">
        <ele>841.83</ele>
        <time>2017-10-12T09:00:00Z</time>
      </trkpt>
      <trkpt lat="42.97212" lon="-0.56677">
        <ele>844.89</ele>
        <time>2017-10-12T09:00:18Z</time>
      </trkpt>
      <trkpt lat="42.97209" lon="-0.56642">
        <ele>847.14</ele>
        <time>2017-10-12T09:00:33Z</time>
      </trkpt>
      <trkpt lat="42.9719" lon="-0.56607">
        <ele>849.06</ele>
        <time>2017-10-12T09:00:50Z</time>
      </trkpt>
      <trkpt lat="42.97163" lon="-0.56585">
        <ele>851.1</ele>
        <time>2017-10-12T09:01:06Z</time>
      </trkpt>
      <trkpt lat="42.97136" lon="-0.56568">
        <ele>852.23</ele>
        <time>2017-10-12T09:01:21Z</time>
      </trkpt>
      <trkpt lat="42.97133" lon="-0.56562">
        <ele>852.39</ele>
        <time>2017-10-12T09:01:24Z</time>
      </trkpt>
      <trkpt lat="42.97136" lon="-0.56555">
        <ele>852.79</ele>
        <time>2017-10-12T09:01:30Z</time>
      </trkpt>
      <trkpt lat="42.97144" lon="-0.56557">
        <ele>852.98</ele>
        <time>2017-10-12T09:01:35Z</time>
      </trkpt>
      <trkpt lat="42.9717" lon="-0.56574">
        <ele>855.26</ele>
        <time>2017-10-12T09:01:51Z</time>
      </trkpt>
      <trkpt lat="42.97197" lon="-0.56589">
        <ele>858.19</ele>
        <time>2017-10-12T09:02:09Z</time>
      </trkpt>
      <trkpt lat="42.97217" lon="-0.56604">
        <ele>860.61</ele>
        <time>2017-10-12T09:02:23Z</time>
      </trkpt>
      <trkpt lat="42.97236" lon="-0.56624">
        <ele>863.07</ele>
        <time>2017-10-12T09:02:38Z</time>
      </trkpt>
      <trkpt lat="42.97253" lon="-0.56651">
        <ele>865.52</ele>
        <time>2017-10-12T09:02:55Z</time>
      </trkpt>
      <trkpt lat="42.97265" lon="-0.56678">
        <ele>868.65</ele>
        <time>2017-10-12T09:03:09Z</time>
      </trkpt>
      <trkpt lat="42.97283" lon="-0.56714">
        <ele>871.75</ele>
        <time>2017-10-12T09:03:29Z</time>
      </trkpt>
      <trkpt lat="42.97305" lon="-0.56741">
        <ele>874.85</ele>
        <time>2017-10-12T09:03:48Z</time>
      </trkpt>
      <trkpt lat="42.97327" lon="-0.56759">
        <ele>877.93</ele>
        <time>2017-10-12T09:04:05Z</time>
      </trkpt>
      <trkpt lat="42.97348" lon="-0.56777">
        <ele>881.05</ele>
        <time>2017-10-12T09:04:22Z</time>
      </trkpt>
      <trkpt lat="42.9736" lon="-0.5681">
        <ele>883.49</ele>
        <time>2017-10-12T09:04:39Z</time>
      </trkpt>
      <trkpt lat="42.97363" lon="-0.56848">
        <ele>886.14</ele>
        <time>2017-10-12T09:04:58Z</time>
      </trkpt>
      <trkpt lat="42.97369" lon="-0.56884">
        <ele>888.8</ele>
        <time>2017-10-12T09:05:16Z</time>
      </trkpt>
      <trkpt lat="42.97377" lon="-0.56916">
        <ele>890.98</ele>
        <time>2017-10-12T09:05:34Z</time>
      </trkpt>
      <trkpt lat="42.97385" lon="-0.56943">
        <ele>893.74</ele>
        <time>2017-10-12T09:05:49Z</time>
      </trkpt>
      <trkpt lat="42.97397" lon="-0.56965">
        <ele>896</ele>
        <time>2017-10-12T09:06:05Z</time>
      </trkpt>
      <trkpt lat="42.97417" lon="-0.56982">
        <ele>899.04</ele>
        <time>2017-10-12T09:06:21Z</time>
      </trkpt>
      <trkpt lat="42.97433" lon="-0.56998">
        <ele>901.77</ele>
        <time>2017-10-12T09:06:38Z</time>
      </trkpt>
      <trkpt lat="42.97446" lon="-0.57015">
        <ele>903.97</ele>
        <time>2017-10-12T09:06:53Z</time>
      </trkpt>
      <trkpt lat="42.97452" lon="-0.5702">
        <ele>904.6</ele>
        <time>2017-10-12T09:06:59Z</time>
      </trkpt>
      <trkpt lat="42.97473" lon="-0.57024">
        <ele>907.32</ele>
        <time>2017-10-12T09:07:17Z</time>
      </trkpt>
      <trkpt lat="42.97488" lon="-0.57035">
        <ele>909.76</ele>
        <time>2017-10-12T09:07:30Z</time>
      </trkpt>
      <trkpt lat="42.97499" lon="-0.57063">
        <ele>912.14</ele>
        <time>2017-10-12T09:07:46Z</time>
      </trkpt>
      <trkpt lat="42.97514" lon="-0.57097">
        <ele>915.27</ele>
        <time>2017-10-12T09:08:04Z</time>
      </trkpt>
      <trkpt lat="42.97534" lon="-0.57115">
        <ele>917.87</ele>
        <time>2017-10-12T09:08:20Z</time>
      </trkpt>
      <trkpt lat="42.97555" lon="-0.57132">
        <ele>920.55</ele>
        <time>2017-10-12T09:08:36Z</time>
      </trkpt>
      <trkpt lat="42.97564" lon="-0.57159">
        <ele>923.21</ele>
        <time>2017-10-12T09:08:50Z</time>
      </trkpt>
      <trkpt lat="42.97567" lon="-0.57197">
        <ele>926.33</ele>
        <time>2017-10-12T09:09:06Z</time>
      </trkpt>
      <trkpt lat="42.97561" lon="-0.57241">
        <ele>929.47</ele>
        <time>2017-10-12T09:09:25Z</time>
      </trkpt>
      <trkpt lat="42.97562" lon="-0.57278">
        <ele>931.46</ele>
        <time>2017-10-12T09:09:42Z</time>
      </trkpt>
      <trkpt lat="42.97573" lon="-0.57308">
        <ele>934.5</ele>
        <time>2017-10-12T09:09:57Z</time>
      </trkpt>
      <trkpt lat="42.97585" lon="-0.57341">
        <ele>937.54</ele>
        <time>2017-10-12T09:10:15Z</time>
      </trkpt>
      <trkpt lat="42.97593" lon="-0.57376">
        <ele>940.06</ele>
        <time>2017-10-12T09:10:32Z</time>
      </trkpt>
      <trkpt lat="42.97595" lon="-0.57417">
        <ele>943.01</ele>
        <time>2017-10-12T09:10:51Z</time>
      </trkpt>
      <trkpt lat="42.97596" lon="-0.57435">
        <ele>944.17</ele>
        <time>2017-10-12T09:10:59Z</time>
      </trkpt>
      <trkpt lat="42.976" lon="-0.57463">
        <ele>946.57</ele>
        <time>2017-10-12T09:11:12Z</time>
      </trkpt>
      <trkpt lat="42.976" lon="-0.57465">
        <ele>946.72</ele>
        <time>2017-10-12T09:11:13Z</time>
      </trkpt>
      <trkpt lat="42.97606" lon="-0.57494">
        <ele>948.67</ele>
        <time>2017-10-12T09:11:27Z</time>
      </trkpt>
      <trkpt lat="42.97625" lon="-0.57516">
        <ele>950.93</ele>
        <time>2017-10-12T09:11:43Z</time>
      </trkpt>
      <trkpt lat="42.97646" lon="-0.57534">
        <ele>952.8</ele>
        <time>2017-10-12T09:11:57Z</time>
      </trkpt>
      <trkpt lat="42.97671" lon="-0.57567">
        <ele>955.89</ele>
        <time>2017-10-12T09:12:17Z</time>
      </trkpt>
      <trkpt lat="42.97684" lon="-0.57576">
        <ele>957.71</ele>
        <time>2017-10-12T09:12:27Z</time>
      </trkpt>
      <trkpt lat="42.97703" lon="-0.57597">
        <ele>960.59</ele>
        <time>2017-10-12T09:12:44Z</time>
      </trkpt>
      <trkpt lat="42.97717" lon="-0.57624">
        <ele>963.57</ele>
        <time>2017-10-12T09:13:00Z</time>
      </trkpt>
      <trkpt lat="42.97729" lon="-0.57652">
        <ele>966.78</ele>
        <time>2017-10-12T09:13:15Z</time>
      </trkpt>
      <trkpt lat="42.97748" lon="-0.57672">
        <ele>969.87</ele>
        <time>2017-10-12T09:13:29Z</time>
      </trkpt>
      <trkpt lat="42.97766" lon="-0.57681">
        <ele>971.71</ele>
        <time>2017-10-12T09:13:42Z</time>
      </trkpt>
      <trkpt lat="42.97788" lon="-0.57706">
        <ele>974.29</ele>
        <time>2017-10-12T09:14:00Z</time>
      </trkpt>
      <trkpt lat="42.97806" lon="-0.5772">
        <ele>976.94</ele>
        <time>2017-10-12T09:14:14Z</time>
      </trkpt>
      <trkpt lat="42.97809" lon="-0.57721">
        <ele>977.23</ele>
        <time>2017-10-12T09:14:16Z</time>
      </trkpt>
      <trkpt lat="42.97821" lon="-0.57722">
        <ele>978.5</ele>
        <time>2017-10-12T09:14:24Z</time>
      </trkpt>
      <trkpt lat="42.97847" lon="-0.57724">
        <ele>981.44</ele>
        <time>2017-10-12T09:14:41Z</time>
      </trkpt>
      <trkpt lat="42.9787" lon="-0.57732">
        <ele>983.52</ele>
        <time>2017-10-12T09:14:56Z</time>
      </trkpt>
      <trkpt lat="42.97892" lon="-0.57746">
        <ele>985.02</ele>
        <time>2017-10-12T09:15:11Z</time>
      </trkpt>
      <trkpt lat="42.97908" lon="-0.57771">
        <ele>987.23</ele>
        <time>2017-10-12T09:15:26Z</time>
      </trkpt>
      <trkpt lat="42.97919" lon="-0.57804">
        <ele>990.24</ele>
        <time>2017-10-12T09:15:41Z</time>
      </trkpt>
      <trkpt lat="42.97928" lon="-0.57839">
        <ele>993.32</ele>
        <time>2017-10-12T09:15:56Z</time>
      </trkpt>
      <trkpt lat="42.97941" lon="-0.57865">
        <ele>995.79</ele>
        <time>2017-10-12T09:16:10Z</time>
      </trkpt>
      <trkpt lat="42.97963" lon="-0.57883">
        <ele>998.26</ele>
        <time>2017-10-12T09:16:25Z</time>
      </trkpt>
      <trkpt lat="42.97968" lon="-0.57882">
        <ele>998.62</ele>
        <time>2017-10-12T09:16:28Z</time>
      </trkpt>
      <trkpt lat="42.97976" lon="-0.57876">
        <ele>999.29</ele>
        <time>2017-10-12T09:16:33Z</time>
      </trkpt>
      <trkpt lat="42.97995" lon="-0.57843">
        <ele>1002.21</ele>
        <time>2017-10-12T09:16:51Z</time>
      </trkpt>
      <trkpt lat="42.98011" lon="-0.57812">
        <ele>1005.27</ele>
        <time>2017-10-12T09:17:07Z</time>
      </trkpt>
      <trkpt lat="42.98011" lon="-0.57802">
        <ele>1005.68</ele>
        <time>2017-10-12T09:17:11Z</time>
      </trkpt>
      <trkpt lat="42.97987" lon="-0.57789">
        <ele>1008.28</ele>
        <time>2017-10-12T09:17:26Z</time>
      </trkpt>
      <trkpt lat="42.97961" lon="-0.57786">
        <ele>1010.55</ele>
        <time>2017-10-12T09:17:42Z</time>
      </trkpt>
      <trkpt lat="42.97957" lon="-0.57782">
        <ele>1010.7</ele>
        <time>2017-10-12T09:17:45Z</time>
      </trkpt>
      <trkpt lat="42.97971" lon="-0.57764">
        <ele>1013.18</ele>
        <time>2017-10-12T09:17:59Z</time>
      </trkpt>
      <trkpt lat="42.97993" lon="-0.57758">
        <ele>1015.66</ele>
        <time>2017-10-12T09:18:14Z</time>
      </trkpt>
      <trkpt lat="42.98013" lon="-0.57742">
        <ele>1017.53</ele>
        <time>2017-10-12T09:18:28Z</time>
      </trkpt>
      <trkpt lat="42.9803" lon="-0.57719">
        <ele>1019.23</ele>
        <time>2017-10-12T09:18:42Z</time>
      </trkpt>
      <trkpt lat="42.98044" lon="-0.57699">
        <ele>1022.31</ele>
        <time>2017-10-12T09:18:57Z</time>
      </trkpt>
      <trkpt lat="42.98055" lon="-0.57684">
        <ele>1024.17</ele>
        <time>2017-10-12T09:19:09Z</time>
      </trkpt>
      <trkpt lat="42.98063" lon="-0.57667">
        <ele>1025.73</ele>
        <time>2017-10-12T09:19:19Z</time>
      </trkpt>
      <trkpt lat="42.98084" lon="-0.5766">
        <ele>1027.66</ele>
        <time>2017-10-12T09:19:33Z</time>
      </trkpt>
      <trkpt lat="42.98109" lon="-0.57662">
        <ele>1028.99</ele>
        <time>2017-10-12T09:19:48Z</time>
      </trkpt>
      <trkpt lat="42.98114" lon="-0.57662">
        <ele>1029.14</ele>
        <time>2017-10-12T09:19:51Z</time>
      </trkpt>
      <trkpt lat="42.98137" lon="-0.57652">
        <ele>1030.51</ele>
        <time>2017-10-12T09:20:04Z</time>
      </trkpt>
      <trkpt lat="42.98146" lon="-0.57629">
        <ele>1033.03</ele>
        <time>2017-10-12T09:20:16Z</time>
      </trkpt>
      <trkpt lat="42.98144" lon="-0.57616">
        <ele>1034.49</ele>
        <time>2017-10-12T09:20:23Z</time>
      </trkpt>
      <trkpt lat="42.98142" lon="-0.57605">
        <ele>1035.33</ele>
        <time>2017-10-12T09:20:29Z</time>
      </trkpt>
      <trkpt lat="42.98141" lon="-0.57601">
        <ele>1035.6</ele>
        <time>2017-10-12T09:20:31Z</time>
      </trkpt>
      <trkpt lat="42.98137" lon="-0.57579">
        <ele>1037.47</ele>
        <time>2017-10-12T09:20:43Z</time>
      </trkpt>
      <trkpt lat="42.98135" lon="-0.57569">
        <ele>1038.1</ele>
        <time>2017-10-12T09:20:48Z</time>
      </trkpt>
      <trkpt lat="42.98132" lon="-0.57548">
        <ele>1039.78</ele>
        <time>2017-10-12T09:20:59Z</time>
      </trkpt>
      <trkpt lat="42.98133" lon="-0.57534">
        <ele>1040.29</ele>
        <time>2017-10-12T09:21:05Z</time>
      </trkpt>
      <trkpt lat="42.98137" lon="-0.57524">
        <ele>1040.5</ele>
        <time>2017-10-12T09:21:10Z</time>
      </trkpt>
      <trkpt lat="42.98142" lon="-0.57513">
        <ele>1041.28</ele>
        <time>2017-10-12T09:21:18Z</time>
      </trkpt>
      <trkpt lat="42.98151" lon="-0.57501">
        <ele>1042.82</ele>
        <time>2017-10-12T09:21:28Z</time>
      </trkpt>
      <trkpt lat="42.98156" lon="-0.57495">
        <ele>1043.36</ele>
        <time>2017-10-12T09:21:33Z</time>
      </trkpt>
      <trkpt lat="42.98167" lon="-0.57486">
        <ele>1044.44</ele>
        <time>2017-10-12T09:21:41Z</time>
      </trkpt>
      <trkpt lat="42.98173" lon="-0.57485">
        <ele>1045.02</ele>
        <time>2017-10-12T09:21:45Z</time>
      </trkpt>
      <trkpt lat="42.982" lon="-0.5748">
        <ele>1047.63</ele>
        <time>2017-10-12T09:22:00Z</time>
      </trkpt>
      <trkpt lat="42.98206" lon="-0.57479">
        <ele>1048.36</ele>
        <time>2017-10-12T09:22:04Z</time>
      </trkpt>
      <trkpt lat="42.98233" lon="-0.57478">
        <ele>1050.42</ele>
        <time>2017-10-12T09:22:19Z</time>
      </trkpt>
      <trkpt lat="42.98258" lon="-0.57475">
        <ele>1052.55</ele>
        <time>2017-10-12T09:22:35Z</time>
      </trkpt>
      <trkpt lat="42.98282" lon="-0.57469">
        <ele>1054.59</ele>
        <time>2017-10-12T09:22:49Z</time>
      </trkpt>
      <trkpt lat="42.98301" lon="-0.57466">
        <ele>1056.66</ele>
        <time>2017-10-12T09:23:01Z</time>
      </trkpt>
      <trkpt lat="42.9833" lon="-0.57463">
        <ele>1059.63</ele>
        <time>2017-10-12T09:23:18Z</time>
      </trkpt>
      <trkpt lat="42.98357" lon="-0.57458">
        <ele>1061.85</ele>
        <time>2017-10-12T09:23:33Z</time>
      </trkpt>
      <trkpt lat="42.98373" lon="-0.57432">
        <ele>1063.04</ele>
        <time>2017-10-12T09:23:46Z</time>
      </trkpt>
      <trkpt lat="42.98374" lon="-0.57426">
        <ele>1063.07</ele>
        <time>2017-10-12T09:23:48Z</time>
      </trkpt>
      <trkpt lat="42.98379" lon="-0.57409">
        <ele>1063.07</ele>
        <time>2017-10-12T09:23:53Z</time>
      </trkpt>
      <trkpt lat="42.98385" lon="-0.57353">
        <ele>1061.52</ele>
        <time>2017-10-12T09:24:04Z</time>
      </trkpt>
      <trkpt lat="42.98385" lon="-0.57339">
        <ele>1060.98</ele>
        <time>2017-10-12T09:24:06Z</time>
      </trkpt>
      <trkpt lat="42.98388" lon="-0.57324">
        <ele>1060.42</ele>
        <time>2017-10-12T09:24:08Z</time>
      </trkpt>
      <trkpt lat="42.98405" lon="-0.57302">
        <ele>1059.36</ele>
        <time>2017-10-12T09:24:13Z</time>
      </trkpt>
      <trkpt lat="42.98449" lon="-0.57278">
        <ele>1057.72</ele>
        <time>2017-10-12T09:24:22Z</time>
      </trkpt>
      <trkpt lat="42.98482" lon="-0.57224">
        <ele>1055.87</ele>
        <time>2017-10-12T09:24:31Z</time>
      </trkpt>
      <trkpt lat="42.98486" lon="-0.57199">
        <ele>1054.97</ele>
        <time>2017-10-12T09:24:34Z</time>
      </trkpt>
      <trkpt lat="42.98499" lon="-0.57173">
        <ele>1054</ele>
        <time>2017-10-12T09:24:38Z</time>
      </trkpt>
      <trkpt lat="42.98525" lon="-0.57116">
        <ele>1053.03</ele>
        <time>2017-10-12T09:24:47Z</time>
      </trkpt>
      <trkpt lat="42.98559" lon="-0.57059">
        <ele>1050.77</ele>
        <time>2017-10-12T09:24:56Z</time>
      </trkpt>
      <trkpt lat="42.98588" lon="-0.57028">
        <ele>1051.97</ele>
        <time>2017-10-12T09:25:07Z</time>
      </trkpt>
      <trkpt lat="42.98592" lon="-0.57016">
        <ele>1052.8</ele>
        <time>2017-10-12T09:25:13Z</time>
      </trkpt>
      <trkpt lat="42.98591" lon="-0.57011">
        <ele>1053.19</ele>
        <time>2017-10-12T09:25:17Z</time>
      </trkpt>
      <trkpt lat="42.98592" lon="-0.57012">
        <ele>1054.16</ele>
        <time>2017-10-12T09:25:32Z</time>
      </trkpt>
      <trkpt lat="42.98589" lon="-0.57003">
        <ele>1054.19</ele>
        <time>2017-10-12T09:25:50Z</time>
      </trkpt>
      <trkpt lat="42.98574" lon="-0.56984">
        <ele>1055.68</ele>
        <time>2017-10-12T09:26:04Z</time>
      </trkpt>
      <trkpt lat="42.98562" lon="-0.56969">
        <ele>1056.85</ele>
        <time>2017-10-12T09:26:16Z</time>
      </trkpt>
      <trkpt lat="42.98556" lon="-0.56961">
        <ele>1057.68</ele>
        <time>2017-10-12T09:26:24Z</time>
      </trkpt>
      <trkpt lat="42.98542" lon="-0.56948">
        <ele>1059.55</ele>
        <time>2017-10-12T09:26:38Z</time>
      </trkpt>
      <trkpt lat="42.98527" lon="-0.56937">
        <ele>1061.28</ele>
        <time>2017-10-12T09:26:50Z</time>
      </trkpt>
      <trkpt lat="42.98513" lon="-0.56925">
        <ele>1062.89</ele>
        <time>2017-10-12T09:27:02Z</time>
      </trkpt>
      <trkpt lat="42.98489" lon="-0.56905">
        <ele>1065.35</ele>
        <time>2017-10-12T09:27:17Z</time>
      </trkpt>
      <trkpt lat="42.9848" lon="-0.56891">
        <ele>1066.38</ele>
        <time>2017-10-12T09:27:25Z</time>
      </trkpt>
      <trkpt lat="42.98473" lon="-0.56869">
        <ele>1067.29</ele>
        <time>2017-10-12T09:27:34Z</time>
      </trkpt>
      <trkpt lat="42.98471" lon="-0.5686">
        <ele>1067.53</ele>
        <time>2017-10-12T09:27:37Z</time>
      </trkpt>
      <trkpt lat="42.98469" lon="-0.56846">
        <ele>1068</ele>
        <time>2017-10-12T09:27:42Z</time>
      </trkpt>
      <trkpt lat="42.98462" lon="-0.56815">
        <ele>1069.53</ele>
        <time>2017-10-12T09:27:55Z</time>
      </trkpt>
      <trkpt lat="42.98457" lon="-0.56797">
        <ele>1070.4</ele>
        <time>2017-10-12T09:28:03Z</time>
      </trkpt>
      <trkpt lat="42.98455" lon="-0.56786">
        <ele>1070.91</ele>
        <time>2017-10-12T09:28:08Z</time>
      </trkpt>
      <trkpt lat="42.98455" lon="-0.56783">
        <ele>1071.14</ele>
        <time>2017-10-12T09:28:10Z</time>
      </trkpt>
      <trkpt lat="42.98451" lon="-0.56764">
        <ele>1072.74</ele>
        <time>2017-10-12T09:28:21Z</time>
      </trkpt>
      <trkpt lat="42.98447" lon="-0.56752">
        <ele>1073.87</ele>
        <time>2017-10-12T09:28:28Z</time>
      </trkpt>
      <trkpt lat="42.9844" lon="-0.56739">
        <ele>1074.17</ele>
        <time>2017-10-12T09:28:34Z</time>
      </trkpt>
      <trkpt lat="42.98428" lon="-0.56716">
        <ele>1075.45</ele>
        <time>2017-10-12T09:28:46Z</time>
      </trkpt>
      <trkpt lat="42.98428" lon="-0.56706">
        <ele>1076.2</ele>
        <time>2017-10-12T09:28:52Z</time>
      </trkpt>
      <trkpt lat="42.98426" lon="-0.56697">
        <ele>1076.63</ele>
        <time>2017-10-12T09:28:57Z</time>
      </trkpt>
      <trkpt lat="42.98424" lon="-0.56686">
        <ele>1077.23</ele>
        <time>2017-10-12T09:29:02Z</time>
      </trkpt>
      <trkpt lat="42.98422" lon="-0.56682">
        <ele>1077.47</ele>
        <time>2017-10-12T09:29:04Z</time>
      </trkpt>
      <trkpt lat="42.9842" lon="-0.56674">
        <ele>1077.7</ele>
        <time>2017-10-12T09:29:08Z</time>
      </trkpt>
      <trkpt lat="42.98404" lon="-0.56649">
        <ele>1078.98</ele>
        <time>2017-10-12T09:29:23Z</time>
      </trkpt>
      <trkpt lat="42.98391" lon="-0.56626">
        <ele>1080.71</ele>
        <time>2017-10-12T09:29:36Z</time>
      </trkpt>
      <trkpt lat="42.98386" lon="-0.56619">
        <ele>1081.32</ele>
        <time>2017-10-12T09:29:40Z</time>
      </trkpt>
      <trkpt lat="42.98369" lon="-0.56598">
        <ele>1083.2</ele>
        <time>2017-10-12T09:29:53Z</time>
      </trkpt>
      <trkpt lat="42.98347" lon="-0.56576">
        <ele>1085.2</ele>
        <time>2017-10-12T09:30:08Z</time>
      </trkpt>
      <trkpt lat="42.98322" lon="-0.5656">
        <ele>1087.15</ele>
        <time>2017-10-12T09:30:25Z</time>
      </trkpt>
      <trkpt lat="42.98311" lon="-0.56557">
        <ele>1088.22</ele>
        <time>2017-10-12T09:30:32Z</time>
      </trkpt>
      <trkpt lat="42.98298" lon="-0.56552">
        <ele>1089.68</ele>
        <time>2017-10-12T09:30:41Z</time>
      </trkpt>
      <trkpt lat="42.98265" lon="-0.56555">
        <ele>1092.54</ele>
        <time>2017-10-12T09:31:01Z</time>
      </trkpt>
      <trkpt lat="42.98241" lon="-0.56566">
        <ele>1094.27</ele>
        <time>2017-10-12T09:31:16Z</time>
      </trkpt>
      <trkpt lat="42.98217" lon="-0.56584">
        <ele>1096.35</ele>
        <time>2017-10-12T09:31:31Z</time>
      </trkpt>
      <trkpt lat="42.98195" lon="-0.56602">
        <ele>1098.28</ele>
        <time>2017-10-12T09:31:46Z</time>
      </trkpt>
      <trkpt lat="42.98174" lon="-0.56624">
        <ele>1100.25</ele>
        <time>2017-10-12T09:32:01Z</time>
      </trkpt>
      <trkpt lat="42.98155" lon="-0.56644">
        <ele>1101.9</ele>
        <time>2017-10-12T09:32:15Z</time>
      </trkpt>
      <trkpt lat="42.98147" lon="-0.56653">
        <ele>1103.32</ele>
        <time>2017-10-12T09:32:21Z</time>
      </trkpt>
      <trkpt lat="42.98128" lon="-0.56673">
        <ele>1106.18</ele>
        <time>2017-10-12T09:32:35Z</time>
      </trkpt>
      <trkpt lat="42.98106" lon="-0.56693">
        <ele>1108.66</ele>
        <time>2017-10-12T09:32:52Z</time>
      </trkpt>
      <trkpt lat="42.98083" lon="-0.56709">
        <ele>1110.4</ele>
        <time>2017-10-12T09:33:07Z</time>
      </trkpt>
      <trkpt lat="42.98059" lon="-0.56721">
        <ele>1112.65</ele>
        <time>2017-10-12T09:33:22Z</time>
      </trkpt>
      <trkpt lat="42.9805" lon="-0.56726">
        <ele>1113.77</ele>
        <time>2017-10-12T09:33:28Z</time>
      </trkpt>
      <trkpt lat="42.98043" lon="-0.56731">
        <ele>1114.62</ele>
        <time>2017-10-12T09:33:33Z</time>
      </trkpt>
      <trkpt lat="42.98021" lon="-0.56731">
        <ele>1116.46</ele>
        <time>2017-10-12T09:33:47Z</time>
      </trkpt>
      <trkpt lat="42.98018" lon="-0.56736">
        <ele>1118.21</ele>
        <time>2017-10-12T09:34:06Z</time>
      </trkpt>
      <trkpt lat="42.98016" lon="-0.56749">
        <ele>1118.65</ele>
        <time>2017-10-12T09:34:24Z</time>
      </trkpt>
      <trkpt lat="42.98015" lon="-0.56758">
        <ele>1120.65</ele>
        <time>2017-10-12T09:34:39Z</time>
      </trkpt>
      <trkpt lat="42.98011" lon="-0.56762">
        <ele>1122.95</ele>
        <time>2017-10-12T09:34:55Z</time>
      </trkpt>
      <trkpt lat="42.98007" lon="-0.56774">
        <ele>1125.12</ele>
        <time>2017-10-12T09:35:13Z</time>
      </trkpt>
      <trkpt lat="42.98" lon="-0.56787">
        <ele>1128.15</ele>
        <time>2017-10-12T09:35:33Z</time>
      </trkpt>
      <trkpt lat="42.97997" lon="-0.56797">
        <ele>1130.12</ele>
        <time>2017-10-12T09:35:50Z</time>
      </trkpt>
      <trkpt lat="42.97994" lon="-0.56811">
        <ele>1132.75</ele>
        <time>2017-10-12T09:36:11Z</time>
      </trkpt>
      <trkpt lat="42.97989" lon="-0.56822">
        <ele>1135.01</ele>
        <time>2017-10-12T09:36:31Z</time>
      </trkpt>
      <trkpt lat="42.9799" lon="-0.56827">
        <ele>1136.09</ele>
        <time>2017-10-12T09:36:51Z</time>
      </trkpt>
      <trkpt lat="42.9799" lon="-0.56836">
        <ele>1137.61</ele>
        <time>2017-10-12T09:37:03Z</time>
      </trkpt>
      <trkpt lat="42.9799" lon="-0.56836">
        <ele>1137.69</ele>
        <time>2017-10-12T09:37:04Z</time>
      </trkpt>
      <trkpt lat="42.97983" lon="-0.56845">
        <ele>1137.75</ele>
        <time>2017-10-12T09:37:12Z</time>
      </trkpt>
      <trkpt lat="42.97977" lon="-0.56862">
        <ele>1140.79</ele>
        <time>2017-10-12T09:37:22Z</time>
      </trkpt>
      <trkpt lat="42.9797" lon="-0.56868">
        <ele>1142.8</ele>
        <time>2017-10-12T09:37:27Z</time>
      </trkpt>
      <trkpt lat="42.97964" lon="-0.56882">
        <ele>1144.96</ele>
        <time>2017-10-12T09:37:35Z</time>
      </trkpt>
      <trkpt lat="42.97955" lon="-0.569">
        <ele>1148.2</ele>
        <time>2017-10-12T09:37:46Z</time>
      </trkpt>
      <trkpt lat="42.9795" lon="-0.56911">
        <ele>1150.24</ele>
        <time>2017-10-12T09:37:53Z</time>
      </trkpt>
      <trkpt lat="42.97941" lon="-0.56923">
        <ele>1153.08</ele>
        <time>2017-10-12T09:38:02Z</time>
      </trkpt>
      <trkpt lat="42.97937" lon="-0.56935">
        <ele>1155.72</ele>
        <time>2017-10-12T09:38:09Z</time>
      </trkpt>
      <trkpt lat="42.97926" lon="-0.56953">
        <ele>1158.83</ele>
        <time>2017-10-12T09:38:21Z</time>
      </trkpt>
      <trkpt lat="42.97921" lon="-0.56976">
        <ele>1161.89</ele>
        <time>2017-10-12T09:38:33Z</time>
      </trkpt>
      <trkpt lat="42.97921" lon="-0.56993">
        <ele>1164.96</ele>
        <time>2017-10-12T09:38:42Z</time>
      </trkpt>
      <trkpt lat="42.97923" lon="-0.57">
        <ele>1166</ele>
        <time>2017-10-12T09:38:46Z</time>
      </trkpt>
      <trkpt lat="42.9792" lon="-0.57007">
        <ele>1167.86</ele>
        <time>2017-10-12T09:38:50Z</time>
      </trkpt>
      <trkpt lat="42.97927" lon="-0.57019">
        <ele>1171.47</ele>
        <time>2017-10-12T09:39:00Z</time>
      </trkpt>
      <trkpt lat="42.97931" lon="-0.57026">
        <ele>1173.25</ele>
        <time>2017-10-12T09:39:06Z</time>
      </trkpt>
      <trkpt lat="42.97927" lon="-0.57033">
        <ele>1174.79</ele>
        <time>2017-10-12T09:39:11Z</time>
      </trkpt>
      <trkpt lat="42.9791" lon="-0.57047">
        <ele>1176.74</ele>
        <time>2017-10-12T09:39:25Z</time>
      </trkpt>
      <trkpt lat="42.9791" lon="-0.57048">
        <ele>1176.91</ele>
        <time>2017-10-12T09:39:26Z</time>
      </trkpt>
      <trkpt lat="42.97915" lon="-0.57062">
        <ele>1179.06</ele>
        <time>2017-10-12T09:39:35Z</time>
      </trkpt>
      <trkpt lat="42.97937" lon="-0.57095">
        <ele>1182.22</ele>
        <time>2017-10-12T09:39:56Z</time>
      </trkpt>
      <trkpt lat="42.97952" lon="-0.57128">
        <ele>1185.1</ele>
        <time>2017-10-12T09:40:13Z</time>
      </trkpt>
      <trkpt lat="42.97954" lon="-0.57159">
        <ele>1186.77</ele>
        <time>2017-10-12T09:40:28Z</time>
      </trkpt>
      <trkpt lat="42.97951" lon="-0.57183">
        <ele>1189.4</ele>
        <time>2017-10-12T09:40:41Z</time>
      </trkpt>
      <trkpt lat="42.97948" lon="-0.57183">
        <ele>1190.15</ele>
        <time>2017-10-12T09:40:52Z</time>
      </trkpt>
      <trkpt lat="42.97949" lon="-0.57182">
        <ele>1191.48</ele>
        <time>2017-10-12T09:42:54Z</time>
      </trkpt>
      <trkpt lat="42.97948" lon="-0.57184">
        <ele>1191.67</ele>
        <time>2017-10-12T09:44:44Z</time>
      </trkpt>
      <trkpt lat="42.97948" lon="-0.57182">
        <ele>1190.98</ele>
        <time>2017-10-12T09:46:15Z</time>
      </trkpt>
      <trkpt lat="42.97948" lon="-0.57183">
        <ele>1191.33</ele>
        <time>2017-10-12T09:48:20Z</time>
      </trkpt>
      <trkpt lat="42.97949" lon="-0.57182">
        <ele>1192.42</ele>
        <time>2017-10-12T09:48:55Z</time>
      </trkpt>
      <trkpt lat="42.97949" lon="-0.57183">
        <ele>1191.73</ele>
        <time>2017-10-12T09:49:43Z</time>
      </trkpt>
      <trkpt lat="42.97949" lon="-0.57183">
        <ele>1191.73</ele>
        <time>2017-10-12T09:50:26Z</time>
      </trkpt>
      <trkpt lat="42.97948" lon="-0.57182">
        <ele>1191.66</ele>
        <time>2017-10-12T09:51:10Z</time>
      </trkpt>
      <trkpt lat="42.97946" lon="-0.57176">
        <ele>1191.82</ele>
        <time>2017-10-12T09:51:15Z</time>
      </trkpt>
      <trkpt lat="42.9795" lon="-0.57138">
        <ele>1189.77</ele>
        <time>2017-10-12T09:51:29Z</time>
      </trkpt>
      <trkpt lat="42.97943" lon="-0.57107">
        <ele>1187.67</ele>
        <time>2017-10-12T09:51:41Z</time>
      </trkpt>
      <trkpt lat="42.97933" lon="-0.57092">
        <ele>1187.16</ele>
        <time>2017-10-12T09:51:44Z</time>
      </trkpt>
      <trkpt lat="42.97902" lon="-0.57036">
        <ele>1183.36</ele>
        <time>2017-10-12T09:51:51Z</time>
      </trkpt>
      <trkpt lat="42.97887" lon="-0.56995">
        <ele>1180.52</ele>
        <time>2017-10-12T09:51:55Z</time>
      </trkpt>
      <trkpt lat="42.97881" lon="-0.56934">
        <ele>1176.66</ele>
        <time>2017-10-12T09:52:00Z</time>
      </trkpt>
      <trkpt lat="42.97885" lon="-0.5691">
        <ele>1175.64</ele>
        <time>2017-10-12T09:52:02Z</time>
      </trkpt>
      <trkpt lat="42.97909" lon="-0.56821">
        <ele>1171.76</ele>
        <time>2017-10-12T09:52:10Z</time>
      </trkpt>
      <trkpt lat="42.97924" lon="-0.56754">
        <ele>1168.21</ele>
        <time>2017-10-12T09:52:16Z</time>
      </trkpt>
      <trkpt lat="42.97937" lon="-0.56697">
        <ele>1164.67</ele>
        <time>2017-10-12T09:52:21Z</time>
      </trkpt>
      <trkpt lat="42.97946" lon="-0.56634">
        <ele>1161.16</ele>
        <time>2017-10-12T09:52:27Z</time>
      </trkpt>
      <trkpt lat="42.97946" lon="-0.56624">
        <ele>1160.63</ele>
        <time>2017-10-12T09:52:28Z</time>
      </trkpt>
      <trkpt lat="42.97941" lon="-0.56548">
        <ele>1156.88</ele>
        <time>2017-10-12T09:52:35Z</time>
      </trkpt>
      <trkpt lat="42.97934" lon="-0.56491">
        <ele>1153.79</ele>
        <time>2017-10-12T09:52:40Z</time>
      </trkpt>
      <trkpt lat="42.97915" lon="-0.56436">
        <ele>1150.05</ele>
        <time>2017-10-12T09:52:45Z</time>
      </trkpt>
      <trkpt lat="42.97893" lon="-0.56403">
        <ele>1147.83</ele>
        <time>2017-10-12T09:52:49Z</time>
      </trkpt>
      <trkpt lat="42.9786" lon="-0.56379">
        <ele>1146.69</ele>
        <time>2017-10-12T09:52:56Z</time>
      </trkpt>
      <trkpt lat="42.97845" lon="-0.56372">
        <ele>1149.7</ele>
        <time>2017-10-12T09:53:05Z</time>
      </trkpt>
      <trkpt lat="42.9782" lon="-0.56361">
        <ele>1152.87</ele>
        <time>2017-10-12T09:53:18Z</time>
      </trkpt>
      <trkpt lat="42.97783" lon="-0.56353">
        <ele>1155.97</ele>
        <time>2017-10-12T09:53:36Z</time>
      </trkpt>
      <trkpt lat="42.97748" lon="-0.56353">
        <ele>1157.35</ele>
        <time>2017-10-12T09:53:53Z</time>
      </trkpt>
      <trkpt lat="42.9771" lon="-0.56341">
        <ele>1160.2</ele>
        <time>2017-10-12T09:54:10Z</time>
      </trkpt>
      <trkpt lat="42.97661" lon="-0.56345">
        <ele>1161.17</ele>
        <time>2017-10-12T09:54:30Z</time>
      </trkpt>
      <trkpt lat="42.97622" lon="-0.56346">
        <ele>1162.43</ele>
        <time>2017-10-12T09:54:46Z</time>
      </trkpt>
      <trkpt lat="42.97594" lon="-0.56315">
        <ele>1164.89</ele>
        <time>2017-10-12T09:55:02Z</time>
      </trkpt>
      <trkpt lat="42.97576" lon="-0.56283">
        <ele>1168.02</ele>
        <time>2017-10-12T09:55:16Z</time>
      </trkpt>
      <trkpt lat="42.9756" lon="-0.56248">
        <ele>1171.16</ele>
        <time>2017-10-12T09:55:30Z</time>
      </trkpt>
      <trkpt lat="42.97554" lon="-0.56207">
        <ele>1174.26</ele>
        <time>2017-10-12T09:55:46Z</time>
      </trkpt>
      <trkpt lat="42.97554" lon="-0.56171">
        <ele>1177.3</ele>
        <time>2017-10-12T09:56:02Z</time>
      </trkpt>
      <trkpt lat="42.97553" lon="-0.56155">
        <ele>1178.56</ele>
        <time>2017-10-12T09:56:09Z</time>
      </trkpt>
      <trkpt lat="42.9755" lon="-0.56144">
        <ele>1179.16</ele>
        <time>2017-10-12T09:56:15Z</time>
      </trkpt>
      <trkpt lat="42.97536" lon="-0.56106">
        <ele>1181.42</ele>
        <time>2017-10-12T09:56:33Z</time>
      </trkpt>
      <trkpt lat="42.97523" lon="-0.56074">
        <ele>1183.96</ele>
        <time>2017-10-12T09:56:49Z</time>
      </trkpt>
      <trkpt lat="42.97523" lon="-0.56069">
        <ele>1185.39</ele>
        <time>2017-10-12T09:57:02Z</time>
      </trkpt>
      <trkpt lat="42.97521" lon="-0.56063">
        <ele>1185.66</ele>
        <time>2017-10-12T09:57:30Z</time>
      </trkpt>
      <trkpt lat="42.97523" lon="-0.56061">
        <ele>1185.11</ele>
        <time>2017-10-12T09:58:19Z</time>
      </trkpt>
      <trkpt lat="42.97523" lon="-0.5606">
        <ele>1185.42</ele>
        <time>2017-10-12T09:59:33Z</time>
      </trkpt>
      <trkpt lat="42.97523" lon="-0.56061">
        <ele>1185.06</ele>
        <time>2017-10-12T10:00:54Z</time>
      </trkpt>
      <trkpt lat="42.97522" lon="-0.5606">
        <ele>1185.45</ele>
        <time>2017-10-12T10:02:00Z</time>
      </trkpt>
      <trkpt lat="42.97522" lon="-0.56059">
        <ele>1185.47</ele>
        <time>2017-10-12T10:03:09Z</time>
      </trkpt>
      <trkpt lat="42.97525" lon="-0.5606">
        <ele>1185.72</ele>
        <time>2017-10-12T10:03:46Z</time>
      </trkpt>
      <trkpt lat="42.97522" lon="-0.56042">
        <ele>1185.05</ele>
        <time>2017-10-12T10:03:59Z</time>
      </trkpt>
      <trkpt lat="42.97522" lon="-0.56041">
        <ele>1185.16</ele>
        <time>2017-10-12T10:04:05Z</time>
      </trkpt>
      <trkpt lat="42.97528" lon="-0.55991">
        <ele>1183.02</ele>
        <time>2017-10-12T10:04:17Z</time>
      </trkpt>
      <trkpt lat="42.97528" lon="-0.5597">
        <ele>1180.95</ele>
        <time>2017-10-12T10:04:20Z</time>
      </trkpt>
      <trkpt lat="42.97524" lon="-0.55934">
        <ele>1176.52</ele>
        <time>2017-10-12T10:04:25Z</time>
      </trkpt>
      <trkpt lat="42.97522" lon="-0.55922">
        <ele>1174.69</ele>
        <time>2017-10-12T10:04:27Z</time>
      </trkpt>
      <trkpt lat="42.9751" lon="-0.55888">
        <ele>1170.61</ele>
        <time>2017-10-12T10:04:32Z</time>
      </trkpt>
      <trkpt lat="42.97503" lon="-0.55853">
        <ele>1167.54</ele>
        <time>2017-10-12T10:04:40Z</time>
      </trkpt>
      <trkpt lat="42.975" lon="-0.55828">
        <ele>1166.11</ele>
        <time>2017-10-12T10:04:45Z</time>
      </trkpt>
      <trkpt lat="42.97494" lon="-0.55788">
        <ele>1162.69</ele>
        <time>2017-10-12T10:04:53Z</time>
      </trkpt>
      <trkpt lat="42.97494" lon="-0.55781">
        <ele>1162.22</ele>
        <time>2017-10-12T10:04:54Z</time>
      </trkpt>
      <trkpt lat="42.97487" lon="-0.55747">
        <ele>1160.57</ele>
        <time>2017-10-12T10:04:58Z</time>
      </trkpt>
      <trkpt lat="42.97484" lon="-0.5573">
        <ele>1160.06</ele>
        <time>2017-10-12T10:05:00Z</time>
      </trkpt>
      <trkpt lat="42.97484" lon="-0.5569">
        <ele>1158.68</ele>
        <time>2017-10-12T10:05:05Z</time>
      </trkpt>
      <trkpt lat="42.97494" lon="-0.55662">
        <ele>1158.54</ele>
        <time>2017-10-12T10:05:14Z</time>
      </trkpt>
      <trkpt lat="42.97504" lon="-0.55665">
        <ele>1160.92</ele>
        <time>2017-10-12T10:05:21Z</time>
      </trkpt>
      <trkpt lat="42.97523" lon="-0.5566">
        <ele>1163.86</ele>
        <time>2017-10-12T10:05:35Z</time>
      </trkpt>
      <trkpt lat="42.97544" lon="-0.55658">
        <ele>1166.39</ele>
        <time>2017-10-12T10:05:51Z</time>
      </trkpt>
      <trkpt lat="42.97555" lon="-0.55657">
        <ele>1168.1</ele>
        <time>2017-10-12T10:06:01Z</time>
      </trkpt>
      <trkpt lat="42.97573" lon="-0.55652">
        <ele>1171.27</ele>
        <time>2017-10-12T10:06:15Z</time>
      </trkpt>
      <trkpt lat="42.97579" lon="-0.55651">
        <ele>1172.12</ele>
        <time>2017-10-12T10:06:19Z</time>
      </trkpt>
      <trkpt lat="42.97583" lon="-0.5565">
        <ele>1172.85</ele>
        <time>2017-10-12T10:06:23Z</time>
      </trkpt>
      <trkpt lat="42.97585" lon="-0.55649">
        <ele>1173.11</ele>
        <time>2017-10-12T10:06:25Z</time>
      </trkpt>
      <trkpt lat="42.97603" lon="-0.55647">
        <ele>1175.27</ele>
        <time>2017-10-12T10:06:39Z</time>
      </trkpt>
      <trkpt lat="42.97623" lon="-0.55643">
        <ele>1178.32</ele>
        <time>2017-10-12T10:06:54Z</time>
      </trkpt>
      <trkpt lat="42.97641" lon="-0.55639">
        <ele>1180.8</ele>
        <time>2017-10-12T10:07:09Z</time>
      </trkpt>
      <trkpt lat="42.97659" lon="-0.55639">
        <ele>1182.93</ele>
        <time>2017-10-12T10:07:24Z</time>
      </trkpt>
      <trkpt lat="42.97675" lon="-0.55638">
        <ele>1184.46</ele>
        <time>2017-10-12T10:07:36Z</time>
      </trkpt>
      <trkpt lat="42.97696" lon="-0.55639">
        <ele>1186.45</ele>
        <time>2017-10-12T10:07:49Z</time>
      </trkpt>
      <trkpt lat="42.97719" lon="-0.55637">
        <ele>1188.54</ele>
        <time>2017-10-12T10:08:03Z</time>
      </trkpt>
      <trkpt lat="42.97727" lon="-0.55637">
        <ele>1189.98</ele>
        <time>2017-10-12T10:08:09Z</time>
      </trkpt>
      <trkpt lat="42.97741" lon="-0.55636">
        <ele>1191.46</ele>
        <time>2017-10-12T10:08:17Z</time>
      </trkpt>
      <trkpt lat="42.97764" lon="-0.55638">
        <ele>1193.33</ele>
        <time>2017-10-12T10:08:31Z</time>
      </trkpt>
      <trkpt lat="42.97766" lon="-0.55638">
        <ele>1193.45</ele>
        <time>2017-10-12T10:08:32Z</time>
      </trkpt>
      <trkpt lat="42.97786" lon="-0.55642">
        <ele>1195.98</ele>
        <time>2017-10-12T10:08:47Z</time>
      </trkpt>
      <trkpt lat="42.97793" lon="-0.55643">
        <ele>1196.66</ele>
        <time>2017-10-12T10:08:51Z</time>
      </trkpt>
      <trkpt lat="42.97815" lon="-0.5564">
        <ele>1199.12</ele>
        <time>2017-10-12T10:09:05Z</time>
      </trkpt>
      <trkpt lat="42.97817" lon="-0.55641">
        <ele>1199.58</ele>
        <time>2017-10-12T10:09:06Z</time>
      </trkpt>
      <trkpt lat="42.9784" lon="-0.55641">
        <ele>1202.03</ele>
        <time>2017-10-12T10:09:20Z</time>
      </trkpt>
      <trkpt lat="42.97846" lon="-0.55641">
        <ele>1202.67</ele>
        <time>2017-10-12T10:09:24Z</time>
      </trkpt>
      <trkpt lat="42.97857" lon="-0.5564">
        <ele>1203.62</ele>
        <time>2017-10-12T10:09:31Z</time>
      </trkpt>
      <trkpt lat="42.97882" lon="-0.55635">
        <ele>1205.85</ele>
        <time>2017-10-12T10:09:47Z</time>
      </trkpt>
      <trkpt lat="42.979" lon="-0.5563">
        <ele>1207.56</ele>
        <time>2017-10-12T10:09:59Z</time>
      </trkpt>
      <trkpt lat="42.97919" lon="-0.55625">
        <ele>1209.27</ele>
        <time>2017-10-12T10:10:13Z</time>
      </trkpt>
      <trkpt lat="42.9793" lon="-0.55622">
        <ele>1210.83</ele>
        <time>2017-10-12T10:10:21Z</time>
      </trkpt>
      <trkpt lat="42.97956" lon="-0.55611">
        <ele>1213.74</ele>
        <time>2017-10-12T10:10:37Z</time>
      </trkpt>
      <trkpt lat="42.97957" lon="-0.5561">
        <ele>1213.91</ele>
        <time>2017-10-12T10:10:38Z</time>
      </trkpt>
      <trkpt lat="42.97974" lon="-0.55602">
        <ele>1217.15</ele>
        <time>2017-10-12T10:10:54Z</time>
      </trkpt>
      <trkpt lat="42.97996" lon="-0.55592">
        <ele>1219.54</ele>
        <time>2017-10-12T10:11:07Z</time>
      </trkpt>
      <trkpt lat="42.97997" lon="-0.55591">
        <ele>1219.71</ele>
        <time>2017-10-12T10:11:08Z</time>
      </trkpt>
      <trkpt lat="42.98016" lon="-0.55583">
        <ele>1222.32</ele>
        <time>2017-10-12T10:11:22Z</time>
      </trkpt>
      <trkpt lat="42.98033" lon="-0.55573">
        <ele>1225.38</ele>
        <time>2017-10-12T10:11:35Z</time>
      </trkpt>
      <trkpt lat="42.98049" lon="-0.55564">
        <ele>1227.71</ele>
        <time>2017-10-12T10:11:48Z</time>
      </trkpt>
      <trkpt lat="42.98067" lon="-0.55551">
        <ele>1230.44</ele>
        <time>2017-10-12T10:12:03Z</time>
      </trkpt>
      <trkpt lat="42.98082" lon="-0.55539">
        <ele>1232.87</ele>
        <time>2017-10-12T10:12:15Z</time>
      </trkpt>
      <trkpt lat="42.98089" lon="-0.55535">
        <ele>1233.8</ele>
        <time>2017-10-12T10:12:20Z</time>
      </trkpt>
      <trkpt lat="42.98104" lon="-0.55514">
        <ele>1236.76</ele>
        <time>2017-10-12T10:12:35Z</time>
      </trkpt>
      <trkpt lat="42.98106" lon="-0.55512">
        <ele>1237.34</ele>
        <time>2017-10-12T10:12:37Z</time>
      </trkpt>
      <trkpt lat="42.98119" lon="-0.55489">
        <ele>1239.89</ele>
        <time>2017-10-12T10:12:51Z</time>
      </trkpt>
      <trkpt lat="42.9812" lon="-0.55485">
        <ele>1240.12</ele>
        <time>2017-10-12T10:12:53Z</time>
      </trkpt>
      <trkpt lat="42.98128" lon="-0.55461">
        <ele>1242.42</ele>
        <time>2017-10-12T10:13:07Z</time>
      </trkpt>
      <trkpt lat="42.98127" lon="-0.55459">
        <ele>1242.56</ele>
        <time>2017-10-12T10:13:08Z</time>
      </trkpt>
      <trkpt lat="42.98128" lon="-0.55456">
        <ele>1242.83</ele>
        <time>2017-10-12T10:13:10Z</time>
      </trkpt>
      <trkpt lat="42.98129" lon="-0.55447">
        <ele>1243.41</ele>
        <time>2017-10-12T10:13:15Z</time>
      </trkpt>
      <trkpt lat="42.98139" lon="-0.55416">
        <ele>1245.32</ele>
        <time>2017-10-12T10:13:30Z</time>
      </trkpt>
      <trkpt lat="42.98143" lon="-0.55394">
        <ele>1247.45</ele>
        <time>2017-10-12T10:13:45Z</time>
      </trkpt>
      <trkpt lat="42.9815" lon="-0.55377">
        <ele>1248.69</ele>
        <time>2017-10-12T10:13:55Z</time>
      </trkpt>
      <trkpt lat="42.9815" lon="-0.55371">
        <ele>1249.24</ele>
        <time>2017-10-12T10:14:00Z</time>
      </trkpt>
      <trkpt lat="42.98159" lon="-0.55351">
        <ele>1251.02</ele>
        <time>2017-10-12T10:14:12Z</time>
      </trkpt>
      <trkpt lat="42.98164" lon="-0.55342">
        <ele>1253.01</ele>
        <time>2017-10-12T10:14:26Z</time>
      </trkpt>
      <trkpt lat="42.98163" lon="-0.55334">
        <ele>1253.25</ele>
        <time>2017-10-12T10:14:44Z</time>
      </trkpt>
      <trkpt lat="42.98166" lon="-0.55337">
        <ele>1253.04</ele>
        <time>2017-10-12T10:15:05Z</time>
      </trkpt>
      <trkpt lat="42.98168" lon="-0.55352">
        <ele>1253.18</ele>
        <time>2017-10-12T10:15:42Z</time>
      </trkpt>
      <trkpt lat="42.98171" lon="-0.5535">
        <ele>1253.41</ele>
        <time>2017-10-12T10:16:24Z</time>
      </trkpt>
      <trkpt lat="42.98171" lon="-0.55345">
        <ele>1253.79</ele>
        <time>2017-10-12T10:17:04Z</time>
      </trkpt>
      <trkpt lat="42.98171" lon="-0.5535">
        <ele>1253.97</ele>
        <time>2017-10-12T10:17:39Z</time>
      </trkpt>
      <trkpt lat="42.98173" lon="-0.55344">
        <ele>1254.64</ele>
        <time>2017-10-12T10:18:22Z</time>
      </trkpt>
      <trkpt lat="42.98182" lon="-0.55338">
        <ele>1254.95</ele>
        <time>2017-10-12T10:19:17Z</time>
      </trkpt>
      <trkpt lat="42.98179" lon="-0.55337">
        <ele>1255.63</ele>
        <time>2017-10-12T10:19:59Z</time>
      </trkpt>
      <trkpt lat="42.9818" lon="-0.55333">
        <ele>1255.64</ele>
        <time>2017-10-12T10:20:23Z</time>
      </trkpt>
      <trkpt lat="42.9818" lon="-0.55323">
        <ele>1256.09</ele>
        <time>2017-10-12T10:20:54Z</time>
      </trkpt>
      <trkpt lat="42.9818" lon="-0.55315">
        <ele>1256.08</ele>
        <time>2017-10-12T10:21:14Z</time>
      </trkpt>
      <trkpt lat="42.98182" lon="-0.55309">
        <ele>1258.93</ele>
        <time>2017-10-12T10:21:34Z</time>
      </trkpt>
      <trkpt lat="42.98187" lon="-0.55305">
        <ele>1260.85</ele>
        <time>2017-10-12T10:21:55Z</time>
      </trkpt>
      <trkpt lat="42.98194" lon="-0.55302">
        <ele>1262.01</ele>
        <time>2017-10-12T10:22:15Z</time>
      </trkpt>
      <trkpt lat="42.982" lon="-0.55305">
        <ele>1261.4</ele>
        <time>2017-10-12T10:22:28Z</time>
      </trkpt>
      <trkpt lat="42.98222" lon="-0.55295">
        <ele>1259.62</ele>
        <time>2017-10-12T10:22:42Z</time>
      </trkpt>
      <trkpt lat="42.98223" lon="-0.55295">
        <ele>1259.61</ele>
        <time>2017-10-12T10:22:43Z</time>
      </trkpt>
      <trkpt lat="42.98241" lon="-0.55287">
        <ele>1257.78</ele>
        <time>2017-10-12T10:22:54Z</time>
      </trkpt>
      <trkpt lat="42.98246" lon="-0.55276">
        <ele>1256.53</ele>
        <time>2017-10-12T10:23:03Z</time>
      </trkpt>
      <trkpt lat="42.98252" lon="-0.55251">
        <ele>1255.72</ele>
        <time>2017-10-12T10:23:14Z</time>
      </trkpt>
      <trkpt lat="42.98259" lon="-0.55243">
        <ele>1255.98</ele>
        <time>2017-10-12T10:23:28Z</time>
      </trkpt>
      <trkpt lat="42.98267" lon="-0.55234">
        <ele>1256.38</ele>
        <time>2017-10-12T10:23:39Z</time>
      </trkpt>
      <trkpt lat="42.98272" lon="-0.55227">
        <ele>1255.85</ele>
        <time>2017-10-12T10:23:47Z</time>
      </trkpt>
      <trkpt lat="42.98282" lon="-0.55223">
        <ele>1256.34</ele>
        <time>2017-10-12T10:24:02Z</time>
      </trkpt>
      <trkpt lat="42.98288" lon="-0.55218">
        <ele>1257.28</ele>
        <time>2017-10-12T10:24:18Z</time>
      </trkpt>
      <trkpt lat="42.98298" lon="-0.55227">
        <ele>1255.76</ele>
        <time>2017-10-12T10:24:36Z</time>
      </trkpt>
      <trkpt lat="42.98303" lon="-0.55228">
        <ele>1256.46</ele>
        <time>2017-10-12T10:24:51Z</time>
      </trkpt>
      <trkpt lat="42.98304" lon="-0.55228">
        <ele>1256.55</ele>
        <time>2017-10-12T10:24:53Z</time>
      </trkpt>
      <trkpt lat="42.9831" lon="-0.5523">
        <ele>1257.31</ele>
        <time>2017-10-12T10:25:08Z</time>
      </trkpt>
      <trkpt lat="42.98311" lon="-0.5523">
        <ele>1257.32</ele>
        <time>2017-10-12T10:25:09Z</time>
      </trkpt>
      <trkpt lat="42.98314" lon="-0.5523">
        <ele>1257.38</ele>
        <time>2017-10-12T10:25:14Z</time>
      </trkpt>
      <trkpt lat="42.98338" lon="-0.55238">
        <ele>1257.87</ele>
        <time>2017-10-12T10:25:27Z</time>
      </trkpt>
      <trkpt lat="42.98371" lon="-0.5525">
        <ele>1259.17</ele>
        <time>2017-10-12T10:25:42Z</time>
      </trkpt>
      <trkpt lat="42.98399" lon="-0.5527">
        <ele>1261.3</ele>
        <time>2017-10-12T10:25:56Z</time>
      </trkpt>
      <trkpt lat="42.98424" lon="-0.55287">
        <ele>1263.25</ele>
        <time>2017-10-12T10:26:10Z</time>
      </trkpt>
      <trkpt lat="42.98431" lon="-0.55292">
        <ele>1263.77</ele>
        <time>2017-10-12T10:26:15Z</time>
      </trkpt>
      <trkpt lat="42.98434" lon="-0.55298">
        <ele>1263.93</ele>
        <time>2017-10-12T10:26:20Z</time>
      </trkpt>
      <trkpt lat="42.98439" lon="-0.55301">
        <ele>1263.59</ele>
        <time>2017-10-12T10:26:33Z</time>
      </trkpt>
      <trkpt lat="42.98439" lon="-0.55301">
        <ele>1262.64</ele>
        <time>2017-10-12T10:27:18Z</time>
      </trkpt>
      <trkpt lat="42.98442" lon="-0.55299">
        <ele>1262.66</ele>
        <time>2017-10-12T10:28:40Z</time>
      </trkpt>
      <trkpt lat="42.98441" lon="-0.55299">
        <ele>1262.34</ele>
        <time>2017-10-12T10:29:45Z</time>
      </trkpt>
      <trkpt lat="42.98442" lon="-0.553">
        <ele>1262.69</ele>
        <time>2017-10-12T10:30:47Z</time>
      </trkpt>
      <trkpt lat="42.98441" lon="-0.55299">
        <ele>1262.82</ele>
        <time>2017-10-12T10:32:16Z</time>
      </trkpt>
      <trkpt lat="42.9844" lon="-0.55298">
        <ele>1263.1</ele>
        <time>2017-10-12T10:33:42Z</time>
      </trkpt>
      <trkpt lat="42.98441" lon="-0.553">
        <ele>1263.83</ele>
        <time>2017-10-12T10:35:05Z</time>
      </trkpt>
      <trkpt lat="42.98439" lon="-0.553">
        <ele>1264.31</ele>
        <time>2017-10-12T10:36:48Z</time>
      </trkpt>
      <trkpt lat="42.98441" lon="-0.55299">
        <ele>1264.68</ele>
        <time>2017-10-12T10:38:28Z</time>
      </trkpt>
      <trkpt lat="42.9844" lon="-0.55299">
        <ele>1265.51</ele>
        <time>2017-10-12T10:40:11Z</time>
      </trkpt>
      <trkpt lat="42.98441" lon="-0.553">
        <ele>1265.79</ele>
        <time>2017-10-12T10:41:58Z</time>
      </trkpt>
      <trkpt lat="42.98442" lon="-0.55299">
        <ele>1266.4</ele>
        <time>2017-10-12T10:43:34Z</time>
      </trkpt>
      <trkpt lat="42.98441" lon="-0.553">
        <ele>1266.14</ele>
        <time>2017-10-12T10:45:26Z</time>
      </trkpt>
      <trkpt lat="42.98441" lon="-0.553">
        <ele>1266.18</ele>
        <time>2017-10-12T10:46:44Z</time>
      </trkpt>
      <trkpt lat="42.98442" lon="-0.55299">
        <ele>1266.69</ele>
        <time>2017-10-12T10:48:26Z</time>
      </trkpt>
      <trkpt lat="42.98441" lon="-0.55301">
        <ele>1266.66</ele>
        <time>2017-10-12T10:49:38Z</time>
      </trkpt>
      <trkpt lat="42.9844" lon="-0.553">
        <ele>1266.29</ele>
        <time>2017-10-12T10:51:14Z</time>
      </trkpt>
      <trkpt lat="42.98441" lon="-0.55301">
        <ele>1266.3</ele>
        <time>2017-10-12T10:52:54Z</time>
      </trkpt>
      <trkpt lat="42.9844" lon="-0.55301">
        <ele>1266.31</ele>
        <time>2017-10-12T10:54:17Z</time>
      </trkpt>
      <trkpt lat="42.98441" lon="-0.553">
        <ele>1266.74</ele>
        <time>2017-10-12T10:56:08Z</time>
      </trkpt>
      <trkpt lat="42.9844" lon="-0.553">
        <ele>1266.29</ele>
        <time>2017-10-12T10:57:37Z</time>
      </trkpt>
      <trkpt lat="42.9844" lon="-0.55302">
        <ele>1266.46</ele>
        <time>2017-10-12T10:59:33Z</time>
      </trkpt>
      <trkpt lat="42.98442" lon="-0.55299">
        <ele>1266.88</ele>
        <time>2017-10-12T11:01:03Z</time>
      </trkpt>
      <trkpt lat="42.98441" lon="-0.553">
        <ele>1266.78</ele>
        <time>2017-10-12T11:02:39Z</time>
      </trkpt>
      <trkpt lat="42.98442" lon="-0.553">
        <ele>1267.17</ele>
        <time>2017-10-12T11:03:47Z</time>
      </trkpt>
      <trkpt lat="42.98442" lon="-0.55299">
        <ele>1267.35</ele>
        <time>2017-10-12T11:05:00Z</time>
      </trkpt>
      <trkpt lat="42.98441" lon="-0.553">
        <ele>1268.26</ele>
        <time>2017-10-12T11:05:22Z</time>
      </trkpt>
      <trkpt lat="42.98444" lon="-0.55305">
        <ele>1267.79</ele>
        <time>2017-10-12T11:05:55Z</time>
      </trkpt>
      <trkpt lat="42.98445" lon="-0.55306">
        <ele>1267.77</ele>
        <time>2017-10-12T11:05:56Z</time>
      </trkpt>
      <trkpt lat="42.98449" lon="-0.55313">
        <ele>1267.47</ele>
        <time>2017-10-12T11:06:04Z</time>
      </trkpt>
      <trkpt lat="42.9845" lon="-0.55315">
        <ele>1267.36</ele>
        <time>2017-10-12T11:06:06Z</time>
      </trkpt>
      <trkpt lat="42.98461" lon="-0.55336">
        <ele>1264.77</ele>
        <time>2017-10-12T11:06:21Z</time>
      </trkpt>
      <trkpt lat="42.98464" lon="-0.55341">
        <ele>1263.65</ele>
        <time>2017-10-12T11:06:27Z</time>
      </trkpt>
      <trkpt lat="42.98466" lon="-0.55346">
        <ele>1263.23</ele>
        <time>2017-10-12T11:06:30Z</time>
      </trkpt>
      <trkpt lat="42.98473" lon="-0.55362">
        <ele>1259.7</ele>
        <time>2017-10-12T11:06:41Z</time>
      </trkpt>
      <trkpt lat="42.98474" lon="-0.55365">
        <ele>1257.5</ele>
        <time>2017-10-12T11:06:47Z</time>
      </trkpt>
      <trkpt lat="42.98487" lon="-0.5539">
        <ele>1253.95</ele>
        <time>2017-10-12T11:07:01Z</time>
      </trkpt>
      <trkpt lat="42.98505" lon="-0.5542">
        <ele>1250.84</ele>
        <time>2017-10-12T11:07:11Z</time>
      </trkpt>
      <trkpt lat="42.98511" lon="-0.55445">
        <ele>1247.4</ele>
        <time>2017-10-12T11:07:18Z</time>
      </trkpt>
      <trkpt lat="42.98512" lon="-0.55448">
        <ele>1246.83</ele>
        <time>2017-10-12T11:07:19Z</time>
      </trkpt>
      <trkpt lat="42.98516" lon="-0.55474">
        <ele>1242.69</ele>
        <time>2017-10-12T11:07:25Z</time>
      </trkpt>
      <trkpt lat="42.98519" lon="-0.55494">
        <ele>1239.54</ele>
        <time>2017-10-12T11:07:29Z</time>
      </trkpt>
      <trkpt lat="42.98522" lon="-0.5551">
        <ele>1236.13</ele>
        <time>2017-10-12T11:07:33Z</time>
      </trkpt>
      <trkpt lat="42.98524" lon="-0.55523">
        <ele>1232.95</ele>
        <time>2017-10-12T11:07:38Z</time>
      </trkpt>
      <trkpt lat="42.98526" lon="-0.55528">
        <ele>1230.85</ele>
        <time>2017-10-12T11:07:43Z</time>
      </trkpt>
      <trkpt lat="42.9853" lon="-0.55537">
        <ele>1229.02</ele>
        <time>2017-10-12T11:07:49Z</time>
      </trkpt>
      <trkpt lat="42.98534" lon="-0.55558">
        <ele>1226.54</ele>
        <time>2017-10-12T11:07:56Z</time>
      </trkpt>
      <trkpt lat="42.98538" lon="-0.55576">
        <ele>1223.88</ele>
        <time>2017-10-12T11:08:02Z</time>
      </trkpt>
      <trkpt lat="42.98539" lon="-0.55597">
        <ele>1219.37</ele>
        <time>2017-10-12T11:08:09Z</time>
      </trkpt>
      <trkpt lat="42.98539" lon="-0.55611">
        <ele>1215.9</ele>
        <time>2017-10-12T11:08:15Z</time>
      </trkpt>
      <trkpt lat="42.9854" lon="-0.55616">
        <ele>1213.76</ele>
        <time>2017-10-12T11:08:22Z</time>
      </trkpt>
      <trkpt lat="42.98539" lon="-0.55626">
        <ele>1210.42</ele>
        <time>2017-10-12T11:08:37Z</time>
      </trkpt>
      <trkpt lat="42.98539" lon="-0.55631">
        <ele>1208.98</ele>
        <time>2017-10-12T11:08:43Z</time>
      </trkpt>
      <trkpt lat="42.9853" lon="-0.55638">
        <ele>1205.4</ele>
        <time>2017-10-12T11:08:53Z</time>
      </trkpt>
      <trkpt lat="42.98523" lon="-0.55634">
        <ele>1202.55</ele>
        <time>2017-10-12T11:08:59Z</time>
      </trkpt>
      <trkpt lat="42.98516" lon="-0.5563">
        <ele>1199.01</ele>
        <time>2017-10-12T11:09:07Z</time>
      </trkpt>
      <trkpt lat="42.98515" lon="-0.55634">
        <ele>1196.54</ele>
        <time>2017-10-12T11:09:24Z</time>
      </trkpt>
      <trkpt lat="42.98516" lon="-0.55652">
        <ele>1193.57</ele>
        <time>2017-10-12T11:09:42Z</time>
      </trkpt>
      <trkpt lat="42.98515" lon="-0.55659">
        <ele>1190.36</ele>
        <time>2017-10-12T11:09:58Z</time>
      </trkpt>
      <trkpt lat="42.98516" lon="-0.55667">
        <ele>1187.57</ele>
        <time>2017-10-12T11:10:14Z</time>
      </trkpt>
      <trkpt lat="42.98516" lon="-0.55668">
        <ele>1187.47</ele>
        <time>2017-10-12T11:10:15Z</time>
      </trkpt>
      <trkpt lat="42.98517" lon="-0.55675">
        <ele>1185.51</ele>
        <time>2017-10-12T11:10:37Z</time>
      </trkpt>
      <trkpt lat="42.98518" lon="-0.55676">
        <ele>1184.67</ele>
        <time>2017-10-12T11:11:08Z</time>
      </trkpt>
      <trkpt lat="42.98518" lon="-0.55682">
        <ele>1184.69</ele>
        <time>2017-10-12T11:11:43Z</time>
      </trkpt>
      <trkpt lat="42.9852" lon="-0.55689">
        <ele>1183.63</ele>
        <time>2017-10-12T11:11:50Z</time>
      </trkpt>
      <trkpt lat="42.98528" lon="-0.55724">
        <ele>1179.84</ele>
        <time>2017-10-12T11:12:01Z</time>
      </trkpt>
      <trkpt lat="42.98532" lon="-0.55745">
        <ele>1176.34</ele>
        <time>2017-10-12T11:12:08Z</time>
      </trkpt>
      <trkpt lat="42.98533" lon="-0.55761">
        <ele>1173.12</ele>
        <time>2017-10-12T11:12:13Z</time>
      </trkpt>
      <trkpt lat="42.98535" lon="-0.55772">
        <ele>1169.54</ele>
        <time>2017-10-12T11:12:18Z</time>
      </trkpt>
      <trkpt lat="42.98536" lon="-0.55779">
        <ele>1168.18</ele>
        <time>2017-10-12T11:12:20Z</time>
      </trkpt>
      <trkpt lat="42.98537" lon="-0.55782">
        <ele>1164</ele>
        <time>2017-10-12T11:12:26Z</time>
      </trkpt>
      <trkpt lat="42.98536" lon="-0.55787">
        <ele>1161.48</ele>
        <time>2017-10-12T11:12:39Z</time>
      </trkpt>
      <trkpt lat="42.98537" lon="-0.55804">
        <ele>1158.55</ele>
        <time>2017-10-12T11:12:49Z</time>
      </trkpt>
      <trkpt lat="42.9854" lon="-0.55812">
        <ele>1156.7</ele>
        <time>2017-10-12T11:12:53Z</time>
      </trkpt>
      <trkpt lat="42.98552" lon="-0.55824">
        <ele>1152.75</ele>
        <time>2017-10-12T11:13:00Z</time>
      </trkpt>
      <trkpt lat="42.98559" lon="-0.55828">
        <ele>1149.42</ele>
        <time>2017-10-12T11:13:05Z</time>
      </trkpt>
      <trkpt lat="42.98564" lon="-0.55833">
        <ele>1146.19</ele>
        <time>2017-10-12T11:13:11Z</time>
      </trkpt>
      <trkpt lat="42.98564" lon="-0.55834">
        <ele>1143.08</ele>
        <time>2017-10-12T11:13:20Z</time>
      </trkpt>
      <trkpt lat="42.98567" lon="-0.55829">
        <ele>1142.8</ele>
        <time>2017-10-12T11:13:33Z</time>
      </trkpt>
      <trkpt lat="42.98576" lon="-0.55823">
        <ele>1140.93</ele>
        <time>2017-10-12T11:13:47Z</time>
      </trkpt>
      <trkpt lat="42.9858" lon="-0.55817">
        <ele>1138.63</ele>
        <time>2017-10-12T11:14:01Z</time>
      </trkpt>
      <trkpt lat="42.98583" lon="-0.55818">
        <ele>1137.13</ele>
        <time>2017-10-12T11:14:17Z</time>
      </trkpt>
      <trkpt lat="42.98586" lon="-0.55815">
        <ele>1136.7</ele>
        <time>2017-10-12T11:14:30Z</time>
      </trkpt>
      <trkpt lat="42.9859" lon="-0.55812">
        <ele>1136.39</ele>
        <time>2017-10-12T11:14:34Z</time>
      </trkpt>
      <trkpt lat="42.98595" lon="-0.55802">
        <ele>1133.19</ele>
        <time>2017-10-12T11:14:46Z</time>
      </trkpt>
      <trkpt lat="42.98598" lon="-0.55793">
        <ele>1132.04</ele>
        <time>2017-10-12T11:14:50Z</time>
      </trkpt>
      <trkpt lat="42.986" lon="-0.55786">
        <ele>1130.78</ele>
        <time>2017-10-12T11:14:53Z</time>
      </trkpt>
      <trkpt lat="42.98603" lon="-0.55775">
        <ele>1128.01</ele>
        <time>2017-10-12T11:14:58Z</time>
      </trkpt>
      <trkpt lat="42.98607" lon="-0.55759">
        <ele>1125.13</ele>
        <time>2017-10-12T11:15:03Z</time>
      </trkpt>
      <trkpt lat="42.98612" lon="-0.55742">
        <ele>1121.45</ele>
        <time>2017-10-12T11:15:08Z</time>
      </trkpt>
      <trkpt lat="42.98621" lon="-0.55727">
        <ele>1117.47</ele>
        <time>2017-10-12T11:15:14Z</time>
      </trkpt>
      <trkpt lat="42.98628" lon="-0.55712">
        <ele>1114.35</ele>
        <time>2017-10-12T11:15:18Z</time>
      </trkpt>
      <trkpt lat="42.98632" lon="-0.55695">
        <ele>1110.66</ele>
        <time>2017-10-12T11:15:22Z</time>
      </trkpt>
      <trkpt lat="42.98635" lon="-0.55679">
        <ele>1106.94</ele>
        <time>2017-10-12T11:15:26Z</time>
      </trkpt>
      <trkpt lat="42.9864" lon="-0.55667">
        <ele>1104.41</ele>
        <time>2017-10-12T11:15:29Z</time>
      </trkpt>
      <trkpt lat="42.98652" lon="-0.55645">
        <ele>1100.24</ele>
        <time>2017-10-12T11:15:35Z</time>
      </trkpt>
      <trkpt lat="42.9866" lon="-0.5562">
        <ele>1096.9</ele>
        <time>2017-10-12T11:15:41Z</time>
      </trkpt>
      <trkpt lat="42.98661" lon="-0.55616">
        <ele>1096.08</ele>
        <time>2017-10-12T11:15:43Z</time>
      </trkpt>
      <trkpt lat="42.98674" lon="-0.5562">
        <ele>1092.68</ele>
        <time>2017-10-12T11:15:50Z</time>
      </trkpt>
      <trkpt lat="42.98676" lon="-0.5562">
        <ele>1091.96</ele>
        <time>2017-10-12T11:15:51Z</time>
      </trkpt>
      <trkpt lat="42.98688" lon="-0.55596">
        <ele>1087.8</ele>
        <time>2017-10-12T11:15:57Z</time>
      </trkpt>
      <trkpt lat="42.98693" lon="-0.55593">
        <ele>1084.78</ele>
        <time>2017-10-12T11:16:13Z</time>
      </trkpt>
      <trkpt lat="42.98694" lon="-0.55592">
        <ele>1084.81</ele>
        <time>2017-10-12T11:16:35Z</time>
      </trkpt>
      <trkpt lat="42.987" lon="-0.55588">
        <ele>1084.98</ele>
        <time>2017-10-12T11:17:04Z</time>
      </trkpt>
      <trkpt lat="42.98702" lon="-0.55582">
        <ele>1084.73</ele>
        <time>2017-10-12T11:17:16Z</time>
      </trkpt>
      <trkpt lat="42.98699" lon="-0.55569">
        <ele>1084.52</ele>
        <time>2017-10-12T11:17:20Z</time>
      </trkpt>
      <trkpt lat="42.98696" lon="-0.55552">
        <ele>1084.11</ele>
        <time>2017-10-12T11:17:24Z</time>
      </trkpt>
      <trkpt lat="42.987" lon="-0.55523">
        <ele>1083.04</ele>
        <time>2017-10-12T11:17:29Z</time>
      </trkpt>
      <trkpt lat="42.98709" lon="-0.55493">
        <ele>1081.57</ele>
        <time>2017-10-12T11:17:33Z</time>
      </trkpt>
      <trkpt lat="42.98719" lon="-0.55475">
        <ele>1079.8</ele>
        <time>2017-10-12T11:17:38Z</time>
      </trkpt>
      <trkpt lat="42.98723" lon="-0.55456">
        <ele>1076.67</ele>
        <time>2017-10-12T11:17:47Z</time>
      </trkpt>
      <trkpt lat="42.98723" lon="-0.55443">
        <ele>1074.14</ele>
        <time>2017-10-12T11:17:51Z</time>
      </trkpt>
      <trkpt lat="42.98728" lon="-0.55427">
        <ele>1070.04</ele>
        <time>2017-10-12T11:17:56Z</time>
      </trkpt>
      <trkpt lat="42.98732" lon="-0.55418">
        <ele>1066.16</ele>
        <time>2017-10-12T11:18:04Z</time>
      </trkpt>
      <trkpt lat="42.98732" lon="-0.55417">
        <ele>1065.78</ele>
        <time>2017-10-12T11:18:06Z</time>
      </trkpt>
      <trkpt lat="42.9874" lon="-0.55405">
        <ele>1064.64</ele>
        <time>2017-10-12T11:18:16Z</time>
      </trkpt>
      <trkpt lat="42.98751" lon="-0.55383">
        <ele>1062.53</ele>
        <time>2017-10-12T11:18:23Z</time>
      </trkpt>
      <trkpt lat="42.98764" lon="-0.55362">
        <ele>1058.91</ele>
        <time>2017-10-12T11:18:31Z</time>
      </trkpt>
      <trkpt lat="42.98772" lon="-0.55353">
        <ele>1055.73</ele>
        <time>2017-10-12T11:18:36Z</time>
      </trkpt>
      <trkpt lat="42.98775" lon="-0.5535">
        <ele>1054.48</ele>
        <time>2017-10-12T11:18:38Z</time>
      </trkpt>
      <trkpt lat="42.98782" lon="-0.55342">
        <ele>1051.01</ele>
        <time>2017-10-12T11:18:43Z</time>
      </trkpt>
      <trkpt lat="42.98791" lon="-0.55326">
        <ele>1047.46</ele>
        <time>2017-10-12T11:18:48Z</time>
      </trkpt>
      <trkpt lat="42.98796" lon="-0.55312">
        <ele>1042.52</ele>
        <time>2017-10-12T11:18:53Z</time>
      </trkpt>
      <trkpt lat="42.98798" lon="-0.55309">
        <ele>1041</ele>
        <time>2017-10-12T11:18:55Z</time>
      </trkpt>
      <trkpt lat="42.98804" lon="-0.55307">
        <ele>1038.15</ele>
        <time>2017-10-12T11:19:00Z</time>
      </trkpt>
      <trkpt lat="42.98815" lon="-0.55307">
        <ele>1035.08</ele>
        <time>2017-10-12T11:19:19Z</time>
      </trkpt>
      <trkpt lat="42.98815" lon="-0.55308">
        <ele>1035.24</ele>
        <time>2017-10-12T11:19:25Z</time>
      </trkpt>
      <trkpt lat="42.98815" lon="-0.55318">
        <ele>1035.14</ele>
        <time>2017-10-12T11:19:30Z</time>
      </trkpt>
      <trkpt lat="42.98817" lon="-0.55334">
        <ele>1033.3</ele>
        <time>2017-10-12T11:19:37Z</time>
      </trkpt>
      <trkpt lat="42.98817" lon="-0.55344">
        <ele>1031.4</ele>
        <time>2017-10-12T11:19:42Z</time>
      </trkpt>
      <trkpt lat="42.9882" lon="-0.55368">
        <ele>1027.92</ele>
        <time>2017-10-12T11:19:49Z</time>
      </trkpt>
      <trkpt lat="42.98822" lon="-0.55385">
        <ele>1025.17</ele>
        <time>2017-10-12T11:19:54Z</time>
      </trkpt>
      <trkpt lat="42.98822" lon="-0.55396">
        <ele>1023.39</ele>
        <time>2017-10-12T11:19:57Z</time>
      </trkpt>
      <trkpt lat="42.98824" lon="-0.55409">
        <ele>1019.45</ele>
        <time>2017-10-12T11:20:03Z</time>
      </trkpt>
      <trkpt lat="42.98827" lon="-0.55431">
        <ele>1015.02</ele>
        <time>2017-10-12T11:20:09Z</time>
      </trkpt>
      <trkpt lat="42.98837" lon="-0.55444">
        <ele>1010.82</ele>
        <time>2017-10-12T11:20:14Z</time>
      </trkpt>
      <trkpt lat="42.98841" lon="-0.55458">
        <ele>1007.13</ele>
        <time>2017-10-12T11:20:18Z</time>
      </trkpt>
      <trkpt lat="42.98849" lon="-0.55474">
        <ele>1002.3</ele>
        <time>2017-10-12T11:20:23Z</time>
      </trkpt>
      <trkpt lat="42.98857" lon="-0.55502">
        <ele>998.35</ele>
        <time>2017-10-12T11:20:28Z</time>
      </trkpt>
      <trkpt lat="42.98859" lon="-0.55509">
        <ele>995.47</ele>
        <time>2017-10-12T11:20:37Z</time>
      </trkpt>
      <trkpt lat="42.98859" lon="-0.55516">
        <ele>995.07</ele>
        <time>2017-10-12T11:21:00Z</time>
      </trkpt>
      <trkpt lat="42.98866" lon="-0.5554">
        <ele>992.67</ele>
        <time>2017-10-12T11:21:11Z</time>
      </trkpt>
      <trkpt lat="42.98867" lon="-0.55545">
        <ele>991.52</ele>
        <time>2017-10-12T11:21:13Z</time>
      </trkpt>
      <trkpt lat="42.98879" lon="-0.55568">
        <ele>988.01</ele>
        <time>2017-10-12T11:21:19Z</time>
      </trkpt>
      <trkpt lat="42.98889" lon="-0.55592">
        <ele>984</ele>
        <time>2017-10-12T11:21:23Z</time>
      </trkpt>
      <trkpt lat="42.98893" lon="-0.55604">
        <ele>981.76</ele>
        <time>2017-10-12T11:21:25Z</time>
      </trkpt>
      <trkpt lat="42.989" lon="-0.5563">
        <ele>975.9</ele>
        <time>2017-10-12T11:21:30Z</time>
      </trkpt>
      <trkpt lat="42.98903" lon="-0.55636">
        <ele>972.56</ele>
        <time>2017-10-12T11:21:35Z</time>
      </trkpt>
      <trkpt lat="42.98905" lon="-0.55643">
        <ele>969.99</ele>
        <time>2017-10-12T11:21:54Z</time>
      </trkpt>
      <trkpt lat="42.98909" lon="-0.55649">
        <ele>969.12</ele>
        <time>2017-10-12T11:22:15Z</time>
      </trkpt>
      <trkpt lat="42.9891" lon="-0.55651">
        <ele>968.88</ele>
        <time>2017-10-12T11:22:19Z</time>
      </trkpt>
      <trkpt lat="42.98913" lon="-0.55657">
        <ele>968.46</ele>
        <time>2017-10-12T11:22:24Z</time>
      </trkpt>
      <trkpt lat="42.98915" lon="-0.55662">
        <ele>967.49</ele>
        <time>2017-10-12T11:22:29Z</time>
      </trkpt>
      <trkpt lat="42.98931" lon="-0.55692">
        <ele>964.13</ele>
        <time>2017-10-12T11:22:39Z</time>
      </trkpt>
      <trkpt lat="42.98941" lon="-0.55715">
        <ele>960.99</ele>
        <time>2017-10-12T11:22:45Z</time>
      </trkpt>
      <trkpt lat="42.98948" lon="-0.55734">
        <ele>958.58</ele>
        <time>2017-10-12T11:22:49Z</time>
      </trkpt>
      <trkpt lat="42.98953" lon="-0.55755">
        <ele>955.33</ele>
        <time>2017-10-12T11:22:53Z</time>
      </trkpt>
      <trkpt lat="42.98958" lon="-0.55776">
        <ele>951.21</ele>
        <time>2017-10-12T11:23:00Z</time>
      </trkpt>
      <trkpt lat="42.9896" lon="-0.55779">
        <ele>950.12</ele>
        <time>2017-10-12T11:23:02Z</time>
      </trkpt>
      <trkpt lat="42.98967" lon="-0.55805">
        <ele>946.58</ele>
        <time>2017-10-12T11:23:09Z</time>
      </trkpt>
      <trkpt lat="42.98974" lon="-0.55823">
        <ele>942.78</ele>
        <time>2017-10-12T11:23:14Z</time>
      </trkpt>
      <trkpt lat="42.98979" lon="-0.55839">
        <ele>939.13</ele>
        <time>2017-10-12T11:23:18Z</time>
      </trkpt>
      <trkpt lat="42.98983" lon="-0.5585">
        <ele>935.64</ele>
        <time>2017-10-12T11:23:22Z</time>
      </trkpt>
      <trkpt lat="42.98987" lon="-0.5586">
        <ele>931.75</ele>
        <time>2017-10-12T11:23:26Z</time>
      </trkpt>
      <trkpt lat="42.98994" lon="-0.55847">
        <ele>928.12</ele>
        <time>2017-10-12T11:23:32Z</time>
      </trkpt>
      <trkpt lat="42.98995" lon="-0.55844">
        <ele>927.4</ele>
        <time>2017-10-12T11:23:33Z</time>
      </trkpt>
      <trkpt lat="42.99" lon="-0.55828">
        <ele>923.11</ele>
        <time>2017-10-12T11:23:38Z</time>
      </trkpt>
      <trkpt lat="42.99005" lon="-0.55814">
        <ele>919.52</ele>
        <time>2017-10-12T11:23:43Z</time>
      </trkpt>
      <trkpt lat="42.9901" lon="-0.55796">
        <ele>916.16</ele>
        <time>2017-10-12T11:23:48Z</time>
      </trkpt>
      <trkpt lat="42.99015" lon="-0.55792">
        <ele>913.43</ele>
        <time>2017-10-12T11:23:51Z</time>
      </trkpt>
      <trkpt lat="42.99021" lon="-0.55794">
        <ele>909.63</ele>
        <time>2017-10-12T11:24:03Z</time>
      </trkpt>
      <trkpt lat="42.99021" lon="-0.5579">
        <ele>909.04</ele>
        <time>2017-10-12T11:24:57Z</time>
      </trkpt>
      <trkpt lat="42.99022" lon="-0.55788">
        <ele>908.86</ele>
        <time>2017-10-12T11:25:29Z</time>
      </trkpt>
      <trkpt lat="42.99023" lon="-0.55785">
        <ele>908.43</ele>
        <time>2017-10-12T11:26:13Z</time>
      </trkpt>
      <trkpt lat="42.99021" lon="-0.55786">
        <ele>907.59</ele>
        <time>2017-10-12T11:27:01Z</time>
      </trkpt>
      <trkpt lat="42.99029" lon="-0.55776">
        <ele>907.53</ele>
        <time>2017-10-12T11:27:39Z</time>
      </trkpt>
      <trkpt lat="42.99036" lon="-0.55771">
        <ele>907.55</ele>
        <time>2017-10-12T11:28:20Z</time>
      </trkpt>
      <trkpt lat="42.99035" lon="-0.55769">
        <ele>907.36</ele>
        <time>2017-10-12T11:29:02Z</time>
      </trkpt>
      <trkpt lat="42.99034" lon="-0.55773">
        <ele>907.01</ele>
        <time>2017-10-12T11:29:45Z</time>
      </trkpt>
      <trkpt lat="42.99031" lon="-0.5578">
        <ele>906.85</ele>
        <time>2017-10-12T11:30:31Z</time>
      </trkpt>
      <trkpt lat="42.99029" lon="-0.55783">
        <ele>906.78</ele>
        <time>2017-10-12T11:31:22Z</time>
      </trkpt>
      <trkpt lat="42.9903" lon="-0.55785">
        <ele>906.4</ele>
        <time>2017-10-12T11:32:13Z</time>
      </trkpt>
      <trkpt lat="42.99043" lon="-0.55759">
        <ele>904.52</ele>
        <time>2017-10-12T11:32:23Z</time>
      </trkpt>
      <trkpt lat="42.99054" lon="-0.55731">
        <ele>900.71</ele>
        <time>2017-10-12T11:32:29Z</time>
      </trkpt>
      <trkpt lat="42.99058" lon="-0.5572">
        <ele>897.08</ele>
        <time>2017-10-12T11:32:33Z</time>
      </trkpt>
      <trkpt lat="42.99061" lon="-0.55714">
        <ele>894.23</ele>
        <time>2017-10-12T11:32:39Z</time>
      </trkpt>
      <trkpt lat="42.99066" lon="-0.55709">
        <ele>892.52</ele>
        <time>2017-10-12T11:32:44Z</time>
      </trkpt>
      <trkpt lat="42.99071" lon="-0.55696">
        <ele>889.41</ele>
        <time>2017-10-12T11:32:50Z</time>
      </trkpt>
      <trkpt lat="42.99079" lon="-0.55664">
        <ele>885.47</ele>
        <time>2017-10-12T11:32:58Z</time>
      </trkpt>
      <trkpt lat="42.99085" lon="-0.55633">
        <ele>882.06</ele>
        <time>2017-10-12T11:33:05Z</time>
      </trkpt>
      <trkpt lat="42.99088" lon="-0.55611">
        <ele>878.89</ele>
        <time>2017-10-12T11:33:11Z</time>
      </trkpt>
      <trkpt lat="42.99089" lon="-0.55601">
        <ele>877.7</ele>
        <time>2017-10-12T11:33:14Z</time>
      </trkpt>
      <trkpt lat="42.99085" lon="-0.55566">
        <ele>873.98</ele>
        <time>2017-10-12T11:33:22Z</time>
      </trkpt>
      <trkpt lat="42.99079" lon="-0.55546">
        <ele>872.71</ele>
        <time>2017-10-12T11:33:27Z</time>
      </trkpt>
      <trkpt lat="42.99078" lon="-0.55536">
        <ele>872.51</ele>
        <time>2017-10-12T11:33:29Z</time>
      </trkpt>
      <trkpt lat="42.99079" lon="-0.55515">
        <ele>872.04</ele>
        <time>2017-10-12T11:33:33Z</time>
      </trkpt>
      <trkpt lat="42.99077" lon="-0.55476">
        <ele>870.4</ele>
        <time>2017-10-12T11:33:42Z</time>
      </trkpt>
      <trkpt lat="42.99076" lon="-0.55448">
        <ele>868.22</ele>
        <time>2017-10-12T11:33:48Z</time>
      </trkpt>
      <trkpt lat="42.99077" lon="-0.55431">
        <ele>864.3</ele>
        <time>2017-10-12T11:33:53Z</time>
      </trkpt>
      <trkpt lat="42.99076" lon="-0.55428">
        <ele>863.63</ele>
        <time>2017-10-12T11:33:54Z</time>
      </trkpt>
      <trkpt lat="42.99074" lon="-0.55418">
        <ele>861.17</ele>
        <time>2017-10-12T11:33:59Z</time>
      </trkpt>
      <trkpt lat="42.99073" lon="-0.55399">
        <ele>859.87</ele>
        <time>2017-10-12T11:34:03Z</time>
      </trkpt>
      <trkpt lat="42.99072" lon="-0.55389">
        <ele>859.31</ele>
        <time>2017-10-12T11:34:05Z</time>
      </trkpt>
      <trkpt lat="42.99068" lon="-0.55367">
        <ele>858.63</ele>
        <time>2017-10-12T11:34:09Z</time>
      </trkpt>
      <trkpt lat="42.99069" lon="-0.55325">
        <ele>859.59</ele>
        <time>2017-10-12T11:34:19Z</time>
      </trkpt>
      <trkpt lat="42.99069" lon="-0.55289">
        <ele>858.53</ele>
        <time>2017-10-12T11:34:28Z</time>
      </trkpt>
      <trkpt lat="42.99074" lon="-0.55231">
        <ele>858.6</ele>
        <time>2017-10-12T11:34:39Z</time>
      </trkpt>
      <trkpt lat="42.99074" lon="-0.55225">
        <ele>858.51</ele>
        <time>2017-10-12T11:34:40Z</time>
      </trkpt>
      <trkpt lat="42.9908" lon="-0.55179">
        <ele>855.99</ele>
        <time>2017-10-12T11:34:48Z</time>
      </trkpt>
      <trkpt lat="42.99081" lon="-0.55176">
        <ele>855.92</ele>
        <time>2017-10-12T11:34:50Z</time>
      </trkpt>
      <trkpt lat="42.99083" lon="-0.55142">
        <ele>856.15</ele>
        <time>2017-10-12T11:35:00Z</time>
      </trkpt>
      <trkpt lat="42.99084" lon="-0.55137">
        <ele>855.61</ele>
        <time>2017-10-12T11:35:02Z</time>
      </trkpt>
      <trkpt lat="42.9909" lon="-0.55129">
        <ele>854.59</ele>
        <time>2017-10-12T11:35:14Z</time>
      </trkpt>
      <trkpt lat="42.9909" lon="-0.55127">
        <ele>854.41</ele>
        <time>2017-10-12T11:35:28Z</time>
      </trkpt>
      <trkpt lat="42.9909" lon="-0.55098">
        <ele>853.75</ele>
        <time>2017-10-12T11:35:37Z</time>
      </trkpt>
      <trkpt lat="42.99092" lon="-0.55093">
        <ele>854.29</ele>
        <time>2017-10-12T11:35:39Z</time>
      </trkpt>
      <trkpt lat="42.99098" lon="-0.55087">
        <ele>854.81</ele>
        <time>2017-10-12T11:35:43Z</time>
      </trkpt>
      <trkpt lat="42.99105" lon="-0.55074">
        <ele>854.11</ele>
        <time>2017-10-12T11:35:47Z</time>
      </trkpt>
      <trkpt lat="42.99123" lon="-0.55042">
        <ele>851.94</ele>
        <time>2017-10-12T11:35:57Z</time>
      </trkpt>
      <trkpt lat="42.99131" lon="-0.55009">
        <ele>851.2</ele>
        <time>2017-10-12T11:36:04Z</time>
      </trkpt>
      <trkpt lat="42.99124" lon="-0.54983">
        <ele>849.43</ele>
        <time>2017-10-12T11:36:14Z</time>
      </trkpt>
      <trkpt lat="42.99127" lon="-0.54956">
        <ele>845.64</ele>
        <time>2017-10-12T11:36:22Z</time>
      </trkpt>
      <trkpt lat="42.99129" lon="-0.54937">
        <ele>842.12</ele>
        <time>2017-10-12T11:36:26Z</time>
      </trkpt>
      <trkpt lat="42.99126" lon="-0.5491">
        <ele>839.2</ele>
        <time>2017-10-12T11:36:32Z</time>
      </trkpt>
      <trkpt lat="42.99126" lon="-0.54892">
        <ele>837.99</ele>
        <time>2017-10-12T11:36:36Z</time>
      </trkpt>
      <trkpt lat="42.9913" lon="-0.54881">
        <ele>836.33</ele>
        <time>2017-10-12T11:36:42Z</time>
      </trkpt>
      <trkpt lat="42.9914" lon="-0.54865">
        <ele>832.48</ele>
        <time>2017-10-12T11:36:49Z</time>
      </trkpt>
      <trkpt lat="42.99143" lon="-0.54859">
        <ele>831.11</ele>
        <time>2017-10-12T11:36:51Z</time>
      </trkpt>
      <trkpt lat="42.9915" lon="-0.54848">
        <ele>827.03</ele>
        <time>2017-10-12T11:36:57Z</time>
      </trkpt>
      <trkpt lat="42.9915" lon="-0.54847">
        <ele>825.16</ele>
        <time>2017-10-12T11:37:01Z</time>
      </trkpt>
      <trkpt lat="42.99142" lon="-0.54845">
        <ele>823.01</ele>
        <time>2017-10-12T11:37:07Z</time>
      </trkpt>
      <trkpt lat="42.99137" lon="-0.5484">
        <ele>818.8</ele>
        <time>2017-10-12T11:37:13Z</time>
      </trkpt>
      <trkpt lat="42.99133" lon="-0.54834">
        <ele>816</ele>
        <time>2017-10-12T11:37:18Z</time>
      </trkpt>
      <trkpt lat="42.99135" lon="-0.54824">
        <ele>813.21</ele>
        <time>2017-10-12T11:37:24Z</time>
      </trkpt>
      <trkpt lat="42.9914" lon="-0.54806">
        <ele>811.25</ele>
        <time>2017-10-12T11:37:52Z</time>
      </trkpt>
      <trkpt lat="42.99143" lon="-0.54799">
        <ele>810.83</ele>
        <time>2017-10-12T11:37:57Z</time>
      </trkpt>
      <trkpt lat="42.99145" lon="-0.54778">
        <ele>807.76</ele>
        <time>2017-10-12T11:38:06Z</time>
      </trkpt>
      <trkpt lat="42.99147" lon="-0.54772">
        <ele>806.86</ele>
        <time>2017-10-12T11:38:09Z</time>
      </trkpt>
      <trkpt lat="42.99163" lon="-0.54751">
        <ele>806.06</ele>
        <time>2017-10-12T11:38:18Z</time>
      </trkpt>
      <trkpt lat="42.9918" lon="-0.54726">
        <ele>807.57</ele>
        <time>2017-10-12T11:38:28Z</time>
      </trkpt>
      <trkpt lat="42.99192" lon="-0.547">
        <ele>807.04</ele>
        <time>2017-10-12T11:38:38Z</time>
      </trkpt>
      <trkpt lat="42.99196" lon="-0.54686">
        <ele>806.67</ele>
        <time>2017-10-12T11:38:43Z</time>
      </trkpt>
      <trkpt lat="42.99203" lon="-0.54663">
        <ele>806.14</ele>
        <time>2017-10-12T11:38:54Z</time>
      </trkpt>
      <trkpt lat="42.99211" lon="-0.54656">
        <ele>806.09</ele>
        <time>2017-10-12T11:39:26Z</time>
      </trkpt>
      <trkpt lat="42.99213" lon="-0.54654">
        <ele>806.03</ele>
        <time>2017-10-12T11:39:35Z</time>
      </trkpt>
      <trkpt lat="42.99218" lon="-0.54629">
        <ele>803.6</ele>
        <time>2017-10-12T11:39:46Z</time>
      </trkpt>
      <trkpt lat="42.99217" lon="-0.54624">
        <ele>801.78</ele>
        <time>2017-10-12T11:39:49Z</time>
      </trkpt>
      <trkpt lat="42.99222" lon="-0.54612">
        <ele>799.08</ele>
        <time>2017-10-12T11:39:56Z</time>
      </trkpt>
      <trkpt lat="42.99222" lon="-0.54608">
        <ele>798.52</ele>
        <time>2017-10-12T11:39:58Z</time>
      </trkpt>
      <trkpt lat="42.99229" lon="-0.54581">
        <ele>795</ele>
        <time>2017-10-12T11:40:08Z</time>
      </trkpt>
      <trkpt lat="42.9923" lon="-0.54575">
        <ele>794.48</ele>
        <time>2017-10-12T11:40:10Z</time>
      </trkpt>
      <trkpt lat="42.9923" lon="-0.54552">
        <ele>791.66</ele>
        <time>2017-10-12T11:40:18Z</time>
      </trkpt>
      <trkpt lat="42.9923" lon="-0.54544">
        <ele>790.84</ele>
        <time>2017-10-12T11:40:21Z</time>
      </trkpt>
      <trkpt lat="42.9923" lon="-0.54528">
        <ele>787.91</ele>
        <time>2017-10-12T11:40:27Z</time>
      </trkpt>
      <trkpt lat="42.99225" lon="-0.54506">
        <ele>783.37</ele>
        <time>2017-10-12T11:40:35Z</time>
      </trkpt>
      <trkpt lat="42.99222" lon="-0.54501">
        <ele>781.66</ele>
        <time>2017-10-12T11:40:38Z</time>
      </trkpt>
      <trkpt lat="42.9922" lon="-0.54496">
        <ele>780.58</ele>
        <time>2017-10-12T11:40:40Z</time>
      </trkpt>
      <trkpt lat="42.99215" lon="-0.54486">
        <ele>778.05</ele>
        <time>2017-10-12T11:40:44Z</time>
      </trkpt>
      <trkpt lat="42.99214" lon="-0.54464">
        <ele>774.5</ele>
        <time>2017-10-12T11:40:49Z</time>
      </trkpt>
      <trkpt lat="42.99213" lon="-0.54457">
        <ele>772.78</ele>
        <time>2017-10-12T11:40:51Z</time>
      </trkpt>
      <trkpt lat="42.9921" lon="-0.5445">
        <ele>769.98</ele>
        <time>2017-10-12T11:40:54Z</time>
      </trkpt>
      <trkpt lat="42.99206" lon="-0.54439">
        <ele>765.83</ele>
        <time>2017-10-12T11:40:58Z</time>
      </trkpt>
      <trkpt lat="42.99198" lon="-0.54431">
        <ele>762.14</ele>
        <time>2017-10-12T11:41:03Z</time>
      </trkpt>
      <trkpt lat="42.99189" lon="-0.54418">
        <ele>759.06</ele>
        <time>2017-10-12T11:41:07Z</time>
      </trkpt>
      <trkpt lat="42.99182" lon="-0.54407">
        <ele>756.23</ele>
        <time>2017-10-12T11:41:11Z</time>
      </trkpt>
      <trkpt lat="42.99186" lon="-0.54399">
        <ele>752.5</ele>
        <time>2017-10-12T11:41:26Z</time>
      </trkpt>
      <trkpt lat="42.99189" lon="-0.54395">
        <ele>751.6</ele>
        <time>2017-10-12T11:41:29Z</time>
      </trkpt>
      <trkpt lat="42.99189" lon="-0.54389">
        <ele>750.14</ele>
        <time>2017-10-12T11:41:34Z</time>
      </trkpt>
      <trkpt lat="42.99199" lon="-0.54375">
        <ele>750.56</ele>
        <time>2017-10-12T11:41:45Z</time>
      </trkpt>
      <trkpt lat="42.99209" lon="-0.54371">
        <ele>751.52</ele>
        <time>2017-10-12T11:41:53Z</time>
      </trkpt>
      <trkpt lat="42.99219" lon="-0.54366">
        <ele>750.66</ele>
        <time>2017-10-12T11:41:57Z</time>
      </trkpt>
      <trkpt lat="42.99232" lon="-0.54371">
        <ele>749.62</ele>
        <time>2017-10-12T11:42:05Z</time>
      </trkpt>
      <trkpt lat="42.9925" lon="-0.54379">
        <ele>748.98</ele>
        <time>2017-10-12T11:42:12Z</time>
      </trkpt>
      <trkpt lat="42.99264" lon="-0.54381">
        <ele>747.95</ele>
        <time>2017-10-12T11:42:16Z</time>
      </trkpt>
      <trkpt lat="42.99298" lon="-0.54387">
        <ele>746.2</ele>
        <time>2017-10-12T11:42:26Z</time>
      </trkpt>
      <trkpt lat="42.99321" lon="-0.54398">
        <ele>743.08</ele>
        <time>2017-10-12T11:42:32Z</time>
      </trkpt>
      <trkpt lat="42.99343" lon="-0.54404">
        <ele>739.77</ele>
        <time>2017-10-12T11:42:39Z</time>
      </trkpt>
      <trkpt lat="42.99366" lon="-0.54417">
        <ele>737.04</ele>
        <time>2017-10-12T11:42:48Z</time>
      </trkpt>
      <trkpt lat="42.99395" lon="-0.54446">
        <ele>736.14</ele>
        <time>2017-10-12T11:42:59Z</time>
      </trkpt>
      <trkpt lat="42.99416" lon="-0.54461">
        <ele>734.65</ele>
        <time>2017-10-12T11:43:06Z</time>
      </trkpt>
      <trkpt lat="42.99446" lon="-0.54489">
        <ele>732.13</ele>
        <time>2017-10-12T11:43:15Z</time>
      </trkpt>
      <trkpt lat="42.99449" lon="-0.54501">
        <ele>731.43</ele>
        <time>2017-10-12T11:43:17Z</time>
      </trkpt>
      <trkpt lat="42.99455" lon="-0.54515">
        <ele>729.28</ele>
        <time>2017-10-12T11:43:20Z</time>
      </trkpt>
      <trkpt lat="42.99465" lon="-0.54529">
        <ele>726.31</ele>
        <time>2017-10-12T11:43:25Z</time>
      </trkpt>
      <trkpt lat="42.99483" lon="-0.54537">
        <ele>723.65</ele>
        <time>2017-10-12T11:43:30Z</time>
      </trkpt>
      <trkpt lat="42.99502" lon="-0.54529">
        <ele>719.98</ele>
        <time>2017-10-12T11:43:36Z</time>
      </trkpt>
      <trkpt lat="42.99517" lon="-0.54518">
        <ele>716.29</ele>
        <time>2017-10-12T11:43:41Z</time>
      </trkpt>
      <trkpt lat="42.9953" lon="-0.54506">
        <ele>713.12</ele>
        <time>2017-10-12T11:43:45Z</time>
      </trkpt>
      <trkpt lat="42.99532" lon="-0.54504">
        <ele>712.25</ele>
        <time>2017-10-12T11:43:46Z</time>
      </trkpt>
      <trkpt lat="42.99534" lon="-0.54499">
        <ele>710.62</ele>
        <time>2017-10-12T11:43:48Z</time>
      </trkpt>
      <trkpt lat="42.99551" lon="-0.54491">
        <ele>707.07</ele>
        <time>2017-10-12T11:43:54Z</time>
      </trkpt>
      <trkpt lat="42.99562" lon="-0.54489">
        <ele>704.69</ele>
        <time>2017-10-12T11:43:57Z</time>
      </trkpt>
      <trkpt lat="42.99573" lon="-0.54484">
        <ele>701.33</ele>
        <time>2017-10-12T11:44:03Z</time>
      </trkpt>
      <trkpt lat="42.99589" lon="-0.54476">
        <ele>698.03</ele>
        <time>2017-10-12T11:44:09Z</time>
      </trkpt>
      <trkpt lat="42.99598" lon="-0.54468">
        <ele>695.44</ele>
        <time>2017-10-12T11:44:13Z</time>
      </trkpt>
      <trkpt lat="42.99615" lon="-0.54453">
        <ele>691.33</ele>
        <time>2017-10-12T11:44:19Z</time>
      </trkpt>
      <trkpt lat="42.99625" lon="-0.5444">
        <ele>687.87</ele>
        <time>2017-10-12T11:44:24Z</time>
      </trkpt>
      <trkpt lat="42.9962" lon="-0.54415">
        <ele>684.39</ele>
        <time>2017-10-12T11:44:30Z</time>
      </trkpt>
      <trkpt lat="42.99621" lon="-0.544">
        <ele>682.49</ele>
        <time>2017-10-12T11:44:33Z</time>
      </trkpt>
      <trkpt lat="42.99621" lon="-0.5438">
        <ele>679.29</ele>
        <time>2017-10-12T11:44:37Z</time>
      </trkpt>
      <trkpt lat="42.99624" lon="-0.54369">
        <ele>678.53</ele>
        <time>2017-10-12T11:44:39Z</time>
      </trkpt>
      <trkpt lat="42.99628" lon="-0.54351">
        <ele>675.44</ele>
        <time>2017-10-12T11:44:43Z</time>
      </trkpt>
      <trkpt lat="42.99636" lon="-0.54333">
        <ele>671.29</ele>
        <time>2017-10-12T11:44:47Z</time>
      </trkpt>
      <trkpt lat="42.99638" lon="-0.54329">
        <ele>670.54</ele>
        <time>2017-10-12T11:44:48Z</time>
      </trkpt>
      <trkpt lat="42.99642" lon="-0.54305">
        <ele>666.4</ele>
        <time>2017-10-12T11:44:53Z</time>
      </trkpt>
      <trkpt lat="42.99654" lon="-0.54295">
        <ele>663.31</ele>
        <time>2017-10-12T11:44:57Z</time>
      </trkpt>
      <trkpt lat="42.99677" lon="-0.54267">
        <ele>660.79</ele>
        <time>2017-10-12T11:45:07Z</time>
      </trkpt>
      <trkpt lat="42.99681" lon="-0.54243">
        <ele>657.7</ele>
        <time>2017-10-12T11:45:14Z</time>
      </trkpt>
      <trkpt lat="42.99684" lon="-0.54241">
        <ele>656.41</ele>
        <time>2017-10-12T11:45:16Z</time>
      </trkpt>
      <trkpt lat="42.99688" lon="-0.54237">
        <ele>655.12</ele>
        <time>2017-10-12T11:45:18Z</time>
      </trkpt>
      <trkpt lat="42.99701" lon="-0.54223">
        <ele>650.91</ele>
        <time>2017-10-12T11:45:24Z</time>
      </trkpt>
      <trkpt lat="42.99716" lon="-0.54208">
        <ele>647.55</ele>
        <time>2017-10-12T11:45:30Z</time>
      </trkpt>
      <trkpt lat="42.99726" lon="-0.54195">
        <ele>645.82</ele>
        <time>2017-10-12T11:45:34Z</time>
      </trkpt>
      <trkpt lat="42.99743" lon="-0.54182">
        <ele>643.98</ele>
        <time>2017-10-12T11:45:38Z</time>
      </trkpt>
      <trkpt lat="42.99755" lon="-0.54155">
        <ele>642.51</ele>
        <time>2017-10-12T11:45:46Z</time>
      </trkpt>
      <trkpt lat="42.99756" lon="-0.5415">
        <ele>642.52</ele>
        <time>2017-10-12T11:45:51Z</time>
      </trkpt>
      <trkpt lat="42.99767" lon="-0.54128">
        <ele>642.02</ele>
        <time>2017-10-12T11:45:59Z</time>
      </trkpt>
      <trkpt lat="42.99776" lon="-0.54117">
        <ele>640.33</ele>
        <time>2017-10-12T11:46:07Z</time>
      </trkpt>
      <trkpt lat="42.99783" lon="-0.54116">
        <ele>639.57</ele>
        <time>2017-10-12T11:46:38Z</time>
      </trkpt>
      <trkpt lat="42.99784" lon="-0.54114">
        <ele>639.42</ele>
        <time>2017-10-12T11:47:11Z</time>
      </trkpt>
      <trkpt lat="42.99785" lon="-0.54114">
        <ele>639.48</ele>
        <time>2017-10-12T11:47:30Z</time>
      </trkpt>
      <trkpt lat="42.99786" lon="-0.54112">
        <ele>639.17</ele>
        <time>2017-10-12T11:48:15Z</time>
      </trkpt>
      <trkpt lat="42.99783" lon="-0.54113">
        <ele>639.03</ele>
        <time>2017-10-12T11:48:51Z</time>
      </trkpt>
      <trkpt lat="42.9978" lon="-0.54104">
        <ele>638.23</ele>
        <time>2017-10-12T11:49:29Z</time>
      </trkpt>
      <trkpt lat="42.99787" lon="-0.54081">
        <ele>638.6</ele>
        <time>2017-10-12T11:49:40Z</time>
      </trkpt>
      <trkpt lat="42.99798" lon="-0.54074">
        <ele>638.77</ele>
        <time>2017-10-12T11:49:45Z</time>
      </trkpt>
      <trkpt lat="42.99825" lon="-0.54077">
        <ele>640.07</ele>
        <time>2017-10-12T11:49:56Z</time>
      </trkpt>
      <trkpt lat="42.99841" lon="-0.54092">
        <ele>641.07</ele>
        <time>2017-10-12T11:50:05Z</time>
      </trkpt>
      <trkpt lat="42.99846" lon="-0.54099">
        <ele>640.94</ele>
        <time>2017-10-12T11:50:12Z</time>
      </trkpt>
      <trkpt lat="42.99852" lon="-0.54105">
        <ele>641.06</ele>
        <time>2017-10-12T11:50:24Z</time>
      </trkpt>
      <trkpt lat="42.99856" lon="-0.54109">
        <ele>640.92</ele>
        <time>2017-10-12T11:50:42Z</time>
      </trkpt>
      <trkpt lat="42.99858" lon="-0.54112">
        <ele>641.16</ele>
        <time>2017-10-12T11:51:04Z</time>
      </trkpt>
      <trkpt lat="42.99863" lon="-0.5412">
        <ele>641</ele>
        <time>2017-10-12T11:51:09Z</time>
      </trkpt>
      <trkpt lat="42.99854" lon="-0.54141">
        <ele>641.55</ele>
        <time>2017-10-12T11:51:18Z</time>
      </trkpt>
      <trkpt lat="42.99851" lon="-0.54151">
        <ele>642.46</ele>
        <time>2017-10-12T11:51:22Z</time>
      </trkpt>
      <trkpt lat="42.99855" lon="-0.54189">
        <ele>645</ele>
        <time>2017-10-12T11:51:36Z</time>
      </trkpt>
      <trkpt lat="42.9984" lon="-0.54223">
        <ele>647.48</ele>
        <time>2017-10-12T11:51:51Z</time>
      </trkpt>
      <trkpt lat="42.99835" lon="-0.54253">
        <ele>649.76</ele>
        <time>2017-10-12T11:52:03Z</time>
      </trkpt>
      <trkpt lat="42.99832" lon="-0.54293">
        <ele>651.91</ele>
        <time>2017-10-12T11:52:16Z</time>
      </trkpt>
      <trkpt lat="42.99824" lon="-0.5431">
        <ele>653.01</ele>
        <time>2017-10-12T11:52:23Z</time>
      </trkpt>
      <trkpt lat="42.99806" lon="-0.54335">
        <ele>653.98</ele>
        <time>2017-10-12T11:52:35Z</time>
      </trkpt>
      <trkpt lat="42.99792" lon="-0.54357">
        <ele>653.66</ele>
        <time>2017-10-12T11:52:40Z</time>
      </trkpt>
      <trkpt lat="42.99774" lon="-0.54404">
        <ele>651.64</ele>
        <time>2017-10-12T11:52:46Z</time>
      </trkpt>
      <trkpt lat="42.99779" lon="-0.54462">
        <ele>649.11</ele>
        <time>2017-10-12T11:52:54Z</time>
      </trkpt>
      <trkpt lat="42.99785" lon="-0.54464">
        <ele>648.98</ele>
        <time>2017-10-12T11:52:56Z</time>
      </trkpt>
      <trkpt lat="42.99804" lon="-0.54464">
        <ele>650.63</ele>
        <time>2017-10-12T11:53:05Z</time>
      </trkpt>
      <trkpt lat="42.99808" lon="-0.54481">
        <ele>651.34</ele>
        <time>2017-10-12T11:53:10Z</time>
      </trkpt>
      <trkpt lat="42.99808" lon="-0.54531">
        <ele>654.49</ele>
        <time>2017-10-12T11:53:28Z</time>
      </trkpt>
      <trkpt lat="42.99807" lon="-0.54572">
        <ele>657.2</ele>
        <time>2017-10-12T11:53:46Z</time>
      </trkpt>
      <trkpt lat="42.99802" lon="-0.54604">
        <ele>660.18</ele>
        <time>2017-10-12T11:54:00Z</time>
      </trkpt>
      <trkpt lat="42.9979" lon="-0.54628">
        <ele>663.27</ele>
        <time>2017-10-12T11:54:14Z</time>
      </trkpt>
      <trkpt lat="42.99781" lon="-0.54651">
        <ele>665.78</ele>
        <time>2017-10-12T11:54:28Z</time>
      </trkpt>
      <trkpt lat="42.99767" lon="-0.5468">
        <ele>666.91</ele>
        <time>2017-10-12T11:54:42Z</time>
      </trkpt>
      <trkpt lat="42.99763" lon="-0.54697">
        <ele>667.03</ele>
        <time>2017-10-12T11:54:47Z</time>
      </trkpt>
      <trkpt lat="42.99744" lon="-0.54744">
        <ele>665.43</ele>
        <time>2017-10-12T11:54:55Z</time>
      </trkpt>
      <trkpt lat="42.99739" lon="-0.54746">
        <ele>665.08</ele>
        <time>2017-10-12T11:54:56Z</time>
      </trkpt>
      <trkpt lat="42.99706" lon="-0.54766">
        <ele>665.65</ele>
        <time>2017-10-12T11:55:08Z</time>
      </trkpt>
      <trkpt lat="42.9968" lon="-0.54776">
        <ele>668.31</ele>
        <time>2017-10-12T11:55:21Z</time>
      </trkpt>
      <trkpt lat="42.99659" lon="-0.54785">
        <ele>671.47</ele>
        <time>2017-10-12T11:55:34Z</time>
      </trkpt>
      <trkpt lat="42.99648" lon="-0.54791">
        <ele>673.4</ele>
        <time>2017-10-12T11:55:43Z</time>
      </trkpt>
      <trkpt lat="42.99654" lon="-0.54793">
        <ele>674.27</ele>
        <time>2017-10-12T11:55:49Z</time>
      </trkpt>
      <trkpt lat="42.99673" lon="-0.54791">
        <ele>675.93</ele>
        <time>2017-10-12T11:56:03Z</time>
      </trkpt>
      <trkpt lat="42.9968" lon="-0.54787">
        <ele>676.81</ele>
        <time>2017-10-12T11:56:08Z</time>
      </trkpt>
      <trkpt lat="42.99703" lon="-0.54783">
        <ele>678.85</ele>
        <time>2017-10-12T11:56:24Z</time>
      </trkpt>
      <trkpt lat="42.99722" lon="-0.54779">
        <ele>681.46</ele>
        <time>2017-10-12T11:56:38Z</time>
      </trkpt>
      <trkpt lat="42.99745" lon="-0.54773">
        <ele>683.65</ele>
        <time>2017-10-12T11:56:53Z</time>
      </trkpt>
      <trkpt lat="42.99767" lon="-0.54773">
        <ele>686.16</ele>
        <time>2017-10-12T11:57:07Z</time>
      </trkpt>
      <trkpt lat="42.99789" lon="-0.54777">
        <ele>688.71</ele>
        <time>2017-10-12T11:57:21Z</time>
      </trkpt>
      <trkpt lat="42.99796" lon="-0.54778">
        <ele>689.57</ele>
        <time>2017-10-12T11:57:25Z</time>
      </trkpt>
      <trkpt lat="42.99808" lon="-0.54772">
        <ele>690.69</ele>
        <time>2017-10-12T11:57:32Z</time>
      </trkpt>
      <trkpt lat="42.99819" lon="-0.54755">
        <ele>692.35</ele>
        <time>2017-10-12T11:57:42Z</time>
      </trkpt>
      <trkpt lat="42.99822" lon="-0.54726">
        <ele>694.24</ele>
        <time>2017-10-12T11:57:55Z</time>
      </trkpt>
      <trkpt lat="42.99821" lon="-0.54699">
        <ele>695.92</ele>
        <time>2017-10-12T11:58:07Z</time>
      </trkpt>
      <trkpt lat="42.99831" lon="-0.54687">
        <ele>697.59</ele>
        <time>2017-10-12T11:58:16Z</time>
      </trkpt>
      <trkpt lat="42.99859" lon="-0.54685">
        <ele>700.63</ele>
        <time>2017-10-12T11:58:34Z</time>
      </trkpt>
      <trkpt lat="42.99882" lon="-0.54683">
        <ele>702.61</ele>
        <time>2017-10-12T11:58:48Z</time>
      </trkpt>
      <trkpt lat="42.99907" lon="-0.54674">
        <ele>705.48</ele>
        <time>2017-10-12T11:59:04Z</time>
      </trkpt>
      <trkpt lat="42.99929" lon="-0.54674">
        <ele>707.99</ele>
        <time>2017-10-12T11:59:19Z</time>
      </trkpt>
      <trkpt lat="42.99949" lon="-0.54691">
        <ele>709.63</ele>
        <time>2017-10-12T11:59:33Z</time>
      </trkpt>
      <trkpt lat="42.99972" lon="-0.54693">
        <ele>711.64</ele>
        <time>2017-10-12T11:59:47Z</time>
      </trkpt>
      <trkpt lat="42.99998" lon="-0.54688">
        <ele>714.6</ele>
        <time>2017-10-12T12:00:02Z</time>
      </trkpt>
      <trkpt lat="43.00019" lon="-0.54683">
        <ele>716.81</ele>
        <time>2017-10-12T12:00:16Z</time>
      </trkpt>
      <trkpt lat="43.00022" lon="-0.54683">
        <ele>717.05</ele>
        <time>2017-10-12T12:00:18Z</time>
      </trkpt>
      <trkpt lat="43.00046" lon="-0.54686">
        <ele>719.8</ele>
        <time>2017-10-12T12:00:33Z</time>
      </trkpt>
      <trkpt lat="43.00069" lon="-0.54689">
        <ele>722.61</ele>
        <time>2017-10-12T12:00:46Z</time>
      </trkpt>
      <trkpt lat="43.00083" lon="-0.54683">
        <ele>724.22</ele>
        <time>2017-10-12T12:00:55Z</time>
      </trkpt>
      <trkpt lat="43.00089" lon="-0.54673">
        <ele>725.48</ele>
        <time>2017-10-12T12:01:01Z</time>
      </trkpt>
      <trkpt lat="43.001" lon="-0.54662">
        <ele>726.89</ele>
        <time>2017-10-12T12:01:12Z</time>
      </trkpt>
      <trkpt lat="43.001" lon="-0.54664">
        <ele>727.01</ele>
        <time>2017-10-12T12:01:13Z</time>
      </trkpt>
      <trkpt lat="43.00103" lon="-0.5467">
        <ele>727.65</ele>
        <time>2017-10-12T12:01:16Z</time>
      </trkpt>
      <trkpt lat="43.00102" lon="-0.54681">
        <ele>728.99</ele>
        <time>2017-10-12T12:01:22Z</time>
      </trkpt>
      <trkpt lat="43.001" lon="-0.54692">
        <ele>730.06</ele>
        <time>2017-10-12T12:01:28Z</time>
      </trkpt>
      <trkpt lat="43.00102" lon="-0.54702">
        <ele>732.59</ele>
        <time>2017-10-12T12:01:41Z</time>
      </trkpt>
      <trkpt lat="43.00109" lon="-0.54702">
        <ele>733.02</ele>
        <time>2017-10-12T12:01:53Z</time>
      </trkpt>
      <trkpt lat="43.00115" lon="-0.54702">
        <ele>733.28</ele>
        <time>2017-10-12T12:01:58Z</time>
      </trkpt>
      <trkpt lat="43.00127" lon="-0.54683">
        <ele>735.82</ele>
        <time>2017-10-12T12:02:14Z</time>
      </trkpt>
      <trkpt lat="43.00127" lon="-0.54667">
        <ele>737.1</ele>
        <time>2017-10-12T12:02:24Z</time>
      </trkpt>
      <trkpt lat="43.00122" lon="-0.54658">
        <ele>738.29</ele>
        <time>2017-10-12T12:02:30Z</time>
      </trkpt>
      <trkpt lat="43.00116" lon="-0.54651">
        <ele>739.23</ele>
        <time>2017-10-12T12:02:35Z</time>
      </trkpt>
      <trkpt lat="43.00101" lon="-0.54626">
        <ele>741.85</ele>
        <time>2017-10-12T12:02:51Z</time>
      </trkpt>
      <trkpt lat="43.001" lon="-0.54622">
        <ele>742.13</ele>
        <time>2017-10-12T12:02:53Z</time>
      </trkpt>
      <trkpt lat="43.00096" lon="-0.54618">
        <ele>742.8</ele>
        <time>2017-10-12T12:02:57Z</time>
      </trkpt>
      <trkpt lat="43.00088" lon="-0.54608">
        <ele>743.62</ele>
        <time>2017-10-12T12:03:05Z</time>
      </trkpt>
      <trkpt lat="43.00069" lon="-0.54587">
        <ele>745.05</ele>
        <time>2017-10-12T12:03:23Z</time>
      </trkpt>
      <trkpt lat="43.00056" lon="-0.54564">
        <ele>748.22</ele>
        <time>2017-10-12T12:03:39Z</time>
      </trkpt>
      <trkpt lat="43.0005" lon="-0.54541">
        <ele>751.02</ele>
        <time>2017-10-12T12:03:52Z</time>
      </trkpt>
      <trkpt lat="43.00046" lon="-0.54511">
        <ele>754.1</ele>
        <time>2017-10-12T12:04:09Z</time>
      </trkpt>
      <trkpt lat="43.00042" lon="-0.54479">
        <ele>756.66</ele>
        <time>2017-10-12T12:04:25Z</time>
      </trkpt>
      <trkpt lat="43.00038" lon="-0.54452">
        <ele>759.48</ele>
        <time>2017-10-12T12:04:38Z</time>
      </trkpt>
      <trkpt lat="43.0005" lon="-0.54438">
        <ele>762.35</ele>
        <time>2017-10-12T12:04:51Z</time>
      </trkpt>
      <trkpt lat="43.00054" lon="-0.54447">
        <ele>763.66</ele>
        <time>2017-10-12T12:04:57Z</time>
      </trkpt>
      <trkpt lat="43.00061" lon="-0.54479">
        <ele>766.51</ele>
        <time>2017-10-12T12:05:15Z</time>
      </trkpt>
      <trkpt lat="43.00068" lon="-0.54502">
        <ele>769.52</ele>
        <time>2017-10-12T12:05:29Z</time>
      </trkpt>
      <trkpt lat="43.00077" lon="-0.54528">
        <ele>772.66</ele>
        <time>2017-10-12T12:05:45Z</time>
      </trkpt>
      <trkpt lat="43.00083" lon="-0.54536">
        <ele>773.91</ele>
        <time>2017-10-12T12:05:52Z</time>
      </trkpt>
      <trkpt lat="43.00085" lon="-0.54537">
        <ele>774.18</ele>
        <time>2017-10-12T12:05:54Z</time>
      </trkpt>
      <trkpt lat="43.00103" lon="-0.5454">
        <ele>777.52</ele>
        <time>2017-10-12T12:06:09Z</time>
      </trkpt>
      <trkpt lat="43.00118" lon="-0.54545">
        <ele>780.66</ele>
        <time>2017-10-12T12:06:21Z</time>
      </trkpt>
      <trkpt lat="43.00137" lon="-0.54552">
        <ele>783.8</ele>
        <time>2017-10-12T12:06:36Z</time>
      </trkpt>
      <trkpt lat="43.00144" lon="-0.54559">
        <ele>785.2</ele>
        <time>2017-10-12T12:06:43Z</time>
      </trkpt>
      <trkpt lat="43.00149" lon="-0.54563">
        <ele>786.23</ele>
        <time>2017-10-12T12:06:49Z</time>
      </trkpt>
      <trkpt lat="43.00154" lon="-0.54564">
        <ele>787.13</ele>
        <time>2017-10-12T12:06:54Z</time>
      </trkpt>
      <trkpt lat="43.00157" lon="-0.54562">
        <ele>787.86</ele>
        <time>2017-10-12T12:06:57Z</time>
      </trkpt>
      <trkpt lat="43.00162" lon="-0.54557">
        <ele>788.66</ele>
        <time>2017-10-12T12:07:02Z</time>
      </trkpt>
      <trkpt lat="43.00167" lon="-0.54558">
        <ele>789.28</ele>
        <time>2017-10-12T12:07:06Z</time>
      </trkpt>
      <trkpt lat="43.00185" lon="-0.54572">
        <ele>791.89</ele>
        <time>2017-10-12T12:07:22Z</time>
      </trkpt>
      <trkpt lat="43.002" lon="-0.54588">
        <ele>794.87</ele>
        <time>2017-10-12T12:07:39Z</time>
      </trkpt>
      <trkpt lat="43.00214" lon="-0.54604">
        <ele>797.56</ele>
        <time>2017-10-12T12:07:54Z</time>
      </trkpt>
      <trkpt lat="43.0023" lon="-0.54627">
        <ele>800.66</ele>
        <time>2017-10-12T12:08:12Z</time>
      </trkpt>
      <trkpt lat="43.00246" lon="-0.54654">
        <ele>803.55</ele>
        <time>2017-10-12T12:08:31Z</time>
      </trkpt>
      <trkpt lat="43.00255" lon="-0.54678">
        <ele>805.4</ele>
        <time>2017-10-12T12:08:45Z</time>
      </trkpt>
      <trkpt lat="43.00264" lon="-0.5469">
        <ele>807.04</ele>
        <time>2017-10-12T12:08:57Z</time>
      </trkpt>
      <trkpt lat="43.00274" lon="-0.54697">
        <ele>807.04</ele>
        <time>2017-10-12T12:09:24Z</time>
      </trkpt>
      <trkpt lat="43.00278" lon="-0.54716">
        <ele>806.58</ele>
        <time>2017-10-12T12:09:27Z</time>
      </trkpt>
      <trkpt lat="43.00293" lon="-0.54769">
        <ele>804.21</ele>
        <time>2017-10-12T12:09:34Z</time>
      </trkpt>
      <trkpt lat="43.00287" lon="-0.54805">
        <ele>803.06</ele>
        <time>2017-10-12T12:09:40Z</time>
      </trkpt>
      <trkpt lat="43.00258" lon="-0.54827">
        <ele>805.03</ele>
        <time>2017-10-12T12:09:52Z</time>
      </trkpt>
      <trkpt lat="43.00233" lon="-0.54836">
        <ele>808.16</ele>
        <time>2017-10-12T12:10:05Z</time>
      </trkpt>
      <trkpt lat="43.00208" lon="-0.5484">
        <ele>810.51</ele>
        <time>2017-10-12T12:10:20Z</time>
      </trkpt>
      <trkpt lat="43.00182" lon="-0.54845">
        <ele>812.53</ele>
        <time>2017-10-12T12:10:36Z</time>
      </trkpt>
      <trkpt lat="43.00164" lon="-0.54857">
        <ele>815.15</ele>
        <time>2017-10-12T12:10:50Z</time>
      </trkpt>
      <trkpt lat="43.00145" lon="-0.54868">
        <ele>818.22</ele>
        <time>2017-10-12T12:11:03Z</time>
      </trkpt>
      <trkpt lat="43.00128" lon="-0.54873">
        <ele>821.3</ele>
        <time>2017-10-12T12:11:15Z</time>
      </trkpt>
      <trkpt lat="43.00118" lon="-0.54878">
        <ele>823.34</ele>
        <time>2017-10-12T12:11:22Z</time>
      </trkpt>
      <trkpt lat="43.00112" lon="-0.54895">
        <ele>825.99</ele>
        <time>2017-10-12T12:11:34Z</time>
      </trkpt>
      <trkpt lat="43.0011" lon="-0.54903">
        <ele>826.87</ele>
        <time>2017-10-12T12:11:39Z</time>
      </trkpt>
      <trkpt lat="43.00108" lon="-0.54921">
        <ele>828.77</ele>
        <time>2017-10-12T12:11:52Z</time>
      </trkpt>
      <trkpt lat="43.00105" lon="-0.54929">
        <ele>829.6</ele>
        <time>2017-10-12T12:12:05Z</time>
      </trkpt>
      <trkpt lat="43.00095" lon="-0.54947">
        <ele>830.64</ele>
        <time>2017-10-12T12:12:16Z</time>
      </trkpt>
      <trkpt lat="43.00087" lon="-0.54957">
        <ele>831.08</ele>
        <time>2017-10-12T12:12:22Z</time>
      </trkpt>
      <trkpt lat="43.00072" lon="-0.54982">
        <ele>832.5</ele>
        <time>2017-10-12T12:12:35Z</time>
      </trkpt>
      <trkpt lat="43.00066" lon="-0.54994">
        <ele>832.44</ele>
        <time>2017-10-12T12:12:39Z</time>
      </trkpt>
      <trkpt lat="43.00067" lon="-0.55003">
        <ele>832.44</ele>
        <time>2017-10-12T12:12:42Z</time>
      </trkpt>
      <trkpt lat="43.00086" lon="-0.55038">
        <ele>832.24</ele>
        <time>2017-10-12T12:12:52Z</time>
      </trkpt>
      <trkpt lat="43.00086" lon="-0.55093">
        <ele>831.28</ele>
        <time>2017-10-12T12:13:01Z</time>
      </trkpt>
      <trkpt lat="43.0009" lon="-0.55119">
        <ele>830.5</ele>
        <time>2017-10-12T12:13:04Z</time>
      </trkpt>
      <trkpt lat="43.00123" lon="-0.55172">
        <ele>826.27</ele>
        <time>2017-10-12T12:13:11Z</time>
      </trkpt>
      <trkpt lat="43.00138" lon="-0.55177">
        <ele>825.26</ele>
        <time>2017-10-12T12:13:13Z</time>
      </trkpt>
      <trkpt lat="43.0017" lon="-0.55182">
        <ele>823.11</ele>
        <time>2017-10-12T12:13:18Z</time>
      </trkpt>
      <trkpt lat="43.00212" lon="-0.55161">
        <ele>820.41</ele>
        <time>2017-10-12T12:13:25Z</time>
      </trkpt>
      <trkpt lat="43.00247" lon="-0.55169">
        <ele>817.87</ele>
        <time>2017-10-12T12:13:31Z</time>
      </trkpt>
      <trkpt lat="43.00254" lon="-0.55167">
        <ele>817.52</ele>
        <time>2017-10-12T12:13:32Z</time>
      </trkpt>
      <trkpt lat="43.00295" lon="-0.55151">
        <ele>814.95</ele>
        <time>2017-10-12T12:13:39Z</time>
      </trkpt>
      <trkpt lat="43.00323" lon="-0.55148">
        <ele>816.34</ele>
        <time>2017-10-12T12:13:48Z</time>
      </trkpt>
      <trkpt lat="43.00343" lon="-0.55147">
        <ele>819.14</ele>
        <time>2017-10-12T12:13:56Z</time>
      </trkpt>
      <trkpt lat="43.00373" lon="-0.55149">
        <ele>820.48</ele>
        <time>2017-10-12T12:14:08Z</time>
      </trkpt>
      <trkpt lat="43.00401" lon="-0.55151">
        <ele>821.95</ele>
        <time>2017-10-12T12:14:18Z</time>
      </trkpt>
      <trkpt lat="43.00424" lon="-0.5515">
        <ele>822.21</ele>
        <time>2017-10-12T12:14:27Z</time>
      </trkpt>
      <trkpt lat="43.00446" lon="-0.55154">
        <ele>821.86</ele>
        <time>2017-10-12T12:14:33Z</time>
      </trkpt>
      <trkpt lat="43.00463" lon="-0.55169">
        <ele>820.81</ele>
        <time>2017-10-12T12:14:37Z</time>
      </trkpt>
      <trkpt lat="43.00474" lon="-0.55195">
        <ele>820.14</ele>
        <time>2017-10-12T12:14:41Z</time>
      </trkpt>
      <trkpt lat="43.0049" lon="-0.55252">
        <ele>818.28</ele>
        <time>2017-10-12T12:14:48Z</time>
      </trkpt>
      <trkpt lat="43.0048" lon="-0.55279">
        <ele>817.44</ele>
        <time>2017-10-12T12:14:53Z</time>
      </trkpt>
      <trkpt lat="43.00476" lon="-0.55283">
        <ele>817.94</ele>
        <time>2017-10-12T12:14:55Z</time>
      </trkpt>
      <trkpt lat="43.00457" lon="-0.55291">
        <ele>820.87</ele>
        <time>2017-10-12T12:15:04Z</time>
      </trkpt>
      <trkpt lat="43.00455" lon="-0.5529">
        <ele>821.15</ele>
        <time>2017-10-12T12:15:05Z</time>
      </trkpt>
      <trkpt lat="43.00433" lon="-0.55301">
        <ele>824.5</ele>
        <time>2017-10-12T12:15:17Z</time>
      </trkpt>
      <trkpt lat="43.00411" lon="-0.55324">
        <ele>827.25</ele>
        <time>2017-10-12T12:15:29Z</time>
      </trkpt>
      <trkpt lat="43.00402" lon="-0.55352">
        <ele>828.98</ele>
        <time>2017-10-12T12:15:40Z</time>
      </trkpt>
      <trkpt lat="43.00394" lon="-0.55386">
        <ele>829.96</ele>
        <time>2017-10-12T12:15:53Z</time>
      </trkpt>
      <trkpt lat="43.004" lon="-0.55414">
        <ele>831.16</ele>
        <time>2017-10-12T12:16:05Z</time>
      </trkpt>
      <trkpt lat="43.00411" lon="-0.55439">
        <ele>833.23</ele>
        <time>2017-10-12T12:16:17Z</time>
      </trkpt>
      <trkpt lat="43.00423" lon="-0.55467">
        <ele>836.44</ele>
        <time>2017-10-12T12:16:30Z</time>
      </trkpt>
      <trkpt lat="43.00427" lon="-0.55489">
        <ele>839.51</ele>
        <time>2017-10-12T12:16:40Z</time>
      </trkpt>
      <trkpt lat="43.0043" lon="-0.55516">
        <ele>841.7</ele>
        <time>2017-10-12T12:16:54Z</time>
      </trkpt>
      <trkpt lat="43.00434" lon="-0.55545">
        <ele>842.02</ele>
        <time>2017-10-12T12:17:07Z</time>
      </trkpt>
      <trkpt lat="43.00443" lon="-0.55583">
        <ele>843</ele>
        <time>2017-10-12T12:17:20Z</time>
      </trkpt>
      <trkpt lat="43.00459" lon="-0.55631">
        <ele>843.28</ele>
        <time>2017-10-12T12:17:33Z</time>
      </trkpt>
      <trkpt lat="43.00477" lon="-0.55681">
        <ele>844.15</ele>
        <time>2017-10-12T12:17:46Z</time>
      </trkpt>
      <trkpt lat="43.00491" lon="-0.5572">
        <ele>843.53</ele>
        <time>2017-10-12T12:17:54Z</time>
      </trkpt>
      <trkpt lat="43.00472" lon="-0.55743">
        <ele>844.89</ele>
        <time>2017-10-12T12:18:03Z</time>
      </trkpt>
      <trkpt lat="43.00468" lon="-0.55745">
        <ele>845.5</ele>
        <time>2017-10-12T12:18:05Z</time>
      </trkpt>
      <trkpt lat="43.00449" lon="-0.55754">
        <ele>848.85</ele>
        <time>2017-10-12T12:18:16Z</time>
      </trkpt>
      <trkpt lat="43.00426" lon="-0.55761">
        <ele>851.19</ele>
        <time>2017-10-12T12:18:29Z</time>
      </trkpt>
      <trkpt lat="43.00415" lon="-0.55763">
        <ele>852.11</ele>
        <time>2017-10-12T12:18:35Z</time>
      </trkpt>
      <trkpt lat="43.00403" lon="-0.55761">
        <ele>853.54</ele>
        <time>2017-10-12T12:18:42Z</time>
      </trkpt>
      <trkpt lat="43.00383" lon="-0.55756">
        <ele>856.83</ele>
        <time>2017-10-12T12:18:55Z</time>
      </trkpt>
      <trkpt lat="43.00369" lon="-0.55773">
        <ele>859.71</ele>
        <time>2017-10-12T12:19:08Z</time>
      </trkpt>
      <trkpt lat="43.00365" lon="-0.55779">
        <ele>860.48</ele>
        <time>2017-10-12T12:19:12Z</time>
      </trkpt>
      <trkpt lat="43.00364" lon="-0.55783">
        <ele>860.84</ele>
        <time>2017-10-12T12:19:14Z</time>
      </trkpt>
      <trkpt lat="43.00345" lon="-0.55799">
        <ele>863.62</ele>
        <time>2017-10-12T12:19:29Z</time>
      </trkpt>
      <trkpt lat="43.00335" lon="-0.55802">
        <ele>864.3</ele>
        <time>2017-10-12T12:19:36Z</time>
      </trkpt>
      <trkpt lat="43.00333" lon="-0.55809">
        <ele>865.16</ele>
        <time>2017-10-12T12:19:43Z</time>
      </trkpt>
      <trkpt lat="43.00337" lon="-0.55811">
        <ele>866.26</ele>
        <time>2017-10-12T12:19:49Z</time>
      </trkpt>
      <trkpt lat="43.00341" lon="-0.55808">
        <ele>866.72</ele>
        <time>2017-10-12T12:19:53Z</time>
      </trkpt>
      <trkpt lat="43.00356" lon="-0.55802">
        <ele>868.29</ele>
        <time>2017-10-12T12:20:03Z</time>
      </trkpt>
      <trkpt lat="43.00379" lon="-0.55792">
        <ele>870.96</ele>
        <time>2017-10-12T12:20:18Z</time>
      </trkpt>
      <trkpt lat="43.00382" lon="-0.5579">
        <ele>871.19</ele>
        <time>2017-10-12T12:20:20Z</time>
      </trkpt>
      <trkpt lat="43.00391" lon="-0.5579">
        <ele>871.71</ele>
        <time>2017-10-12T12:20:26Z</time>
      </trkpt>
      <trkpt lat="43.00384" lon="-0.558">
        <ele>873.26</ele>
        <time>2017-10-12T12:20:35Z</time>
      </trkpt>
      <trkpt lat="43.0038" lon="-0.55801">
        <ele>873.81</ele>
        <time>2017-10-12T12:20:38Z</time>
      </trkpt>
      <trkpt lat="43.00361" lon="-0.55813">
        <ele>876.14</ele>
        <time>2017-10-12T12:20:52Z</time>
      </trkpt>
      <trkpt lat="43.00346" lon="-0.55827">
        <ele>877.92</ele>
        <time>2017-10-12T12:21:05Z</time>
      </trkpt>
      <trkpt lat="43.00326" lon="-0.5583">
        <ele>880.33</ele>
        <time>2017-10-12T12:21:19Z</time>
      </trkpt>
      <trkpt lat="43.00313" lon="-0.55824">
        <ele>882.17</ele>
        <time>2017-10-12T12:21:28Z</time>
      </trkpt>
      <trkpt lat="43.00307" lon="-0.55824">
        <ele>882.91</ele>
        <time>2017-10-12T12:21:32Z</time>
      </trkpt>
      <trkpt lat="43.00305" lon="-0.55826">
        <ele>883.29</ele>
        <time>2017-10-12T12:21:34Z</time>
      </trkpt>
      <trkpt lat="43.00302" lon="-0.55833">
        <ele>885.34</ele>
        <time>2017-10-12T12:21:48Z</time>
      </trkpt>
      <trkpt lat="43.00297" lon="-0.55832">
        <ele>885.72</ele>
        <time>2017-10-12T12:22:22Z</time>
      </trkpt>
      <trkpt lat="43.00299" lon="-0.55832">
        <ele>884.86</ele>
        <time>2017-10-12T12:22:56Z</time>
      </trkpt>
      <trkpt lat="43.00299" lon="-0.55831">
        <ele>885.66</ele>
        <time>2017-10-12T12:24:08Z</time>
      </trkpt>
      <trkpt lat="43.00297" lon="-0.55833">
        <ele>886.26</ele>
        <time>2017-10-12T12:24:34Z</time>
      </trkpt>
      <trkpt lat="43.00299" lon="-0.55847">
        <ele>885.85</ele>
        <time>2017-10-12T12:24:39Z</time>
      </trkpt>
      <trkpt lat="43.00302" lon="-0.55854">
        <ele>885.2</ele>
        <time>2017-10-12T12:24:41Z</time>
      </trkpt>
      <trkpt lat="43.00305" lon="-0.55856">
        <ele>883.68</ele>
        <time>2017-10-12T12:24:44Z</time>
      </trkpt>
      <trkpt lat="43.00308" lon="-0.55864">
        <ele>882.32</ele>
        <time>2017-10-12T12:25:01Z</time>
      </trkpt>
      <trkpt lat="43.00313" lon="-0.55871">
        <ele>882.66</ele>
        <time>2017-10-12T12:25:14Z</time>
      </trkpt>
      <trkpt lat="43.00314" lon="-0.55877">
        <ele>882.59</ele>
        <time>2017-10-12T12:25:17Z</time>
      </trkpt>
      <trkpt lat="43.0031" lon="-0.55892">
        <ele>882.34</ele>
        <time>2017-10-12T12:25:20Z</time>
      </trkpt>
      <trkpt lat="43.00311" lon="-0.55932">
        <ele>879.97</ele>
        <time>2017-10-12T12:25:29Z</time>
      </trkpt>
      <trkpt lat="43.00301" lon="-0.55976">
        <ele>878.09</ele>
        <time>2017-10-12T12:25:41Z</time>
      </trkpt>
      <trkpt lat="43.00297" lon="-0.5598">
        <ele>877.17</ele>
        <time>2017-10-12T12:25:58Z</time>
      </trkpt>
      <trkpt lat="43.00296" lon="-0.55983">
        <ele>877.3</ele>
        <time>2017-10-12T12:26:04Z</time>
      </trkpt>
      <trkpt lat="43.00296" lon="-0.55998">
        <ele>877.01</ele>
        <time>2017-10-12T12:26:08Z</time>
      </trkpt>
      <trkpt lat="43.00303" lon="-0.56012">
        <ele>876.18</ele>
        <time>2017-10-12T12:26:12Z</time>
      </trkpt>
      <trkpt lat="43.00323" lon="-0.56056">
        <ele>874.57</ele>
        <time>2017-10-12T12:26:22Z</time>
      </trkpt>
      <trkpt lat="43.00327" lon="-0.56078">
        <ele>873.89</ele>
        <time>2017-10-12T12:26:29Z</time>
      </trkpt>
      <trkpt lat="43.00326" lon="-0.56104">
        <ele>874.22</ele>
        <time>2017-10-12T12:26:39Z</time>
      </trkpt>
      <trkpt lat="43.00322" lon="-0.56133">
        <ele>875.89</ele>
        <time>2017-10-12T12:26:50Z</time>
      </trkpt>
      <trkpt lat="43.00323" lon="-0.56141">
        <ele>875.66</ele>
        <time>2017-10-12T12:26:53Z</time>
      </trkpt>
      <trkpt lat="43.00318" lon="-0.56152">
        <ele>875.34</ele>
        <time>2017-10-12T12:26:58Z</time>
      </trkpt>
      <trkpt lat="43.00312" lon="-0.56155">
        <ele>875.3</ele>
        <time>2017-10-12T12:27:07Z</time>
      </trkpt>
      <trkpt lat="43.00308" lon="-0.56156">
        <ele>877.9</ele>
        <time>2017-10-12T12:27:25Z</time>
      </trkpt>
      <trkpt lat="43.0031" lon="-0.56165">
        <ele>879.18</ele>
        <time>2017-10-12T12:27:52Z</time>
      </trkpt>
      <trkpt lat="43.00303" lon="-0.56166">
        <ele>880.73</ele>
        <time>2017-10-12T12:28:18Z</time>
      </trkpt>
      <trkpt lat="43.00299" lon="-0.56164">
        <ele>880.71</ele>
        <time>2017-10-12T12:28:28Z</time>
      </trkpt>
      <trkpt lat="43.00283" lon="-0.56166">
        <ele>883.54</ele>
        <time>2017-10-12T12:28:44Z</time>
      </trkpt>
      <trkpt lat="43.0027" lon="-0.56173">
        <ele>886.41</ele>
        <time>2017-10-12T12:28:59Z</time>
      </trkpt>
      <trkpt lat="43.00268" lon="-0.5618">
        <ele>887.77</ele>
        <time>2017-10-12T12:29:12Z</time>
      </trkpt>
      <trkpt lat="43.00264" lon="-0.56193">
        <ele>889.08</ele>
        <time>2017-10-12T12:29:27Z</time>
      </trkpt>
      <trkpt lat="43.00264" lon="-0.56199">
        <ele>889.72</ele>
        <time>2017-10-12T12:29:38Z</time>
      </trkpt>
      <trkpt lat="43.00268" lon="-0.56212">
        <ele>890.45</ele>
        <time>2017-10-12T12:29:47Z</time>
      </trkpt>
      <trkpt lat="43.00268" lon="-0.56232">
        <ele>893.05</ele>
        <time>2017-10-12T12:30:03Z</time>
      </trkpt>
      <trkpt lat="43.00272" lon="-0.56236">
        <ele>896.09</ele>
        <time>2017-10-12T12:30:20Z</time>
      </trkpt>
      <trkpt lat="43.00276" lon="-0.56244">
        <ele>898.96</ele>
        <time>2017-10-12T12:30:38Z</time>
      </trkpt>
      <trkpt lat="43.00275" lon="-0.5626">
        <ele>902.03</ele>
        <time>2017-10-12T12:30:56Z</time>
      </trkpt>
      <trkpt lat="43.00278" lon="-0.56274">
        <ele>905.17</ele>
        <time>2017-10-12T12:31:15Z</time>
      </trkpt>
      <trkpt lat="43.0028" lon="-0.56287">
        <ele>908.29</ele>
        <time>2017-10-12T12:31:34Z</time>
      </trkpt>
      <trkpt lat="43.00276" lon="-0.56302">
        <ele>909.61</ele>
        <time>2017-10-12T12:31:50Z</time>
      </trkpt>
      <trkpt lat="43.00271" lon="-0.56319">
        <ele>909.56</ele>
        <time>2017-10-12T12:31:56Z</time>
      </trkpt>
      <trkpt lat="43.00264" lon="-0.56331">
        <ele>909.97</ele>
        <time>2017-10-12T12:32:01Z</time>
      </trkpt>
      <trkpt lat="43.00242" lon="-0.56337">
        <ele>907.15</ele>
        <time>2017-10-12T12:32:12Z</time>
      </trkpt>
      <trkpt lat="43.00229" lon="-0.5634">
        <ele>905.29</ele>
        <time>2017-10-12T12:32:18Z</time>
      </trkpt>
      <trkpt lat="43.00221" lon="-0.5634">
        <ele>905.13</ele>
        <time>2017-10-12T12:32:21Z</time>
      </trkpt>
      <trkpt lat="43.00198" lon="-0.56336">
        <ele>908.05</ele>
        <time>2017-10-12T12:32:33Z</time>
      </trkpt>
      <trkpt lat="43.00183" lon="-0.56325">
        <ele>908.71</ele>
        <time>2017-10-12T12:32:42Z</time>
      </trkpt>
      <trkpt lat="43.00178" lon="-0.56319">
        <ele>909.35</ele>
        <time>2017-10-12T12:32:46Z</time>
      </trkpt>
      <trkpt lat="43.00173" lon="-0.563">
        <ele>910.11</ele>
        <time>2017-10-12T12:32:56Z</time>
      </trkpt>
      <trkpt lat="43.00169" lon="-0.5629">
        <ele>910.78</ele>
        <time>2017-10-12T12:33:12Z</time>
      </trkpt>
      <trkpt lat="43.00165" lon="-0.56287">
        <ele>910.54</ele>
        <time>2017-10-12T12:33:16Z</time>
      </trkpt>
      <trkpt lat="43.00145" lon="-0.56278">
        <ele>907.11</ele>
        <time>2017-10-12T12:33:25Z</time>
      </trkpt>
      <trkpt lat="43.0013" lon="-0.56282">
        <ele>904.06</ele>
        <time>2017-10-12T12:33:31Z</time>
      </trkpt>
      <trkpt lat="43.00105" lon="-0.56304">
        <ele>901.41</ele>
        <time>2017-10-12T12:33:43Z</time>
      </trkpt>
      <trkpt lat="43.00094" lon="-0.56326">
        <ele>902.9</ele>
        <time>2017-10-12T12:33:52Z</time>
      </trkpt>
      <trkpt lat="43.00094" lon="-0.56361">
        <ele>905.34</ele>
        <time>2017-10-12T12:34:02Z</time>
      </trkpt>
      <trkpt lat="43.00093" lon="-0.56367">
        <ele>905.71</ele>
        <time>2017-10-12T12:34:05Z</time>
      </trkpt>
      <trkpt lat="43.00096" lon="-0.56378">
        <ele>906.43</ele>
        <time>2017-10-12T12:34:11Z</time>
      </trkpt>
      <trkpt lat="43.00105" lon="-0.56383">
        <ele>906.67</ele>
        <time>2017-10-12T12:34:17Z</time>
      </trkpt>
      <trkpt lat="43.00114" lon="-0.56391">
        <ele>908.04</ele>
        <time>2017-10-12T12:34:25Z</time>
      </trkpt>
      <trkpt lat="43.0012" lon="-0.56405">
        <ele>909.07</ele>
        <time>2017-10-12T12:34:34Z</time>
      </trkpt>
      <trkpt lat="43.00122" lon="-0.56433">
        <ele>910.42</ele>
        <time>2017-10-12T12:34:49Z</time>
      </trkpt>
      <trkpt lat="43.00123" lon="-0.56439">
        <ele>910.39</ele>
        <time>2017-10-12T12:34:52Z</time>
      </trkpt>
      <trkpt lat="43.00114" lon="-0.56469">
        <ele>912.43</ele>
        <time>2017-10-12T12:35:09Z</time>
      </trkpt>
      <trkpt lat="43.00108" lon="-0.56474">
        <ele>912.78</ele>
        <time>2017-10-12T12:35:29Z</time>
      </trkpt>
      <trkpt lat="43.0011" lon="-0.56477">
        <ele>913.31</ele>
        <time>2017-10-12T12:35:46Z</time>
      </trkpt>
      <trkpt lat="43.00108" lon="-0.56476">
        <ele>912.54</ele>
        <time>2017-10-12T12:36:07Z</time>
      </trkpt>
      <trkpt lat="43.00109" lon="-0.56485">
        <ele>912.46</ele>
        <time>2017-10-12T12:36:34Z</time>
      </trkpt>
      <trkpt lat="43.00104" lon="-0.56491">
        <ele>912.65</ele>
        <time>2017-10-12T12:36:57Z</time>
      </trkpt>
      <trkpt lat="43.00102" lon="-0.5649">
        <ele>912.61</ele>
        <time>2017-10-12T12:36:58Z</time>
      </trkpt>
      <trkpt lat="43.0009" lon="-0.56493">
        <ele>909.39</ele>
        <time>2017-10-12T12:37:12Z</time>
      </trkpt>
      <trkpt lat="43.00088" lon="-0.56496">
        <ele>908.83</ele>
        <time>2017-10-12T12:37:14Z</time>
      </trkpt>
      <trkpt lat="43.00079" lon="-0.56498">
        <ele>906.49</ele>
        <time>2017-10-12T12:37:24Z</time>
      </trkpt>
      <trkpt lat="43.00053" lon="-0.56496">
        <ele>906.08</ele>
        <time>2017-10-12T12:37:33Z</time>
      </trkpt>
      <trkpt lat="43.00041" lon="-0.56506">
        <ele>907.44</ele>
        <time>2017-10-12T12:37:41Z</time>
      </trkpt>
      <trkpt lat="43.00029" lon="-0.56515">
        <ele>908.37</ele>
        <time>2017-10-12T12:37:48Z</time>
      </trkpt>
      <trkpt lat="43.00024" lon="-0.56519">
        <ele>908.61</ele>
        <time>2017-10-12T12:37:51Z</time>
      </trkpt>
      <trkpt lat="43.0001" lon="-0.56532">
        <ele>910.53</ele>
        <time>2017-10-12T12:38:05Z</time>
      </trkpt>
      <trkpt lat="43.00004" lon="-0.56536">
        <ele>911.03</ele>
        <time>2017-10-12T12:38:12Z</time>
      </trkpt>
      <trkpt lat="42.99991" lon="-0.56539">
        <ele>909.79</ele>
        <time>2017-10-12T12:38:22Z</time>
      </trkpt>
      <trkpt lat="42.99992" lon="-0.56539">
        <ele>909.23</ele>
        <time>2017-10-12T12:38:51Z</time>
      </trkpt>
      <trkpt lat="42.99992" lon="-0.56539">
        <ele>909.52</ele>
        <time>2017-10-12T12:40:15Z</time>
      </trkpt>
      <trkpt lat="42.99991" lon="-0.56537">
        <ele>909.92</ele>
        <time>2017-10-12T12:41:22Z</time>
      </trkpt>
      <trkpt lat="42.9999" lon="-0.5654">
        <ele>910.05</ele>
        <time>2017-10-12T12:42:18Z</time>
      </trkpt>
      <trkpt lat="42.99989" lon="-0.56538">
        <ele>910.31</ele>
        <time>2017-10-12T12:43:12Z</time>
      </trkpt>
      <trkpt lat="42.99989" lon="-0.56536">
        <ele>910.42</ele>
        <time>2017-10-12T12:44:10Z</time>
      </trkpt>
      <trkpt lat="42.9999" lon="-0.56536">
        <ele>909.88</ele>
        <time>2017-10-12T12:45:14Z</time>
      </trkpt>
      <trkpt lat="42.9999" lon="-0.56538">
        <ele>910.08</ele>
        <time>2017-10-12T12:46:16Z</time>
      </trkpt>
      <trkpt lat="42.99992" lon="-0.56543">
        <ele>910.26</ele>
        <time>2017-10-12T12:47:12Z</time>
      </trkpt>
      <trkpt lat="42.99991" lon="-0.5654">
        <ele>910.33</ele>
        <time>2017-10-12T12:48:17Z</time>
      </trkpt>
      <trkpt lat="42.9999" lon="-0.56538">
        <ele>910.89</ele>
        <time>2017-10-12T12:49:13Z</time>
      </trkpt>
      <trkpt lat="42.9999" lon="-0.5654">
        <ele>911.05</ele>
        <time>2017-10-12T12:49:39Z</time>
      </trkpt>
      <trkpt lat="42.99987" lon="-0.56543">
        <ele>910.8</ele>
        <time>2017-10-12T12:50:04Z</time>
      </trkpt>
      <trkpt lat="42.99986" lon="-0.5655">
        <ele>910.68</ele>
        <time>2017-10-12T12:50:07Z</time>
      </trkpt>
      <trkpt lat="42.99987" lon="-0.5656">
        <ele>909.81</ele>
        <time>2017-10-12T12:50:12Z</time>
      </trkpt>
      <trkpt lat="42.99989" lon="-0.56567">
        <ele>909.09</ele>
        <time>2017-10-12T12:50:16Z</time>
      </trkpt>
      <trkpt lat="43.00002" lon="-0.56587">
        <ele>906.29</ele>
        <time>2017-10-12T12:50:23Z</time>
      </trkpt>
      <trkpt lat="43.00006" lon="-0.56592">
        <ele>905.37</ele>
        <time>2017-10-12T12:50:25Z</time>
      </trkpt>
      <trkpt lat="43.0001" lon="-0.56594">
        <ele>904.48</ele>
        <time>2017-10-12T12:50:30Z</time>
      </trkpt>
      <trkpt lat="43.0002" lon="-0.5661">
        <ele>903.92</ele>
        <time>2017-10-12T12:50:35Z</time>
      </trkpt>
      <trkpt lat="43.00044" lon="-0.56627">
        <ele>904.03</ele>
        <time>2017-10-12T12:50:46Z</time>
      </trkpt>
      <trkpt lat="43.00048" lon="-0.56637">
        <ele>904.83</ele>
        <time>2017-10-12T12:50:51Z</time>
      </trkpt>
      <trkpt lat="43.00059" lon="-0.56665">
        <ele>905.85</ele>
        <time>2017-10-12T12:51:05Z</time>
      </trkpt>
      <trkpt lat="43.00072" lon="-0.56678">
        <ele>905.06</ele>
        <time>2017-10-12T12:51:11Z</time>
      </trkpt>
      <trkpt lat="43.00081" lon="-0.56708">
        <ele>904.42</ele>
        <time>2017-10-12T12:51:22Z</time>
      </trkpt>
      <trkpt lat="43.00081" lon="-0.5671">
        <ele>904.58</ele>
        <time>2017-10-12T12:51:23Z</time>
      </trkpt>
      <trkpt lat="43.0008" lon="-0.56735">
        <ele>906</ele>
        <time>2017-10-12T12:51:33Z</time>
      </trkpt>
      <trkpt lat="43.00075" lon="-0.5676">
        <ele>906.13</ele>
        <time>2017-10-12T12:51:42Z</time>
      </trkpt>
      <trkpt lat="43.00062" lon="-0.56782">
        <ele>904.69</ele>
        <time>2017-10-12T12:51:50Z</time>
      </trkpt>
      <trkpt lat="43.00064" lon="-0.56793">
        <ele>903.84</ele>
        <time>2017-10-12T12:51:54Z</time>
      </trkpt>
      <trkpt lat="43.00061" lon="-0.56806">
        <ele>901.7</ele>
        <time>2017-10-12T12:52:07Z</time>
      </trkpt>
      <trkpt lat="43.0006" lon="-0.5681">
        <ele>901.13</ele>
        <time>2017-10-12T12:52:12Z</time>
      </trkpt>
      <trkpt lat="43.00061" lon="-0.56822">
        <ele>900.71</ele>
        <time>2017-10-12T12:52:17Z</time>
      </trkpt>
      <trkpt lat="43.0005" lon="-0.56849">
        <ele>900.22</ele>
        <time>2017-10-12T12:52:27Z</time>
      </trkpt>
      <trkpt lat="43.00024" lon="-0.56868">
        <ele>898.12</ele>
        <time>2017-10-12T12:52:37Z</time>
      </trkpt>
      <trkpt lat="43.00024" lon="-0.5691">
        <ele>894.99</ele>
        <time>2017-10-12T12:52:46Z</time>
      </trkpt>
      <trkpt lat="43.00025" lon="-0.56919">
        <ele>893.97</ele>
        <time>2017-10-12T12:52:48Z</time>
      </trkpt>
      <trkpt lat="43.00023" lon="-0.56931">
        <ele>892.88</ele>
        <time>2017-10-12T12:52:50Z</time>
      </trkpt>
      <trkpt lat="43.00006" lon="-0.56965">
        <ele>889.15</ele>
        <time>2017-10-12T12:52:56Z</time>
      </trkpt>
      <trkpt lat="43" lon="-0.57001">
        <ele>885.23</ele>
        <time>2017-10-12T12:53:06Z</time>
      </trkpt>
      <trkpt lat="42.99996" lon="-0.57023">
        <ele>881.73</ele>
        <time>2017-10-12T12:53:13Z</time>
      </trkpt>
      <trkpt lat="42.99996" lon="-0.57038">
        <ele>878.41</ele>
        <time>2017-10-12T12:53:18Z</time>
      </trkpt>
      <trkpt lat="42.99995" lon="-0.57047">
        <ele>875.89</ele>
        <time>2017-10-12T12:53:22Z</time>
      </trkpt>
      <trkpt lat="42.99994" lon="-0.57052">
        <ele>874.7</ele>
        <time>2017-10-12T12:53:24Z</time>
      </trkpt>
      <trkpt lat="42.99992" lon="-0.57057">
        <ele>871.02</ele>
        <time>2017-10-12T12:53:31Z</time>
      </trkpt>
      <trkpt lat="42.99994" lon="-0.57067">
        <ele>867.99</ele>
        <time>2017-10-12T12:53:42Z</time>
      </trkpt>
      <trkpt lat="42.99992" lon="-0.5708">
        <ele>864.78</ele>
        <time>2017-10-12T12:53:52Z</time>
      </trkpt>
      <trkpt lat="42.99991" lon="-0.57086">
        <ele>863.11</ele>
        <time>2017-10-12T12:53:59Z</time>
      </trkpt>
      <trkpt lat="42.99986" lon="-0.57109">
        <ele>860.29</ele>
        <time>2017-10-12T12:54:07Z</time>
      </trkpt>
      <trkpt lat="42.99983" lon="-0.57127">
        <ele>856.24</ele>
        <time>2017-10-12T12:54:13Z</time>
      </trkpt>
      <trkpt lat="42.99981" lon="-0.57135">
        <ele>854.66</ele>
        <time>2017-10-12T12:54:17Z</time>
      </trkpt>
      <trkpt lat="42.99981" lon="-0.57138">
        <ele>853.34</ele>
        <time>2017-10-12T12:54:20Z</time>
      </trkpt>
      <trkpt lat="42.99981" lon="-0.57139">
        <ele>852.59</ele>
        <time>2017-10-12T12:54:21Z</time>
      </trkpt>
      <trkpt lat="42.9998" lon="-0.57148">
        <ele>850.92</ele>
        <time>2017-10-12T12:54:26Z</time>
      </trkpt>
      <trkpt lat="42.9998" lon="-0.57156">
        <ele>849.86</ele>
        <time>2017-10-12T12:54:29Z</time>
      </trkpt>
      <trkpt lat="42.99975" lon="-0.57175">
        <ele>846.33</ele>
        <time>2017-10-12T12:54:37Z</time>
      </trkpt>
      <trkpt lat="42.99973" lon="-0.57179">
        <ele>843.25</ele>
        <time>2017-10-12T12:54:48Z</time>
      </trkpt>
      <trkpt lat="42.99974" lon="-0.57182">
        <ele>842.68</ele>
        <time>2017-10-12T12:55:01Z</time>
      </trkpt>
      <trkpt lat="42.99973" lon="-0.57188">
        <ele>842.5</ele>
        <time>2017-10-12T12:55:05Z</time>
      </trkpt>
      <trkpt lat="42.9997" lon="-0.57198">
        <ele>841.32</ele>
        <time>2017-10-12T12:55:12Z</time>
      </trkpt>
      <trkpt lat="42.99967" lon="-0.57206">
        <ele>840.36</ele>
        <time>2017-10-12T12:55:16Z</time>
      </trkpt>
      <trkpt lat="42.99956" lon="-0.57227">
        <ele>836.59</ele>
        <time>2017-10-12T12:55:24Z</time>
      </trkpt>
      <trkpt lat="42.99951" lon="-0.57231">
        <ele>833.54</ele>
        <time>2017-10-12T12:55:32Z</time>
      </trkpt>
      <trkpt lat="42.99946" lon="-0.57226">
        <ele>830.76</ele>
        <time>2017-10-12T12:55:49Z</time>
      </trkpt>
      <trkpt lat="42.99939" lon="-0.57227">
        <ele>828.73</ele>
        <time>2017-10-12T12:55:59Z</time>
      </trkpt>
      <trkpt lat="42.99935" lon="-0.5723">
        <ele>825.47</ele>
        <time>2017-10-12T12:56:13Z</time>
      </trkpt>
      <trkpt lat="42.99934" lon="-0.5723">
        <ele>825.15</ele>
        <time>2017-10-12T12:56:20Z</time>
      </trkpt>
      <trkpt lat="42.99931" lon="-0.57241">
        <ele>823.97</ele>
        <time>2017-10-12T12:56:27Z</time>
      </trkpt>
      <trkpt lat="42.99931" lon="-0.57257">
        <ele>821.3</ele>
        <time>2017-10-12T12:56:33Z</time>
      </trkpt>
      <trkpt lat="42.99924" lon="-0.57274">
        <ele>817.54</ele>
        <time>2017-10-12T12:56:39Z</time>
      </trkpt>
      <trkpt lat="42.99921" lon="-0.57298">
        <ele>813.21</ele>
        <time>2017-10-12T12:56:46Z</time>
      </trkpt>
      <trkpt lat="42.99921" lon="-0.57303">
        <ele>812.19</ele>
        <time>2017-10-12T12:56:48Z</time>
      </trkpt>
      <trkpt lat="42.99916" lon="-0.57319">
        <ele>809.45</ele>
        <time>2017-10-12T12:56:54Z</time>
      </trkpt>
      <trkpt lat="42.99919" lon="-0.57333">
        <ele>805.08</ele>
        <time>2017-10-12T12:57:01Z</time>
      </trkpt>
      <trkpt lat="42.99926" lon="-0.57338">
        <ele>801.87</ele>
        <time>2017-10-12T12:57:08Z</time>
      </trkpt>
      <trkpt lat="42.99915" lon="-0.57358">
        <ele>798.18</ele>
        <time>2017-10-12T12:57:18Z</time>
      </trkpt>
      <trkpt lat="42.99912" lon="-0.57363">
        <ele>796.62</ele>
        <time>2017-10-12T12:57:22Z</time>
      </trkpt>
      <trkpt lat="42.99902" lon="-0.57377">
        <ele>792.93</ele>
        <time>2017-10-12T12:57:31Z</time>
      </trkpt>
      <trkpt lat="42.99896" lon="-0.57373">
        <ele>791.28</ele>
        <time>2017-10-12T12:57:36Z</time>
      </trkpt>
      <trkpt lat="42.99886" lon="-0.57365">
        <ele>788.51</ele>
        <time>2017-10-12T12:57:44Z</time>
      </trkpt>
      <trkpt lat="42.99871" lon="-0.57373">
        <ele>785.59</ele>
        <time>2017-10-12T12:57:56Z</time>
      </trkpt>
      <trkpt lat="42.99861" lon="-0.57368">
        <ele>782.51</ele>
        <time>2017-10-12T12:58:04Z</time>
      </trkpt>
      <trkpt lat="42.99849" lon="-0.57374">
        <ele>778.65</ele>
        <time>2017-10-12T12:58:12Z</time>
      </trkpt>
      <trkpt lat="42.99849" lon="-0.57379">
        <ele>775.77</ele>
        <time>2017-10-12T12:58:24Z</time>
      </trkpt>
      <trkpt lat="42.99846" lon="-0.57381">
        <ele>775.18</ele>
        <time>2017-10-12T12:58:57Z</time>
      </trkpt>
      <trkpt lat="42.99844" lon="-0.57386">
        <ele>775.28</ele>
        <time>2017-10-12T12:59:10Z</time>
      </trkpt>
      <trkpt lat="42.99867" lon="-0.57406">
        <ele>774.21</ele>
        <time>2017-10-12T12:59:21Z</time>
      </trkpt>
      <trkpt lat="42.99875" lon="-0.57409">
        <ele>773.67</ele>
        <time>2017-10-12T12:59:23Z</time>
      </trkpt>
      <trkpt lat="42.99891" lon="-0.5742">
        <ele>772.66</ele>
        <time>2017-10-12T12:59:27Z</time>
      </trkpt>
      <trkpt lat="42.99925" lon="-0.57412">
        <ele>770.78</ele>
        <time>2017-10-12T12:59:34Z</time>
      </trkpt>
      <trkpt lat="42.99934" lon="-0.57404">
        <ele>770.09</ele>
        <time>2017-10-12T12:59:36Z</time>
      </trkpt>
      <trkpt lat="42.9997" lon="-0.57378">
        <ele>766.69</ele>
        <time>2017-10-12T12:59:44Z</time>
      </trkpt>
      <trkpt lat="42.99988" lon="-0.57362">
        <ele>763.98</ele>
        <time>2017-10-12T12:59:48Z</time>
      </trkpt>
      <trkpt lat="43.00015" lon="-0.57339">
        <ele>759.94</ele>
        <time>2017-10-12T12:59:54Z</time>
      </trkpt>
      <trkpt lat="43.00019" lon="-0.57335">
        <ele>759.3</ele>
        <time>2017-10-12T12:59:55Z</time>
      </trkpt>
      <trkpt lat="43.00046" lon="-0.57327">
        <ele>755.35</ele>
        <time>2017-10-12T13:00:00Z</time>
      </trkpt>
      <trkpt lat="43.00062" lon="-0.57346">
        <ele>752.56</ele>
        <time>2017-10-12T13:00:04Z</time>
      </trkpt>
      <trkpt lat="43.00071" lon="-0.57352">
        <ele>749.03</ele>
        <time>2017-10-12T13:00:17Z</time>
      </trkpt>
      <trkpt lat="43.00073" lon="-0.57357">
        <ele>748.78</ele>
        <time>2017-10-12T13:00:27Z</time>
      </trkpt>
      <trkpt lat="43.00073" lon="-0.57376">
        <ele>748.48</ele>
        <time>2017-10-12T13:00:31Z</time>
      </trkpt>
      <trkpt lat="43.00072" lon="-0.57442">
        <ele>744.99</ele>
        <time>2017-10-12T13:00:40Z</time>
      </trkpt>
      <trkpt lat="43.00073" lon="-0.57451">
        <ele>744.57</ele>
        <time>2017-10-12T13:00:41Z</time>
      </trkpt>
      <trkpt lat="43.00073" lon="-0.57481">
        <ele>742.7</ele>
        <time>2017-10-12T13:00:44Z</time>
      </trkpt>
      <trkpt lat="43.00075" lon="-0.575">
        <ele>741.04</ele>
        <time>2017-10-12T13:00:46Z</time>
      </trkpt>
      <trkpt lat="43.0007" lon="-0.57545">
        <ele>737.02</ele>
        <time>2017-10-12T13:00:51Z</time>
      </trkpt>
      <trkpt lat="43.00057" lon="-0.57598">
        <ele>733.84</ele>
        <time>2017-10-12T13:00:58Z</time>
      </trkpt>
      <trkpt lat="43.00032" lon="-0.57646">
        <ele>729.07</ele>
        <time>2017-10-12T13:01:04Z</time>
      </trkpt>
      <trkpt lat="43.00013" lon="-0.57703">
        <ele>724.3</ele>
        <time>2017-10-12T13:01:11Z</time>
      </trkpt>
      <trkpt lat="43.00011" lon="-0.57715">
        <ele>721.83</ele>
        <time>2017-10-12T13:01:16Z</time>
      </trkpt>
      <trkpt lat="43.00008" lon="-0.57699">
        <ele>720.16</ele>
        <time>2017-10-12T13:01:24Z</time>
      </trkpt>
      <trkpt lat="43.00007" lon="-0.57687">
        <ele>719.56</ele>
        <time>2017-10-12T13:01:26Z</time>
      </trkpt>
      <trkpt lat="43.0001" lon="-0.57661">
        <ele>715.91</ele>
        <time>2017-10-12T13:01:35Z</time>
      </trkpt>
      <trkpt lat="43.00012" lon="-0.57641">
        <ele>714.23</ele>
        <time>2017-10-12T13:01:47Z</time>
      </trkpt>
      <trkpt lat="43.00023" lon="-0.57619">
        <ele>711.75</ele>
        <time>2017-10-12T13:01:54Z</time>
      </trkpt>
      <trkpt lat="43.00024" lon="-0.57599">
        <ele>709.93</ele>
        <time>2017-10-12T13:02:01Z</time>
      </trkpt>
      <trkpt lat="43.00024" lon="-0.57588">
        <ele>709</ele>
        <time>2017-10-12T13:02:04Z</time>
      </trkpt>
      <trkpt lat="43.00025" lon="-0.57581">
        <ele>707.85</ele>
        <time>2017-10-12T13:02:07Z</time>
      </trkpt>
      <trkpt lat="43.00021" lon="-0.57552">
        <ele>706.86</ele>
        <time>2017-10-12T13:02:14Z</time>
      </trkpt>
      <trkpt lat="43.0002" lon="-0.57543">
        <ele>706.45</ele>
        <time>2017-10-12T13:02:16Z</time>
      </trkpt>
      <trkpt lat="43.00012" lon="-0.57532">
        <ele>705.62</ele>
        <time>2017-10-12T13:02:20Z</time>
      </trkpt>
      <trkpt lat="42.99994" lon="-0.57513">
        <ele>701.84</ele>
        <time>2017-10-12T13:02:30Z</time>
      </trkpt>
      <trkpt lat="42.99975" lon="-0.57514">
        <ele>699.34</ele>
        <time>2017-10-12T13:02:38Z</time>
      </trkpt>
      <trkpt lat="42.9997" lon="-0.5752">
        <ele>696.76</ele>
        <time>2017-10-12T13:02:44Z</time>
      </trkpt>
      <trkpt lat="42.99963" lon="-0.57528">
        <ele>694.56</ele>
        <time>2017-10-12T13:02:49Z</time>
      </trkpt>
      <trkpt lat="42.99947" lon="-0.57543">
        <ele>691.13</ele>
        <time>2017-10-12T13:03:00Z</time>
      </trkpt>
      <trkpt lat="42.99942" lon="-0.57546">
        <ele>688.99</ele>
        <time>2017-10-12T13:03:06Z</time>
      </trkpt>
      <trkpt lat="42.99937" lon="-0.57546">
        <ele>687.72</ele>
        <time>2017-10-12T13:03:10Z</time>
      </trkpt>
      <trkpt lat="42.99923" lon="-0.57553">
        <ele>686.47</ele>
        <time>2017-10-12T13:03:19Z</time>
      </trkpt>
      <trkpt lat="42.99913" lon="-0.57565">
        <ele>685.88</ele>
        <time>2017-10-12T13:03:24Z</time>
      </trkpt>
      <trkpt lat="42.99904" lon="-0.57571">
        <ele>683.4</ele>
        <time>2017-10-12T13:03:40Z</time>
      </trkpt>
      <trkpt lat="42.999" lon="-0.57573">
        <ele>683.65</ele>
        <time>2017-10-12T13:03:57Z</time>
      </trkpt>
      <trkpt lat="42.99889" lon="-0.57579">
        <ele>682.95</ele>
        <time>2017-10-12T13:04:14Z</time>
      </trkpt>
      <trkpt lat="42.99861" lon="-0.57588">
        <ele>680.07</ele>
        <time>2017-10-12T13:04:25Z</time>
      </trkpt>
      <trkpt lat="42.99844" lon="-0.5759">
        <ele>679.02</ele>
        <time>2017-10-12T13:04:34Z</time>
      </trkpt>
      <trkpt lat="42.99829" lon="-0.57594">
        <ele>679.61</ele>
        <time>2017-10-12T13:04:50Z</time>
      </trkpt>
      <trkpt lat="42.9982" lon="-0.57594">
        <ele>678.13</ele>
        <time>2017-10-12T13:05:02Z</time>
      </trkpt>
      <trkpt lat="42.99811" lon="-0.57597">
        <ele>677.84</ele>
        <time>2017-10-12T13:05:16Z</time>
      </trkpt>
      <trkpt lat="42.99805" lon="-0.57601">
        <ele>675.73</ele>
        <time>2017-10-12T13:05:33Z</time>
      </trkpt>
      <trkpt lat="42.99802" lon="-0.57601">
        <ele>675.58</ele>
        <time>2017-10-12T13:05:36Z</time>
      </trkpt>
      <trkpt lat="42.998" lon="-0.57598">
        <ele>674.83</ele>
        <time>2017-10-12T13:05:39Z</time>
      </trkpt>
      <trkpt lat="42.99786" lon="-0.57584">
        <ele>673.64</ele>
        <time>2017-10-12T13:05:51Z</time>
      </trkpt>
      <trkpt lat="42.99781" lon="-0.57577">
        <ele>673.09</ele>
        <time>2017-10-12T13:05:54Z</time>
      </trkpt>
      <trkpt lat="42.99762" lon="-0.57558">
        <ele>669.99</ele>
        <time>2017-10-12T13:06:02Z</time>
      </trkpt>
      <trkpt lat="42.99741" lon="-0.57552">
        <ele>665.11</ele>
        <time>2017-10-12T13:06:09Z</time>
      </trkpt>
      <trkpt lat="42.99738" lon="-0.5755">
        <ele>665.11</ele>
        <time>2017-10-12T13:06:10Z</time>
      </trkpt>
      <trkpt lat="42.99731" lon="-0.57544">
        <ele>661.57</ele>
        <time>2017-10-12T13:06:13Z</time>
      </trkpt>
      <trkpt lat="42.99729" lon="-0.57542">
        <ele>660.69</ele>
        <time>2017-10-12T13:06:14Z</time>
      </trkpt>
      <trkpt lat="42.99716" lon="-0.57523">
        <ele>656.19</ele>
        <time>2017-10-12T13:06:20Z</time>
      </trkpt>
      <trkpt lat="42.99707" lon="-0.57507">
        <ele>653.07</ele>
        <time>2017-10-12T13:06:24Z</time>
      </trkpt>
      <trkpt lat="42.99698" lon="-0.57491">
        <ele>650.06</ele>
        <time>2017-10-12T13:06:28Z</time>
      </trkpt>
      <trkpt lat="42.99686" lon="-0.57474">
        <ele>646.82</ele>
        <time>2017-10-12T13:06:33Z</time>
      </trkpt>
      <trkpt lat="42.99677" lon="-0.57459">
        <ele>643.81</ele>
        <time>2017-10-12T13:06:37Z</time>
      </trkpt>
      <trkpt lat="42.99671" lon="-0.57447">
        <ele>641.37</ele>
        <time>2017-10-12T13:06:41Z</time>
      </trkpt>
      <trkpt lat="42.99662" lon="-0.57451">
        <ele>637.34</ele>
        <time>2017-10-12T13:06:48Z</time>
      </trkpt>
      <trkpt lat="42.99661" lon="-0.57451">
        <ele>634.3</ele>
        <time>2017-10-12T13:06:57Z</time>
      </trkpt>
      <trkpt lat="42.99659" lon="-0.57453">
        <ele>633.76</ele>
        <time>2017-10-12T13:07:07Z</time>
      </trkpt>
      <trkpt lat="42.99656" lon="-0.5745">
        <ele>633.43</ele>
        <time>2017-10-12T13:07:10Z</time>
      </trkpt>
      <trkpt lat="42.99652" lon="-0.57451">
        <ele>630.18</ele>
        <time>2017-10-12T13:07:23Z</time>
      </trkpt>
      <trkpt lat="42.99648" lon="-0.57446">
        <ele>627.24</ele>
        <time>2017-10-12T13:07:37Z</time>
      </trkpt>
      <trkpt lat="42.99646" lon="-0.57456">
        <ele>625.36</ele>
        <time>2017-10-12T13:07:44Z</time>
      </trkpt>
      <trkpt lat="42.99647" lon="-0.57459">
        <ele>624.7</ele>
        <time>2017-10-12T13:07:46Z</time>
      </trkpt>
      <trkpt lat="42.99642" lon="-0.57461">
        <ele>622.25</ele>
        <time>2017-10-12T13:07:54Z</time>
      </trkpt>
      <trkpt lat="42.99638" lon="-0.57459">
        <ele>621.71</ele>
        <time>2017-10-12T13:07:56Z</time>
      </trkpt>
      <trkpt lat="42.9963" lon="-0.57446">
        <ele>617.87</ele>
        <time>2017-10-12T13:08:04Z</time>
      </trkpt>
      <trkpt lat="42.99628" lon="-0.57443">
        <ele>616.29</ele>
        <time>2017-10-12T13:08:10Z</time>
      </trkpt>
      <trkpt lat="42.99623" lon="-0.57448">
        <ele>613.14</ele>
        <time>2017-10-12T13:08:20Z</time>
      </trkpt>
      <trkpt lat="42.99625" lon="-0.57465">
        <ele>611.59</ele>
        <time>2017-10-12T13:08:25Z</time>
      </trkpt>
      <trkpt lat="42.99638" lon="-0.57485">
        <ele>608.94</ele>
        <time>2017-10-12T13:08:30Z</time>
      </trkpt>
      <trkpt lat="42.99652" lon="-0.57513">
        <ele>607.42</ele>
        <time>2017-10-12T13:08:40Z</time>
      </trkpt>
      <trkpt lat="42.99655" lon="-0.57544">
        <ele>604.09</ele>
        <time>2017-10-12T13:08:47Z</time>
      </trkpt>
      <trkpt lat="42.99658" lon="-0.57559">
        <ele>603.18</ele>
        <time>2017-10-12T13:08:50Z</time>
      </trkpt>
      <trkpt lat="42.99651" lon="-0.57586">
        <ele>602.38</ele>
        <time>2017-10-12T13:08:56Z</time>
      </trkpt>
      <trkpt lat="42.99653" lon="-0.57608">
        <ele>601.37</ele>
        <time>2017-10-12T13:09:04Z</time>
      </trkpt>
      <trkpt lat="42.9966" lon="-0.57625">
        <ele>600.13</ele>
        <time>2017-10-12T13:09:09Z</time>
      </trkpt>
      <trkpt lat="42.99675" lon="-0.57643">
        <ele>595.85</ele>
        <time>2017-10-12T13:09:17Z</time>
      </trkpt>
      <trkpt lat="42.99686" lon="-0.57653">
        <ele>593.17</ele>
        <time>2017-10-12T13:09:21Z</time>
      </trkpt>
      <trkpt lat="42.99703" lon="-0.57674">
        <ele>589.53</ele>
        <time>2017-10-12T13:09:27Z</time>
      </trkpt>
      <trkpt lat="42.99713" lon="-0.5769">
        <ele>585.8</ele>
        <time>2017-10-12T13:09:32Z</time>
      </trkpt>
      <trkpt lat="42.99717" lon="-0.57694">
        <ele>583.86</ele>
        <time>2017-10-12T13:09:35Z</time>
      </trkpt>
      <trkpt lat="42.99716" lon="-0.57707">
        <ele>580.87</ele>
        <time>2017-10-12T13:09:46Z</time>
      </trkpt>
      <trkpt lat="42.99711" lon="-0.57711">
        <ele>580.28</ele>
        <time>2017-10-12T13:09:52Z</time>
      </trkpt>
      <trkpt lat="42.99685" lon="-0.57731">
        <ele>578.75</ele>
        <time>2017-10-12T13:10:03Z</time>
      </trkpt>
      <trkpt lat="42.99675" lon="-0.57752">
        <ele>577.38</ele>
        <time>2017-10-12T13:10:09Z</time>
      </trkpt>
      <trkpt lat="42.9967" lon="-0.57763">
        <ele>577.01</ele>
        <time>2017-10-12T13:10:11Z</time>
      </trkpt>
      <trkpt lat="42.99653" lon="-0.57787">
        <ele>575.32</ele>
        <time>2017-10-12T13:10:16Z</time>
      </trkpt>
      <trkpt lat="42.99618" lon="-0.57802">
        <ele>571.49</ele>
        <time>2017-10-12T13:10:24Z</time>
      </trkpt>
      <trkpt lat="42.99611" lon="-0.57809">
        <ele>570.24</ele>
        <time>2017-10-12T13:10:26Z</time>
      </trkpt>
      <trkpt lat="42.99595" lon="-0.57832">
        <ele>567.01</ele>
        <time>2017-10-12T13:10:32Z</time>
      </trkpt>
      <trkpt lat="42.99592" lon="-0.57865">
        <ele>564.79</ele>
        <time>2017-10-12T13:10:38Z</time>
      </trkpt>
      <trkpt lat="42.99593" lon="-0.57877">
        <ele>563.83</ele>
        <time>2017-10-12T13:10:41Z</time>
      </trkpt>
      <trkpt lat="42.99581" lon="-0.57921">
        <ele>560.08</ele>
        <time>2017-10-12T13:10:49Z</time>
      </trkpt>
      <trkpt lat="42.9958" lon="-0.57934">
        <ele>558.5</ele>
        <time>2017-10-12T13:10:51Z</time>
      </trkpt>
      <trkpt lat="42.9958" lon="-0.57947">
        <ele>556.67</ele>
        <time>2017-10-12T13:10:53Z</time>
      </trkpt>
      <trkpt lat="42.99588" lon="-0.57972">
        <ele>552.7</ele>
        <time>2017-10-12T13:10:58Z</time>
      </trkpt>
      <trkpt lat="42.9958" lon="-0.58015">
        <ele>548.92</ele>
        <time>2017-10-12T13:11:06Z</time>
      </trkpt>
      <trkpt lat="42.99576" lon="-0.58054">
        <ele>547.86</ele>
        <time>2017-10-12T13:11:13Z</time>
      </trkpt>
      <trkpt lat="42.99572" lon="-0.58078">
        <ele>547.84</ele>
        <time>2017-10-12T13:11:18Z</time>
      </trkpt>
      <trkpt lat="42.99569" lon="-0.58127">
        <ele>547.23</ele>
        <time>2017-10-12T13:11:28Z</time>
      </trkpt>
      <trkpt lat="42.99563" lon="-0.58165">
        <ele>544.22</ele>
        <time>2017-10-12T13:11:35Z</time>
      </trkpt>
      <trkpt lat="42.99562" lon="-0.58182">
        <ele>542.11</ele>
        <time>2017-10-12T13:11:38Z</time>
      </trkpt>
      <trkpt lat="42.9956" lon="-0.58205">
        <ele>539.46</ele>
        <time>2017-10-12T13:11:42Z</time>
      </trkpt>
      <trkpt lat="42.99555" lon="-0.58221">
        <ele>537.62</ele>
        <time>2017-10-12T13:11:44Z</time>
      </trkpt>
      <trkpt lat="42.99546" lon="-0.58245">
        <ele>535.35</ele>
        <time>2017-10-12T13:11:48Z</time>
      </trkpt>
      <trkpt lat="42.99542" lon="-0.58252">
        <ele>534.44</ele>
        <time>2017-10-12T13:11:52Z</time>
      </trkpt>
      <trkpt lat="42.99538" lon="-0.58268">
        <ele>535.66</ele>
        <time>2017-10-12T13:12:10Z</time>
      </trkpt>
      <trkpt lat="42.99536" lon="-0.58277">
        <ele>535.91</ele>
        <time>2017-10-12T13:12:17Z</time>
      </trkpt>
      <trkpt lat="42.99526" lon="-0.583">
        <ele>536.97</ele>
        <time>2017-10-12T13:12:25Z</time>
      </trkpt>
      <trkpt lat="42.99515" lon="-0.5831">
        <ele>537.83</ele>
        <time>2017-10-12T13:12:31Z</time>
      </trkpt>
      <trkpt lat="42.99511" lon="-0.58315">
        <ele>538.25</ele>
        <time>2017-10-12T13:12:34Z</time>
      </trkpt>
      <trkpt lat="42.99498" lon="-0.58351">
        <ele>537.23</ele>
        <time>2017-10-12T13:12:44Z</time>
      </trkpt>
      <trkpt lat="42.99496" lon="-0.58377">
        <ele>535.44</ele>
        <time>2017-10-12T13:12:54Z</time>
      </trkpt>
      <trkpt lat="42.99498" lon="-0.58395">
        <ele>532.64</ele>
        <time>2017-10-12T13:12:59Z</time>
      </trkpt>
      <trkpt lat="42.99498" lon="-0.58398">
        <ele>531.98</ele>
        <time>2017-10-12T13:13:00Z</time>
      </trkpt>
      <trkpt lat="42.99497" lon="-0.58424">
        <ele>527.5</ele>
        <time>2017-10-12T13:13:06Z</time>
      </trkpt>
      <trkpt lat="42.99499" lon="-0.58446">
        <ele>524.41</ele>
        <time>2017-10-12T13:13:11Z</time>
      </trkpt>
      <trkpt lat="42.99503" lon="-0.58468">
        <ele>521.22</ele>
        <time>2017-10-12T13:13:16Z</time>
      </trkpt>
      <trkpt lat="42.9951" lon="-0.58479">
        <ele>519.36</ele>
        <time>2017-10-12T13:13:19Z</time>
      </trkpt>
      <trkpt lat="42.99522" lon="-0.58492">
        <ele>517.26</ele>
        <time>2017-10-12T13:13:23Z</time>
      </trkpt>
      <trkpt lat="42.99532" lon="-0.58513">
        <ele>515.27</ele>
        <time>2017-10-12T13:13:27Z</time>
      </trkpt>
      <trkpt lat="42.99537" lon="-0.58543">
        <ele>512.41</ele>
        <time>2017-10-12T13:13:33Z</time>
      </trkpt>
      <trkpt lat="42.99538" lon="-0.58554">
        <ele>510.96</ele>
        <time>2017-10-12T13:13:37Z</time>
      </trkpt>
      <trkpt lat="42.99537" lon="-0.58596">
        <ele>506.84</ele>
        <time>2017-10-12T13:13:45Z</time>
      </trkpt>
      <trkpt lat="42.99535" lon="-0.58602">
        <ele>506.19</ele>
        <time>2017-10-12T13:13:46Z</time>
      </trkpt>
      <trkpt lat="42.99527" lon="-0.58624">
        <ele>504.11</ele>
        <time>2017-10-12T13:13:49Z</time>
      </trkpt>
      <trkpt lat="42.99518" lon="-0.58646">
        <ele>501.94</ele>
        <time>2017-10-12T13:13:53Z</time>
      </trkpt>
      <trkpt lat="42.99521" lon="-0.58673">
        <ele>501.1</ele>
        <time>2017-10-12T13:14:00Z</time>
      </trkpt>
      <trkpt lat="42.99528" lon="-0.58682">
        <ele>499.15</ele>
        <time>2017-10-12T13:14:05Z</time>
      </trkpt>
      <trkpt lat="42.99553" lon="-0.58707">
        <ele>495.02</ele>
        <time>2017-10-12T13:14:12Z</time>
      </trkpt>
      <trkpt lat="42.99562" lon="-0.58729">
        <ele>491.96</ele>
        <time>2017-10-12T13:14:22Z</time>
      </trkpt>
      <trkpt lat="42.99566" lon="-0.58733">
        <ele>490.3</ele>
        <time>2017-10-12T13:14:25Z</time>
      </trkpt>
      <trkpt lat="42.9958" lon="-0.58746">
        <ele>486.37</ele>
        <time>2017-10-12T13:14:32Z</time>
      </trkpt>
      <trkpt lat="42.99583" lon="-0.58749">
        <ele>483.23</ele>
        <time>2017-10-12T13:14:38Z</time>
      </trkpt>
      <trkpt lat="42.9959" lon="-0.58748">
        <ele>481.98</ele>
        <time>2017-10-12T13:15:05Z</time>
      </trkpt>
      <trkpt lat="42.996" lon="-0.58751">
        <ele>481.61</ele>
        <time>2017-10-12T13:15:09Z</time>
      </trkpt>
      <trkpt lat="42.9961" lon="-0.58753">
        <ele>480.73</ele>
        <time>2017-10-12T13:15:11Z</time>
      </trkpt>
      <trkpt lat="42.99631" lon="-0.58767">
        <ele>478.5</ele>
        <time>2017-10-12T13:15:15Z</time>
      </trkpt>
      <trkpt lat="42.99659" lon="-0.588">
        <ele>474.96</ele>
        <time>2017-10-12T13:15:20Z</time>
      </trkpt>
      <trkpt lat="42.99683" lon="-0.58837">
        <ele>470.91</ele>
        <time>2017-10-12T13:15:24Z</time>
      </trkpt>
      <trkpt lat="42.997" lon="-0.58865">
        <ele>467.35</ele>
        <time>2017-10-12T13:15:27Z</time>
      </trkpt>
      <trkpt lat="42.99714" lon="-0.5891">
        <ele>463.4</ele>
        <time>2017-10-12T13:15:32Z</time>
      </trkpt>
      <trkpt lat="42.99717" lon="-0.58931">
        <ele>462.14</ele>
        <time>2017-10-12T13:15:36Z</time>
      </trkpt>
      <trkpt lat="42.99717" lon="-0.58951">
        <ele>461.35</ele>
        <time>2017-10-12T13:15:42Z</time>
      </trkpt>
      <trkpt lat="42.9971" lon="-0.58969">
        <ele>460.16</ele>
        <time>2017-10-12T13:15:46Z</time>
      </trkpt>
      <trkpt lat="42.99703" lon="-0.58979">
        <ele>459.34</ele>
        <time>2017-10-12T13:15:48Z</time>
      </trkpt>
      <trkpt lat="42.99697" lon="-0.59006">
        <ele>457.37</ele>
        <time>2017-10-12T13:15:52Z</time>
      </trkpt>
      <trkpt lat="42.99688" lon="-0.59043">
        <ele>455.58</ele>
        <time>2017-10-12T13:15:57Z</time>
      </trkpt>
      <trkpt lat="42.99674" lon="-0.59065">
        <ele>454.58</ele>
        <time>2017-10-12T13:16:01Z</time>
      </trkpt>
      <trkpt lat="42.99644" lon="-0.59106">
        <ele>452.93</ele>
        <time>2017-10-12T13:16:09Z</time>
      </trkpt>
      <trkpt lat="42.99619" lon="-0.59144">
        <ele>451.46</ele>
        <time>2017-10-12T13:16:19Z</time>
      </trkpt>
      <trkpt lat="42.99626" lon="-0.59209">
        <ele>449.07</ele>
        <time>2017-10-12T13:16:28Z</time>
      </trkpt>
      <trkpt lat="42.99654" lon="-0.59262">
        <ele>445.51</ele>
        <time>2017-10-12T13:16:36Z</time>
      </trkpt>
      <trkpt lat="42.99659" lon="-0.59278">
        <ele>444.81</ele>
        <time>2017-10-12T13:16:38Z</time>
      </trkpt>
      <trkpt lat="42.99668" lon="-0.59308">
        <ele>443.67</ele>
        <time>2017-10-12T13:16:42Z</time>
      </trkpt>
      <trkpt lat="42.99672" lon="-0.59354">
        <ele>441.99</ele>
        <time>2017-10-12T13:16:48Z</time>
      </trkpt>
      <trkpt lat="42.99671" lon="-0.59367">
        <ele>441.87</ele>
        <time>2017-10-12T13:16:50Z</time>
      </trkpt>
      <trkpt lat="42.99672" lon="-0.59387">
        <ele>441.58</ele>
        <time>2017-10-12T13:16:54Z</time>
      </trkpt>
      <trkpt lat="42.99684" lon="-0.5943">
        <ele>441.76</ele>
        <time>2017-10-12T13:17:07Z</time>
      </trkpt>
      <trkpt lat="42.99686" lon="-0.59435">
        <ele>441.76</ele>
        <time>2017-10-12T13:17:09Z</time>
      </trkpt>
      <trkpt lat="42.99678" lon="-0.59445">
        <ele>441.58</ele>
        <time>2017-10-12T13:17:13Z</time>
      </trkpt>
      <trkpt lat="42.9964" lon="-0.5946">
        <ele>439.35</ele>
        <time>2017-10-12T13:17:25Z</time>
      </trkpt>
      <trkpt lat="42.99631" lon="-0.5946">
        <ele>440.18</ele>
        <time>2017-10-12T13:17:29Z</time>
      </trkpt>
      <trkpt lat="42.99622" lon="-0.59483">
        <ele>440.24</ele>
        <time>2017-10-12T13:17:34Z</time>
      </trkpt>
      <trkpt lat="42.9963" lon="-0.59606">
        <ele>437.34</ele>
        <time>2017-10-12T13:17:50Z</time>
      </trkpt>
      <trkpt lat="42.99638" lon="-0.59644">
        <ele>436.46</ele>
        <time>2017-10-12T13:17:55Z</time>
      </trkpt>
      <trkpt lat="42.99646" lon="-0.59666">
        <ele>435.9</ele>
        <time>2017-10-12T13:17:58Z</time>
      </trkpt>
      <trkpt lat="42.9966" lon="-0.59692">
        <ele>435.44</ele>
        <time>2017-10-12T13:18:02Z</time>
      </trkpt>
      <trkpt lat="42.99673" lon="-0.59721">
        <ele>435.01</ele>
        <time>2017-10-12T13:18:06Z</time>
      </trkpt>
      <trkpt lat="42.99697" lon="-0.59847">
        <ele>432.42</ele>
        <time>2017-10-12T13:18:23Z</time>
      </trkpt>
      <trkpt lat="42.99713" lon="-0.59934">
        <ele>432.44</ele>
        <time>2017-10-12T13:18:36Z</time>
      </trkpt>
      <trkpt lat="42.99716" lon="-0.59966">
        <ele>432.21</ele>
        <time>2017-10-12T13:18:41Z</time>
      </trkpt>
      <trkpt lat="42.99742" lon="-0.59999">
        <ele>431.24</ele>
        <time>2017-10-12T13:18:49Z</time>
      </trkpt>
      <trkpt lat="42.9977" lon="-0.60004">
        <ele>430.49</ele>
        <time>2017-10-12T13:18:53Z</time>
      </trkpt>
      <trkpt lat="42.99793" lon="-0.60009">
        <ele>429.08</ele>
        <time>2017-10-12T13:18:56Z</time>
      </trkpt>
      <trkpt lat="42.99815" lon="-0.60018">
        <ele>427.23</ele>
        <time>2017-10-12T13:18:59Z</time>
      </trkpt>
      <trkpt lat="42.99836" lon="-0.60034">
        <ele>425.89</ele>
        <time>2017-10-12T13:19:02Z</time>
      </trkpt>
      <trkpt lat="42.99874" lon="-0.60018">
        <ele>425.04</ele>
        <time>2017-10-12T13:19:09Z</time>
      </trkpt>
      <trkpt lat="42.99877" lon="-0.60017">
        <ele>425.19</ele>
        <time>2017-10-12T13:19:10Z</time>
      </trkpt>
      <trkpt lat="42.99906" lon="-0.60041">
        <ele>427.18</ele>
        <time>2017-10-12T13:19:20Z</time>
      </trkpt>
      <trkpt lat="42.99919" lon="-0.6004">
        <ele>427.44</ele>
        <time>2017-10-12T13:19:24Z</time>
      </trkpt>
      <trkpt lat="42.99954" lon="-0.60032">
        <ele>428.31</ele>
        <time>2017-10-12T13:19:34Z</time>
      </trkpt>
      <trkpt lat="42.99979" lon="-0.60029">
        <ele>428.57</ele>
        <time>2017-10-12T13:19:43Z</time>
      </trkpt>
      <trkpt lat="43.00011" lon="-0.60019">
        <ele>428.17</ele>
        <time>2017-10-12T13:19:53Z</time>
      </trkpt>
      <trkpt lat="43.00016" lon="-0.60018">
        <ele>428.12</ele>
        <time>2017-10-12T13:19:58Z</time>
      </trkpt>
      <trkpt lat="43.00028" lon="-0.60052">
        <ele>427.62</ele>
        <time>2017-10-12T13:20:08Z</time>
      </trkpt>
      <trkpt lat="43.00033" lon="-0.6006">
        <ele>427.43</ele>
        <time>2017-10-12T13:20:11Z</time>
      </trkpt>
      <trkpt lat="43.00026" lon="-0.6008">
        <ele>427.03</ele>
        <time>2017-10-12T13:20:18Z</time>
      </trkpt>
      <trkpt lat="43.00023" lon="-0.60079">
        <ele>427.18</ele>
        <time>2017-10-12T13:20:40Z</time>
      </trkpt>
      <trkpt lat="43.00023" lon="-0.60082">
        <ele>426.91</ele>
        <time>2017-10-12T13:21:38Z</time>
      </trkpt>
      <trkpt lat="43.00023" lon="-0.60088">
        <ele>426.18</ele>
        <time>2017-10-12T13:21:56Z</time>
      </trkpt>
      <trkpt lat="43.00024" lon="-0.60087">
        <ele>425.78</ele>
        <time>2017-10-12T13:22:09Z</time>
      </trkpt>
      <trkpt lat="43.00024" lon="-0.60088">
        <ele>425.27</ele>
        <time>2017-10-12T13:22:37Z</time>
      </trkpt>
      <trkpt lat="43.00026" lon="-0.60087">
        <ele>424.91</ele>
        <time>2017-10-12T13:23:04Z</time>
      </trkpt>
      <trkpt lat="43.00026" lon="-0.60087">
        <ele>425.28</ele>
        <time>2017-10-12T13:23:39Z</time>
      </trkpt>
      <trkpt lat="43.00026" lon="-0.60089">
        <ele>425.14</ele>
        <time>2017-10-12T13:24:06Z</time>
      </trkpt>
      <trkpt lat="43.00027" lon="-0.6009">
        <ele>407.96</ele>
        <time>2017-10-12T13:24:26Z</time>
      </trkpt>
    </trkseg>
  </trk>
</gpx>